Date StartTime U_cm/s V_cm/s W_cm/s Ustd_cm/s Vstd_cm/s Wstd_cm/s Uvar_(cm/s)^2 Vvar_(cm/s)^2 Wvar_(cm/s)^2 KE_(m/s)^2 TurbulentKE_(m/s)^2 HorizWindSpeed_cm/s FrictionSpeec_cm/s DragCoef SpeedOfSound_m/s SonicTemperature_C Pressure_mb 
09/26/2014  00:00:00      -71.836      116.710       -9.997       47.327       44.803       30.287     2239.831     2007.347      917.303        1.202        0.258      137.046       30.945        0.051      339.674       13.169      860.126
09/26/2014  00:01:00      -49.307      107.048      -11.516       29.353       39.651       31.017      861.601     1572.200      962.077        0.871        0.170      117.858       23.144        0.039      339.691       13.199      860.120
09/26/2014  00:02:00      -48.530       81.772       -3.046       59.366       66.680       27.188     3524.271     4446.158      739.202        0.888        0.435       95.089       20.571        0.047      339.643       13.117      860.122
09/26/2014  00:03:00      -54.435       -1.572        6.439       53.268       26.984       25.487     2837.513      728.127      649.565        0.361        0.211       54.458       22.820        0.176      339.567       12.989      860.129
09/26/2014  00:04:00      -25.607       18.497        2.112       22.616       25.383       14.973      511.495      644.301      224.203        0.119        0.069       31.588       16.317        0.267      339.520       12.909      860.141
09/26/2014  00:05:00      -20.619       47.113      -11.265       43.441       22.516       15.764     1887.082      506.982      248.511        0.271        0.132       51.427        9.078        0.031      339.494       12.866      860.121
09/26/2014  00:06:00        3.236       75.971       11.142       35.590       49.797       33.527     1266.673     2479.736     1124.031        0.539        0.244       76.039       30.892        0.165      339.435       12.767      860.094
09/26/2014  00:07:00       -1.126       68.092        1.563       15.993       48.481       23.375      255.779     2350.428      546.403        0.390        0.158       68.102       28.387        0.174      339.460       12.809      860.105
09/26/2014  00:08:00       11.438       51.809       -3.612       27.671       41.167       18.235      765.695     1694.702      332.502        0.281        0.140       53.057       20.074        0.143      339.376       12.668      860.190
09/26/2014  00:09:00       15.890       96.603        3.765       23.820       51.238       28.618      567.393     2625.381      818.990        0.680        0.201       97.901       26.270        0.072      339.370       12.657      860.285
09/26/2014  00:10:00       42.030       77.660       -8.345       23.442       31.812       17.610      549.544     1012.025      310.110        0.487        0.094       88.303       11.019        0.016      339.288       12.519      860.346
09/26/2014  00:11:00       86.934       47.951        3.109       24.898       26.879       21.634      619.886      722.483      468.051        0.584        0.091       99.281        7.782        0.006      339.311       12.556      860.346
09/26/2014  00:12:00      120.539       72.241       -0.406       21.211       23.384       17.777      449.908      546.792      316.038        1.053        0.066      140.529        8.375        0.004      339.227       12.416      860.299
09/26/2014  00:13:00       89.551       51.297        3.459       37.075       30.511       19.433     1374.575      930.903      377.627        0.667        0.134      103.203       11.710        0.013      339.192       12.358      860.260
09/26/2014  00:14:00      122.165       78.031       21.152       58.594       38.853       27.230     3433.249     1509.570      741.467        1.357        0.284      144.960       29.789        0.042      339.111       12.220      860.249
09/26/2014  00:15:00      175.899       82.978        6.014       61.927       44.858       32.419     3834.932     2012.208     1050.966        2.238        0.345      194.489       16.596        0.007      339.142       12.270      860.255
09/26/2014  00:16:00      150.811       86.803       39.124       64.489       41.717       44.160     4158.775     1740.301     1950.068        1.983        0.392      174.007       35.829        0.042      339.156       12.295      860.299
09/26/2014  00:17:00       96.054       89.458       40.669       64.827       35.941       46.646     4202.570     1291.775     2175.819        1.328        0.384      131.259       43.291        0.109      339.246       12.448      860.349
09/26/2014  00:18:00       74.212       96.045       94.231       49.219       35.297       28.860     2422.524     1245.891      832.908        1.406        0.225      121.376       16.083        0.018      339.282       12.508      860.421
09/26/2014  00:19:00      112.101       82.827       39.074       55.964       45.509       47.013     3131.930     2071.078     2210.218        1.418        0.371      139.380       35.966        0.067      339.188       12.351      860.507
09/26/2014  00:20:00      144.937       92.156       25.277       46.816       34.763       33.768     2191.708     1208.473     1140.284        1.734        0.227      171.755       24.309        0.020      339.082       12.170      860.550
09/26/2014  00:21:00      123.599       88.482       53.720       64.267       31.249       36.302     4130.237      976.525     1317.860        1.621        0.321      152.006       36.174        0.057      339.070       12.151      860.562
09/26/2014  00:22:00       73.007       65.832       66.739       52.221       65.541       46.928     2726.998     4295.579     2202.246        1.167        0.461       98.305       43.963        0.200      339.054       12.124      860.562
09/26/2014  00:23:00       29.956       27.427        3.815       52.634       35.011       29.115     2770.307     1225.737      847.687        0.325        0.242       40.616       21.095        0.270      339.062       12.138      860.560
09/26/2014  00:24:00       -5.672      103.105      -21.037       23.762       30.922       15.745      564.630      956.170      247.892        0.644        0.088      103.261       14.904        0.021      339.210       12.387      860.533
09/26/2014  00:25:00      -70.938       69.031      -10.412       36.728       33.837       22.577     1348.975     1144.910      509.704        0.645        0.150       98.983       18.393        0.035      339.144       12.276      860.485
09/26/2014  00:26:00      -49.375      101.229      -15.284       40.528       38.583       21.436     1642.552     1488.618      459.502        0.825        0.180      112.628       17.298        0.024      339.193       12.359      860.427
09/26/2014  00:27:00       -6.272      178.528      -20.402       35.845       56.245       23.424     1284.858     3163.501      548.691        1.866        0.250      178.638       22.584        0.016      339.178       12.332      860.364
09/26/2014  00:28:00       21.862      247.567      -28.221       49.930       87.802       38.148     2493.021     7709.270     1455.255        3.711        0.583      248.531       35.438        0.020      339.063       12.137      860.310
09/26/2014  00:29:00       36.623      238.260      -17.212       64.046       98.354       62.145     4101.948     9673.461     3862.033        3.802        0.882      241.058       59.432        0.061      339.160       12.298      860.300
09/26/2014  00:30:00       64.734      190.423      -22.139       58.434       97.449       45.961     3414.526     9496.388     2112.457        2.798        0.751      201.125       44.859        0.050      339.260       12.469      860.306
09/26/2014  00:31:00      114.705       79.990        6.646       42.264       33.450       31.383     1786.257     1118.879      984.894        1.174        0.195      139.842       22.056        0.025      339.137       12.265      860.294
09/26/2014  00:32:00      119.008      106.514        2.164       64.242       49.308       43.590     4127.047     2431.236     1900.119        1.698        0.423      159.713       36.284        0.052      339.141       12.271      860.268
09/26/2014  00:33:00       76.131       94.748        3.870       73.352       66.821       44.222     5380.460     4465.055     1955.597        1.329        0.590      121.545       40.686        0.112      339.051       12.117      860.250
09/26/2014  00:34:00       25.328      107.887       -7.594       39.627       56.582       35.143     1570.271     3201.480     1235.023        0.917        0.300      110.820       37.446        0.114      339.078       12.164      860.277
09/26/2014  00:35:00      -28.316      102.019       -4.620       47.002       47.148       23.610     2209.181     2222.887      557.455        0.811        0.249      105.876       12.685        0.014      339.120       12.236      860.307
09/26/2014  00:36:00     -101.281       24.496      -12.380       22.999       24.574       13.585      528.940      603.890      184.552        0.616        0.066      104.201       11.887        0.013      339.023       12.072      860.279
09/26/2014  00:37:00     -120.874      134.281      -30.672       54.670       48.479       31.248     2988.799     2350.166      976.418        1.995        0.316      180.670       30.775        0.029      339.152       12.287      860.238
09/26/2014  00:38:00      -61.034      127.420      -15.461       43.580       43.296       27.368     1899.255     1874.521      749.024        1.236        0.226      141.283       30.657        0.047      339.125       12.245      860.235
09/26/2014  00:39:00       10.278       53.154       -6.554       47.268       52.281       13.259     2234.308     2733.343      175.797        0.406        0.257       54.139       20.228        0.140      339.226       12.414      860.269
09/26/2014  00:40:00       19.344       25.588       24.190       32.797       32.206       20.453     1075.656     1037.221      418.336        0.207        0.127       32.077       18.587        0.336      339.086       12.178      860.315
09/26/2014  00:41:00        1.371      -44.192        9.565       45.925       26.937       24.142     2109.126      725.626      582.847        0.273        0.171       44.213       21.709        0.241      339.182       12.342      860.400
09/26/2014  00:42:00      -49.898      -69.044       -3.094       32.510       36.349       24.871     1056.885     1321.253      618.555        0.513        0.150       85.187       24.341        0.082      339.164       12.310      860.482
09/26/2014  00:43:00     -110.917      -81.246       -4.343       33.579       46.048       21.328     1127.538     2120.462      454.892        1.131        0.185      137.490       18.196        0.018      339.113       12.224      860.504
09/26/2014  00:44:00      -69.593       35.693       -8.142       21.100       22.251       14.118      445.197      495.100      199.322        0.366        0.057       78.213       10.283        0.017      339.077       12.164      860.462
09/26/2014  00:45:00      -65.123       36.985       -7.887       18.662       23.257        8.499      348.253      540.895       72.234        0.332        0.048       74.892        4.048        0.003      339.048       12.111      860.441
09/26/2014  00:46:00      -21.440       45.230       -1.724       34.959       34.359       17.759     1222.156     1180.519      315.388        0.261        0.136       50.054       10.282        0.042      338.973       11.989      860.447
09/26/2014  00:47:00      -11.432       75.872       -0.196       32.465       50.476       21.641     1054.001     2547.800      468.320        0.498        0.204       76.729       27.883        0.132      338.877       11.828      860.456
09/26/2014  00:48:00        5.180      100.041      -19.035       39.057       58.281       17.565     1525.413     3396.646      308.524        0.781        0.262      100.175       20.990        0.044      338.865       11.808      860.453
09/26/2014  00:49:00       32.262       41.438       -4.051       41.464       82.936       31.892     1719.257     6878.425     1017.103        0.619        0.481       52.516       32.107        0.374      338.893       11.853      860.413
09/26/2014  00:50:00      -20.274      126.953       -1.896       44.525       88.341       31.791     1982.512     7804.135     1010.671        1.366        0.540      128.561       40.646        0.100      338.777       11.657      860.395
09/26/2014  00:51:00       49.229      105.775      -15.963       47.145       85.857       38.314     2222.634     7371.429     1467.971        1.246        0.553      116.670       45.474        0.152      338.758       11.626      860.397
09/26/2014  00:52:00       41.490      114.291      -11.415       44.688       54.522       31.786     1996.979     2972.649     1010.365        1.045        0.299      121.589       34.313        0.080      338.735       11.588      860.389
09/26/2014  00:53:00       11.416       82.751        3.882       44.778       60.597       30.609     2005.026     3672.044      936.891        0.680        0.331       83.534       34.806        0.174      338.682       11.499      860.381
09/26/2014  00:54:00      -15.111      121.361      -12.873       36.609       55.550       24.234     1340.199     3085.788      587.293        1.007        0.251      122.299       31.580        0.067      338.701       11.531      860.371
09/26/2014  00:55:00       39.266       49.518       -6.366       23.982       36.813       19.788      575.117     1355.185      391.583        0.318        0.116       63.196       18.222        0.083      338.680       11.496      860.388
09/26/2014  00:56:00       19.004        4.971       11.988       37.201       23.754       19.447     1383.949      564.255      378.182        0.143        0.116       19.643       15.292        0.606      338.659       11.461      860.424
09/26/2014  00:57:00       -8.636       20.291        0.607       22.740       19.443       13.023      517.104      378.012      169.600        0.078        0.053       22.053       13.274        0.362      338.677       11.490      860.442
09/26/2014  00:58:00      -21.018       24.482       -9.574       19.047       42.121       16.449      362.789     1774.216      270.557        0.177        0.120       32.267       18.368        0.324      338.706       11.539      860.446
09/26/2014  00:59:00       18.649      -19.629      -16.654       28.895       24.023       22.119      834.920      577.090      489.256        0.146        0.095       27.076       15.930        0.346      338.720       11.564      860.469
09/26/2014  01:00:00       28.241        0.554       -7.675       25.746       17.977       22.597      662.854      323.166      510.644        0.118        0.075       28.246       19.686        0.486      338.728       11.573      860.526
09/26/2014  01:01:00       12.043       17.399        9.718       10.920       19.146        9.136      119.237      366.571       83.471        0.056        0.028       21.160        6.871        0.105      338.681       11.498      860.561
09/26/2014  01:02:00       67.284       48.887       26.706       30.991       18.119       23.546      960.451      328.296      554.400        0.474        0.092       83.169        8.305        0.010      338.727       11.576      860.573
09/26/2014  01:03:00       52.001       59.836       60.831       39.514       55.977       36.018     1561.386     3133.444     1297.266        0.799        0.300       79.275       33.450        0.178      338.728       11.578      860.574
09/26/2014  01:04:00       67.374       78.518       65.290       53.234       45.558       41.049     2833.810     2075.496     1685.049        1.078        0.330      103.462       40.108        0.150      338.709       11.544      860.589
09/26/2014  01:05:00       73.128       93.041       84.298       42.138       31.518       24.798     1775.590      993.355      614.945        1.225        0.169      118.340       20.551        0.030      338.713       11.552      860.619
09/26/2014  01:06:00       48.181       74.921       77.004       38.346       38.098       28.957     1470.421     1451.463      838.485        0.881        0.188       89.076       24.724        0.077      338.698       11.526      860.651
09/26/2014  01:07:00       56.854       82.598       84.758       51.714       36.774       37.004     2674.344     1352.352     1369.265        1.132        0.270      100.273       22.499        0.050      338.683       11.500      860.669
09/26/2014  01:08:00       85.948       84.458       63.747       48.312       43.086       40.785     2334.024     1856.416     1663.435        1.222        0.293      120.500       32.936        0.075      338.659       11.460      860.674
09/26/2014  01:09:00       78.410       70.359       55.682       41.221       44.027       37.587     1699.199     1938.400     1412.758        0.962        0.253      105.350       32.522        0.095      338.687       11.510      860.691
09/26/2014  01:10:00      108.105       79.869       39.652       30.754       24.138       31.073      945.838      582.624      965.540        1.107        0.125      134.409        5.316        0.002      338.696       11.524      860.704
09/26/2014  01:11:00      111.909       53.515        6.930       46.812       36.724       29.862     2191.388     1348.638      891.766        0.993        0.222      124.047       20.926        0.028      338.587       11.339      860.701
09/26/2014  01:12:00       60.485       23.393        6.646       35.501       29.753       21.436     1260.332      885.220      459.492        0.343        0.130       64.851       13.661        0.044      338.526       11.237      860.673
09/26/2014  01:13:00       41.052       29.843        8.185       48.992       23.688       20.803     2400.214      561.098      432.761        0.302        0.170       50.753       19.262        0.144      338.536       11.254      860.636
09/26/2014  01:14:00       33.165       39.010        7.166       38.027       37.620       24.982     1446.049     1415.276      624.095        0.308        0.174       51.203       20.370        0.158      338.497       11.189      860.641
09/26/2014  01:15:00      -15.082      113.910      -18.722       48.895       61.511       23.808     2390.750     3783.574      566.823        1.015        0.337      114.904       18.379        0.026      338.572       11.314      860.656
09/26/2014  01:16:00      -66.916      103.627      -24.540       31.718       27.403       21.398     1006.028      750.902      457.893        0.902        0.111      123.354       18.105        0.022      338.679       11.496      860.679
09/26/2014  01:17:00      -13.588      125.978      -14.811       28.322       35.209       14.499      802.128     1239.640      210.216        0.926        0.113      126.709        9.109        0.005      338.733       11.585      860.693
09/26/2014  01:18:00       17.555      118.435      -16.490       21.372       23.225       15.894      456.745      539.391      252.622        0.793        0.062      119.729       13.255        0.012      338.709       11.544      860.694
09/26/2014  01:19:00       20.673       47.531       -1.999       21.741       31.552       21.790      472.691      995.526      474.797        0.232        0.097       51.832       22.642        0.191      338.571       11.314      860.706
09/26/2014  01:20:00       54.322       36.635       -2.800       16.091       15.795       12.744      258.929      249.470      162.405        0.249        0.034       65.521        8.213        0.016      338.608       11.376      860.732
09/26/2014  01:21:00       20.464       26.925       -1.989       17.468       16.452        9.323      305.129      270.680       86.920        0.091        0.033       33.819        3.738        0.012      338.632       11.416      860.734
09/26/2014  01:22:00       56.883       39.909       16.023       23.791       34.441       31.600      566.035     1186.169      998.589        0.392        0.138       69.487       17.470        0.063      338.671       11.481      860.719
09/26/2014  01:23:00       43.908       85.049       -1.127       38.542       28.905       26.576     1485.469      835.503      706.273        0.609        0.151       95.715       25.291        0.070      338.633       11.418      860.695
09/26/2014  01:24:00      -22.359       66.639      -14.564       14.812       46.852        9.515      219.387     2195.090       90.537        0.383        0.125       70.290        8.280        0.014      338.599       11.360      860.691
09/26/2014  01:25:00      -80.163      -19.332       -6.018       32.020       23.737       15.470     1025.289      563.433      239.316        0.433        0.091       82.461        4.042        0.002      338.616       11.388      860.695
09/26/2014  01:26:00      -86.264      -38.697       -5.079       34.407       28.574       17.020     1183.860      816.453      289.670        0.563        0.114       94.546       13.986        0.022      338.620       11.394      860.691
09/26/2014  01:27:00      -84.051       18.173      -23.351       45.657       41.775       27.800     2084.595     1745.187      772.843        0.627        0.230       85.993       20.789        0.058      338.646       11.440      860.683
09/26/2014  01:28:00       52.778       50.162       15.775       39.849       27.441       39.395     1587.951      752.992     1551.989        0.472        0.195       72.813       28.351        0.152      338.676       11.488      860.681
09/26/2014  01:29:00       59.786       35.322       10.642       27.253       30.636       26.000      742.704      938.589      676.008        0.365        0.118       69.441       10.051        0.021      338.648       11.442      860.661
09/26/2014  01:30:00       -8.611        3.461        1.609       13.557       10.247       10.779      183.790      105.000      116.183        0.025        0.020        9.280        5.397        0.338      338.530       11.245      860.655
09/26/2014  01:31:00        9.855       -1.671        3.706       15.582        8.395       10.949      242.783       70.470      119.889        0.027        0.022        9.996        3.850        0.148      338.684       11.503      860.668
09/26/2014  01:32:00       -6.893      -27.135        2.885       33.165       23.300       15.756     1099.927      542.871      248.253        0.134        0.095       27.997       14.631        0.273      338.687       11.508      860.704
09/26/2014  01:33:00       44.474       -7.927       14.062       21.860       19.455       19.518      477.838      378.490      380.956        0.174        0.062       45.175        5.913        0.017      338.573       11.315      860.706
09/26/2014  01:34:00       31.131      -12.969       73.469       44.681       96.600       47.609     1996.373     9331.481     2266.658        1.006        0.680       33.724       40.632        1.452      338.609       11.377      860.652
09/26/2014  01:35:00      -34.750       31.753       69.033       32.511       52.207       56.205     1056.988     2725.529     3158.960        0.696        0.347       47.073       45.838        0.948      338.567       11.307      860.628
09/26/2014  01:36:00       39.378       90.239        1.644       51.422       53.085       30.494     2644.201     2818.035      929.885        0.804        0.320       98.456       24.874        0.064      338.549       11.275      860.645
09/26/2014  01:37:00       44.446       75.560       28.385       67.526       41.456       61.719     4559.767     1718.577     3809.287        0.929        0.504       87.663       27.549        0.099      338.529       11.241      860.667
09/26/2014  01:38:00       90.860       51.651       26.893       43.021       46.891       31.057     1850.802     2198.795      964.515        0.833        0.251      104.515       24.065        0.053      338.561       11.297      860.714
09/26/2014  01:39:00       27.923       43.743       34.461       25.101       23.951       23.387      630.078      573.628      546.969        0.282        0.088       51.896       17.081        0.108      338.505       11.201      860.757
09/26/2014  01:40:00       26.844        3.497       16.985       19.000       23.186       17.464      361.017      537.583      304.984        0.111        0.060       27.070       12.667        0.219      338.506       11.204      860.799
09/26/2014  01:41:00        0.850      -21.657        5.984       19.793       16.130       13.461      391.769      260.188      181.189        0.067        0.042       21.674        8.942        0.170      338.517       11.222      860.804
09/26/2014  01:42:00      -32.071        3.991        0.395       38.248       25.660       17.817     1462.873      658.442      317.440        0.174        0.122       32.318       23.389        0.524      338.434       11.082      860.785
09/26/2014  01:43:00     -106.863        2.600      -14.289       43.686       48.226       30.651     1908.434     2325.731      939.484        0.840        0.259      106.895       21.485        0.040      338.416       11.051      860.745
09/26/2014  01:44:00      -36.147      101.390      -15.992       41.524       41.047       30.436     1724.276     1684.862      926.333        0.809        0.217      107.641       32.083        0.089      338.365       10.967      860.707
09/26/2014  01:45:00      -45.921       -9.853       -2.618       66.633       36.202       25.437     4440.013     1310.604      647.033        0.430        0.320       46.966       29.643        0.398      338.414       11.050      860.683
09/26/2014  01:46:00     -108.925      -38.559      -12.998       25.581       34.550       20.736      654.367     1193.717      429.999        0.790        0.114      115.549        7.357        0.004      338.436       11.087      860.672
09/26/2014  01:47:00        3.042       -1.813       13.077       28.203       26.124       20.320      795.425      682.438      412.897        0.104        0.095        3.542       18.931       28.571      338.314       10.881      860.663
09/26/2014  01:48:00      -27.963       15.492      -10.783       51.996       30.647       33.154     2703.557      939.208     1099.197        0.294        0.237       31.968       34.176        1.143      338.374       10.982      860.673
09/26/2014  01:49:00       13.610       -4.961       -1.806       20.479       26.660       14.838      419.399      710.763      220.171        0.078        0.068       14.486       10.355        0.511      338.390       11.010      860.701
09/26/2014  01:50:00      -14.281       46.373        2.716       41.971       61.657       30.538     1761.596     3801.597      932.583        0.443        0.325       48.522       26.815        0.305      338.309       10.872      860.722
09/26/2014  01:51:00      -13.531       42.711        6.694      115.894       39.791       28.979    13431.401     1583.347      839.776        0.895        0.793       44.803       27.622        0.380      338.300       10.857      860.745
09/26/2014  01:52:00      103.119       80.631       14.222       40.757       35.606       39.604     1661.165     1267.776     1568.485        1.092        0.225      130.900       22.122        0.029      338.303       10.862      860.754
09/26/2014  01:53:00       21.136      152.471      -21.233       54.138       67.897       33.654     2930.870     4610.025     1132.607        1.641        0.434      153.929       31.752        0.043      338.191       10.673      860.776
09/26/2014  01:54:00       76.365       50.474        5.728       49.822       45.291       20.010     2482.202     2051.297      400.410        0.667        0.247       91.538       18.323        0.040      338.121       10.557      860.774
09/26/2014  01:55:00       52.257       17.280       37.092       33.758       48.936       34.427     1139.604     2394.775     1185.244        0.456        0.236       55.040       38.157        0.481      338.179       10.656      860.779
09/26/2014  01:56:00       16.250      -13.231       46.166       30.490       52.530       26.895      929.620     2759.359      723.334        0.349        0.221       20.955       28.962        1.910      338.228       10.737      860.791
09/26/2014  01:57:00        6.570      -64.840       21.305       39.905       38.838       39.977     1592.395     1508.385     1598.134        0.470        0.235       65.172       29.320        0.202      338.363       10.962      860.810
09/26/2014  01:58:00       29.372      -33.398        3.728       27.489       28.148       22.570      755.644      792.317      509.406        0.202        0.103       44.476       18.411        0.171      338.381       10.994      860.808
09/26/2014  01:59:00       49.671       19.202       16.027       44.019       29.224       22.230     1937.634      854.033      494.177        0.319        0.164       53.253       25.353        0.227      338.386       11.003      860.784
09/26/2014  02:00:00       -5.411        9.782       21.842        9.587       15.466       20.380       91.907      239.188      415.351        0.067        0.037       11.179       14.998        1.800      338.304       10.865      860.767
09/26/2014  02:01:00      -12.700      -32.371        6.445       17.726       39.256       17.930      314.193     1541.008      321.497        0.171        0.109       34.773       21.975        0.399      338.383       10.996      860.769
09/26/2014  02:02:00        8.531      -63.961       24.402       38.379       46.546       34.747     1472.973     2166.498     1207.388        0.480        0.242       64.527       27.933        0.187      338.445       11.101      860.733
09/26/2014  02:03:00       13.960       12.190       42.594       33.754       34.167       18.816     1139.303     1167.397      354.023        0.241        0.133       18.533        6.825        0.136      338.318       10.886      860.705
09/26/2014  02:04:00       20.499       17.104       32.777       21.517       16.162       15.581      462.974      261.199      242.761        0.138        0.048       26.698        8.611        0.104      338.279       10.822      860.690
09/26/2014  02:05:00        7.431        5.983       12.442       17.914       18.481       21.687      320.928      341.553      470.339        0.069        0.057        9.540       12.838        1.811      338.245       10.766      860.649
09/26/2014  02:06:00      -37.009       33.809      -19.178       32.108       19.214       24.380     1030.951      369.181      594.369        0.244        0.100       50.127       23.037        0.211      338.367       10.970      860.606
09/26/2014  02:07:00       10.260        4.842        2.538       27.378       17.462       24.954      749.578      304.933      622.681        0.091        0.084       11.345       21.341        3.538      338.294       10.847      860.584
09/26/2014  02:08:00       -1.642       63.682        1.316       30.822       51.467       26.458      949.987     2648.807      700.007        0.418        0.215       63.703       32.111        0.254      338.206       10.700      860.603
09/26/2014  02:09:00      -49.448       22.222       -8.783       50.278       46.088       16.795     2527.919     2124.132      282.060        0.397        0.247       54.212       21.835        0.162      338.233       10.746      860.636
09/26/2014  02:10:00     -105.245       32.723      -27.608       79.745       73.137       36.690     6359.314     5348.990     1346.121        1.298        0.653      110.215       41.236        0.140      338.232       10.744      860.644
09/26/2014  02:11:00     -127.065      -35.953       -3.671       62.584       54.773       27.436     3916.748     3000.083      752.743        1.256        0.383      132.054       17.498        0.018      338.203       10.696      860.622
09/26/2014  02:12:00      -36.392      -27.480       23.424       77.608       69.056       42.796     6022.933     4768.755     1831.466        0.762        0.631       45.602       41.512        0.829      338.131       10.573      860.622
09/26/2014  02:13:00       -5.586        5.813        5.126       22.543       24.478       19.592      508.197      599.165      383.843        0.079        0.075        8.062       12.322        2.336      338.159       10.622      860.625
09/26/2014  02:14:00      -74.916      -50.514       -7.478       70.432       39.146       26.960     4960.680     1532.447      726.838        0.772        0.361       90.355       12.472        0.019      338.151       10.608      860.632
09/26/2014  02:15:00     -197.207      -21.304      -27.316       51.342       61.358       34.024     2636.016     3764.864     1157.633        2.382        0.378      198.355       21.767        0.012      338.020       10.387      860.658
09/26/2014  02:16:00      -46.705      -32.458       -4.041       57.203       42.122       24.474     3272.162     1774.260      598.986        0.445        0.282       56.876       27.885        0.240      338.005       10.364      860.673
09/26/2014  02:17:00     -158.380      -48.174       -5.002       64.294       72.047       32.810     4133.698     5190.805     1076.491        1.891        0.520      165.544       19.830        0.014      337.980       10.319      860.672
09/26/2014  02:18:00     -213.377      -75.636       -7.392       79.445       67.216       39.084     6311.516     4517.927     1527.549        3.183        0.618      226.386       36.597        0.026      337.974       10.307      860.663
09/26/2014  02:19:00     -178.924      -83.233       -0.865       80.968       95.098       39.848     6555.748     9043.693     1587.857        2.806        0.859      197.336       39.622        0.040      338.016       10.380      860.653
09/26/2014  02:20:00     -268.488       -5.866      -27.139       76.141       46.203       42.043     5797.488     2134.709     1767.602        4.128        0.485      268.552       39.650        0.022      338.051       10.438      860.660
09/26/2014  02:21:00     -179.101      -69.268        1.460       91.522       79.657       39.369     8376.324     6345.286     1549.902        2.657        0.814      192.029       43.208        0.051      338.056       10.445      860.650
09/26/2014  02:22:00     -140.802       -0.303       -6.022       89.249       70.088       39.750     7965.296     4912.388     1580.073        1.716        0.723      140.803       29.917        0.045      338.023       10.392      860.644
09/26/2014  02:23:00     -159.789       59.658      -24.059       73.849       51.097       34.255     5453.743     2610.931     1173.433        1.945        0.462      170.562       32.917        0.037      338.054       10.445      860.649
09/26/2014  02:24:00     -171.634       24.802      -23.716       66.376       84.377       37.790     4405.782     7119.438     1428.088        2.179        0.648      173.417       43.078        0.062      338.060       10.452      860.651
09/26/2014  02:25:00      -98.463      -20.346       10.334       74.888       89.341       40.392     5608.174     7981.878     1631.511        1.272        0.761      100.543       29.727        0.087      338.044       10.428      860.655
09/26/2014  02:26:00     -147.377      -23.370      -18.248       72.079       53.418       33.538     5195.383     2853.506     1124.820        1.588        0.459      149.219       33.546        0.051      338.078       10.486      860.670
09/26/2014  02:27:00     -132.624      -26.674       -4.035       53.870       47.572       33.488     2902.009     2263.053     1121.416        1.230        0.314      135.280       25.461        0.035      338.045       10.431      860.700
09/26/2014  02:28:00     -149.778       23.979      -11.506      100.999       80.577       45.230    10200.708     6492.727     2045.744        2.094        0.937      151.686       36.555        0.058      338.019       10.386      860.732
09/26/2014  02:29:00     -120.218       80.420      -27.766       83.638       73.827       43.254     6995.335     5450.453     1870.901        1.800        0.716      144.637       43.813        0.092      338.128       10.567      860.734
09/26/2014  02:30:00     -109.723      139.099      -22.217       85.260      108.339       54.897     7269.252    11737.233     3013.727        2.695        1.101      177.166       57.008        0.104      338.156       10.615      860.731
09/26/2014  02:31:00     -123.104      134.279      -15.757       62.496      124.856       50.264     3905.806    15589.046     2526.434        2.772        1.101      182.169       51.192        0.079      338.176       10.648      860.738
09/26/2014  02:32:00     -132.299      203.347      -29.884       57.547       93.116       53.776     3311.700     8670.635     2891.883        3.731        0.744      242.597       25.637        0.011      338.216       10.715      860.735
09/26/2014  02:33:00      -95.151      142.161      -18.540       66.531       69.939       41.575     4426.361     4891.476     1728.472        2.032        0.552      171.066       50.454        0.087      338.242       10.760      860.723
09/26/2014  02:34:00      -75.674      114.238      -20.537       73.581       92.581       34.097     5414.178     8571.251     1162.606        1.717        0.757      137.029       28.495        0.043      338.273       10.811      860.716
09/26/2014  02:35:00      -93.739      128.606      -17.925       85.818       86.591       45.624     7364.644     7498.000     2081.526        2.129        0.847      159.143       33.887        0.045      338.248       10.768      860.699
09/26/2014  02:36:00      -66.284      115.402       -3.954       67.401       97.328       50.637     4542.850     9472.697     2564.114        1.715        0.829      133.083       35.439        0.071      338.242       10.759      860.665
09/26/2014  02:37:00      -78.594      144.173        1.344       58.864      106.962       51.118     3464.936    11440.818     2613.049        2.224        0.876      164.204       36.376        0.049      338.196       10.681      860.641
09/26/2014  02:38:00     -120.843      121.253      -12.155       74.559       67.239       46.275     5559.018     4521.058     2141.412        2.084        0.611      171.188       34.031        0.040      338.216       10.715      860.652
09/26/2014  02:39:00      -45.007       96.391       -9.787       55.918       71.045       30.841     3126.772     5047.354      951.147        1.027        0.456      106.381       26.516        0.062      338.177       10.652      860.640
09/26/2014  02:40:00      -57.449       87.069       -5.592       42.515       66.588       34.603     1807.495     4433.917     1197.361        0.917        0.372      104.314       34.846        0.112      338.184       10.663      860.614
09/26/2014  02:41:00      -91.976      133.365      -15.698       55.942       70.103       34.772     3129.463     4914.361     1209.079        1.787        0.463      162.006       23.532        0.021      338.168       10.635      860.592
09/26/2014  02:42:00      -91.956       49.801      -12.257       28.655       33.272       18.155      821.130     1107.058      329.601        0.667        0.113      104.576       13.377        0.016      338.172       10.642      860.599
09/26/2014  02:43:00      -41.418       26.686       -1.993       39.718       31.169       23.713     1577.554      971.521      562.314        0.277        0.156       49.271       15.303        0.096      338.169       10.637      860.615
09/26/2014  02:44:00     -104.163       25.355      -10.442       65.288       33.317       29.110     4262.541     1110.045      847.386        0.891        0.311      107.205       35.868        0.112      338.173       10.644      860.624
09/26/2014  02:45:00      -69.570       40.293       -9.087       51.184       41.310       25.346     2619.837     1706.477      642.421        0.576        0.248       80.396       20.265        0.064      338.153       10.610      860.632
09/26/2014  02:46:00      -46.128       34.291        3.700       28.538       36.279       36.346      814.422     1316.165     1321.030        0.338        0.173       57.478       24.775        0.186      338.124       10.562      860.638
09/26/2014  02:47:00      -63.351       49.057       -7.982       33.838       41.167       30.100     1145.043     1694.690      905.996        0.511        0.187       80.124       20.412        0.065      338.136       10.581      860.640
09/26/2014  02:48:00      -98.050       44.751      -13.637       55.497       42.654       18.604     3079.969     1819.363      346.113        0.852        0.262      107.780       12.903        0.014      338.134       10.580      860.629
09/26/2014  02:49:00     -139.468      119.786      -28.725       54.980       60.691       43.380     3022.824     3683.394     1881.859        2.161        0.429      183.848       39.261        0.046      338.071       10.472      860.611
09/26/2014  02:50:00      -96.231       18.154       -9.035       41.389       50.658       24.129     1713.074     2566.210      582.195        0.727        0.243       97.928       19.574        0.040      338.100       10.522      860.596
09/26/2014  02:51:00     -139.319       47.108      -27.881       85.505       63.209       29.628     7311.067     3995.343      877.821        1.729        0.609      147.068       35.429        0.058      338.055       10.443      860.590
09/26/2014  02:52:00      -99.541      -43.019       -9.863      107.272       46.596       33.471    11507.234     2171.199     1120.284        1.333        0.740      108.439       43.971        0.164      338.050       10.437      860.596
09/26/2014  02:53:00     -117.878      -12.722        4.958       68.903       59.182       29.946     4747.634     3502.472      896.789        1.161        0.457      118.563       26.353        0.049      338.002       10.357      860.638
09/26/2014  02:54:00     -132.949      -56.822       -3.563       52.163       42.890       30.044     2720.942     1839.590      902.635        1.319        0.273      144.583       30.524        0.045      338.013       10.375      860.679
09/26/2014  02:55:00     -105.688      -45.954       -2.471       44.090       49.248       27.920     1943.955     2425.394      779.520        0.922        0.257      115.246       18.672        0.026      338.010       10.370      860.684
09/26/2014  02:56:00     -147.075      -24.706       -7.587       40.692       42.261       25.358     1655.854     1785.992      643.042        1.319        0.204      149.136       26.090        0.031      337.930       10.235      860.685
09/26/2014  02:57:00     -115.307      -14.310      -11.141       38.756       29.041       22.289     1502.016      843.363      496.803        0.823        0.142      116.191       15.953        0.019      337.982       10.324      860.661
09/26/2014  02:58:00     -103.312       26.438       -0.545       42.247       33.942       28.098     1784.810     1152.083      789.482        0.755        0.186      106.641       23.607        0.049      338.008       10.369      860.639
09/26/2014  02:59:00     -135.100       10.527      -10.473       24.567       42.994       22.382      603.547     1848.444      500.948        1.071        0.148      135.510       12.404        0.008      338.057       10.450      860.600
09/26/2014  03:00:00     -207.303      -66.769      -15.500       70.253       50.291       33.259     4935.422     2529.167     1106.172        2.812        0.429      217.790       24.789        0.013      338.117       10.547      860.576
09/26/2014  03:01:00     -115.389      -10.768      -15.257       77.490       78.088       47.995     6004.725     6097.784     2303.527        1.403        0.720      115.890       56.367        0.237      338.189       10.671      860.543
09/26/2014  03:02:00     -129.492       22.664       -8.738       39.651       62.409       28.846     1572.220     3894.912      832.107        1.183        0.315      131.461       18.174        0.019      338.119       10.555      860.542
09/26/2014  03:03:00     -132.320       67.883      -22.286       39.657       32.877       25.249     1572.640     1080.886      637.494        1.295        0.165      148.717       19.006        0.016      338.112       10.540      860.531
09/26/2014  03:04:00     -166.189       -7.584      -26.807       63.780       78.988       41.634     4067.932     6239.173     1733.373        2.022        0.602      166.361       31.764        0.036      338.149       10.602      860.502
09/26/2014  03:05:00     -214.837      -29.574      -18.678       50.188       53.032       23.425     2518.870     2812.423      548.751        2.663        0.294      216.863       19.689        0.008      338.151       10.605      860.486
09/26/2014  03:06:00     -104.886       83.517      -17.890       41.312       57.695       31.922     1706.698     3328.697     1019.014        1.217        0.303      134.076       26.766        0.040      338.146       10.599      860.505
09/26/2014  03:07:00      -58.908       25.699       -1.146       47.312       78.993       29.493     2238.434     6239.935      869.830        0.674        0.467       64.270       20.029        0.097      338.075       10.480      860.542
09/26/2014  03:08:00      -33.483       22.472        6.147       52.399       39.349       28.036     2745.644     1548.330      786.028        0.337        0.254       40.325       28.404        0.496      338.092       10.507      860.570
09/26/2014  03:09:00      -24.070       19.008        7.605       47.255       26.388       23.688     2233.067      696.344      561.119        0.224        0.175       30.670       17.876        0.340      338.131       10.574      860.573
09/26/2014  03:10:00       17.192       53.317       -7.250       22.299       22.048       20.262      497.253      486.103      410.560        0.229        0.070       56.021       11.749        0.044      338.126       10.565      860.571
09/26/2014  03:11:00       47.928       34.059       -4.520       32.152       23.491       18.231     1033.756      551.846      332.359        0.270        0.096       58.798        9.284        0.025      338.015       10.379      860.581
09/26/2014  03:12:00      107.642       60.241        9.583       38.667       29.222       27.209     1495.144      853.928      740.333        0.920        0.154      123.352       13.218        0.011      337.851       10.104      860.588
09/26/2014  03:13:00      121.240       74.940       18.980       34.739       34.017       25.355     1206.824     1157.145      642.882        1.184        0.150      142.531       19.916        0.020      337.635        9.743      860.568
09/26/2014  03:14:00      110.676       54.982        3.203       34.970       34.081       23.143     1222.915     1161.482      535.579        0.910        0.146      123.581       14.720        0.014      337.631        9.736      860.543
09/26/2014  03:15:00       54.091       32.199        1.472       23.033       23.629       12.025      530.533      558.326      144.606        0.260        0.062       62.949        6.856        0.012      337.726        9.894      860.555
09/26/2014  03:16:00       29.409        9.242        4.903       25.138       15.119       14.299      631.935      228.569      204.462        0.102        0.053       30.827       13.127        0.181      337.673        9.805      860.570
09/26/2014  03:17:00      -35.451        9.087       -1.920       16.152       29.448       15.438      260.902      867.203      238.339        0.135        0.068       36.597       17.941        0.240      337.788        9.998      860.582
09/26/2014  03:18:00      -12.008       38.874        9.180       34.232       16.565       15.949     1171.815      274.407      254.360        0.172        0.085       40.686        6.909        0.029      337.796       10.011      860.594
09/26/2014  03:19:00       48.895       18.807        7.644       26.215       15.275       18.565      687.246      233.337      344.656        0.203        0.063       52.387       10.951        0.044      337.681        9.819      860.600
09/26/2014  03:20:00       46.924       14.901       -2.193       28.816       14.658       17.368      830.347      214.860      301.649        0.189        0.067       49.234        7.561        0.024      337.718        9.881      860.598
09/26/2014  03:21:00       21.124       81.273       -5.355       16.098       44.849       19.296      259.162     2011.405      372.345        0.486        0.132       83.974       23.487        0.078      337.835       10.077      860.607
09/26/2014  03:22:00       62.122       79.857        3.396       45.633       44.674       27.977     2082.355     1995.759      782.706        0.755        0.243      101.174       27.940        0.076      337.882       10.158      860.625
09/26/2014  03:23:00      -44.751       73.032       -2.401       39.539       36.072       29.877     1563.322     1301.178      892.664        0.555        0.188       85.652       34.831        0.165      337.852       10.106      860.644
09/26/2014  03:24:00      -27.457       96.414       -7.316       33.868       36.091       24.068     1147.062     1302.549      579.247        0.657        0.151      100.248       23.509        0.055      337.923       10.226      860.660
09/26/2014  03:25:00      -56.952       23.889       -1.888       41.494       80.660       21.334     1721.774     6506.012      455.160        0.625        0.434       61.760       16.803        0.074      338.105       10.531      860.626
09/26/2014  03:26:00      -31.840      -26.633       -2.734       25.438       37.589       20.719      647.109     1412.898      429.282        0.211        0.124       41.510       13.894        0.112      338.131       10.574      860.585
09/26/2014  03:27:00      -43.292       25.527      -10.137       16.097       21.656       13.734      259.125      468.997      188.628        0.177        0.046       50.258        9.919        0.039      337.952       10.275      860.561
09/26/2014  03:28:00        2.739       43.718       -5.604       19.556       16.144       11.876      382.451      260.620      141.046        0.137        0.039       43.804       10.446        0.057      337.897       10.181      860.570
09/26/2014  03:29:00      -13.253       23.467       -7.341       41.111       26.170       11.558     1690.074      684.857      133.582        0.164        0.125       26.951        6.775        0.063      337.970       10.304      860.603
09/26/2014  03:30:00     -113.344      -49.345      -10.500       28.923       25.208       14.265      836.541      635.452      203.488        0.853        0.084      123.620       11.032        0.008      338.179       10.653      860.661
09/26/2014  03:31:00      -33.874       61.338       -7.990       34.426       51.780       18.605     1185.165     2681.215      346.155        0.459        0.211       70.070       18.156        0.067      338.116       10.550      860.717
09/26/2014  03:32:00       14.781       55.331        3.492       22.561       62.616       21.552      508.977     3920.791      464.472        0.409        0.245       57.272       21.986        0.147      338.016       10.381      860.696
09/26/2014  03:33:00      -66.208      -18.387       -5.189       38.544       24.821       12.254     1485.623      616.071      150.163        0.350        0.113       68.714       11.910        0.030      338.063       10.460      860.674
09/26/2014  03:34:00     -122.053       31.174      -12.067       36.349       22.227       15.831     1321.224      494.028      250.619        0.904        0.103      125.971       10.988        0.008      337.979       10.320      860.684
09/26/2014  03:35:00     -108.182        2.050       -4.083       63.409       51.377       22.032     4020.731     2639.610      485.427        0.943        0.357      108.201       26.676        0.061      337.978       10.317      860.651
09/26/2014  03:36:00        0.466       72.913       -6.523       45.510       49.070       25.719     2071.188     2407.860      661.456        0.525        0.257       72.914       26.530        0.132      337.994       10.343      860.630
09/26/2014  03:37:00      -75.365      291.048      -21.291      116.957      139.235       64.514    13679.049    19386.462     4162.099        6.403        1.861      300.647       71.232        0.056      338.186       10.666      860.576
09/26/2014  03:38:00     -248.894      117.626      -36.546      108.309      106.957       52.588    11730.761    11439.841     2765.494        5.152        1.297      275.289       54.026        0.039      338.182       10.656      860.541
09/26/2014  03:39:00     -315.741      139.261      -60.288      122.905      110.113       52.910    15105.691    12124.966     2799.421        7.637        1.502      345.089       54.935        0.025      338.263       10.793      860.506
09/26/2014  03:40:00     -206.135      125.800      -44.447       75.063      103.039       45.211     5634.528    10616.944     2044.001        3.929        0.915      241.490       43.461        0.032      338.234       10.745      860.461
09/26/2014  03:41:00      -71.935      206.679      -24.536       76.994       97.351       43.225     5928.120     9477.144     1868.442        3.288        0.864      218.840       47.654        0.047      338.133       10.574      860.478
09/26/2014  03:42:00      -16.690      229.821      -32.073       43.009       50.483       25.687     1849.762     2548.581      659.823        2.959        0.253      230.426       23.488        0.010      338.134       10.574      860.506
09/26/2014  03:43:00      -29.892      145.176      -24.211       30.463       52.505       22.023      928.024     2756.733      485.016        1.336        0.208      148.222       20.859        0.020      338.060       10.454      860.556
09/26/2014  03:44:00     -130.620        2.163      -23.933       93.568       80.291       35.000     8755.030     6446.629     1224.981        1.703        0.821      130.638       22.297        0.029      338.191       10.673      860.588
09/26/2014  03:45:00     -174.762      -16.594       -7.783       85.801       84.460       31.708     7361.896     7133.495     1005.377        2.319        0.775      175.548       20.278        0.013      338.160       10.621      860.541
09/26/2014  03:46:00     -131.152       40.305       -9.523      144.837       49.876       30.030    20977.879     2487.635      901.807        2.164        1.218      137.205       35.997        0.069      338.062       10.457      860.569
09/26/2014  03:47:00      -20.947       82.891       -3.194       46.635       47.950       25.019     2174.841     2299.170      625.967        0.621        0.255       85.496       33.803        0.156      338.065       10.465      860.611
09/26/2014  03:48:00       19.272       47.457       -2.967       23.427       44.443       19.514      548.838     1975.196      380.784        0.277        0.145       51.220       15.659        0.093      337.978       10.316      860.657
09/26/2014  03:49:00        3.986       40.108      -10.789       18.047       26.248       23.098      325.696      688.972      533.514        0.164        0.077       40.305       13.934        0.120      338.062       10.461      860.681
09/26/2014  03:50:00      -31.554       21.413       -4.000       22.644       32.112       20.297      512.749     1031.200      411.964        0.171        0.098       38.134       13.803        0.131      338.053       10.443      860.701
09/26/2014  03:51:00        7.581       45.610       -2.062       56.676       37.222       21.453     3212.136     1385.486      460.231        0.360        0.253       46.235       21.793        0.222      338.092       10.510      860.670
09/26/2014  03:52:00       31.853       43.231        5.206       63.500       24.772       15.936     4032.271      613.659      253.958        0.390        0.245       53.698       19.680        0.134      338.058       10.451      860.621
09/26/2014  03:53:00     -105.485       81.779      -20.999       98.604       68.504       35.697     9722.762     4692.752     1274.289        1.697        0.784      133.473       50.348        0.142      337.981       10.322      860.619
09/26/2014  03:54:00     -408.732      -34.061      -37.736      135.546      113.564       57.970    18372.749    12896.855     3360.505       10.213        1.732      410.149       63.692        0.024      338.197       10.680      860.583
09/26/2014  03:55:00     -182.729      -66.596      -20.992      109.902       97.545       49.997    12078.495     9514.961     2499.661        3.118        1.205      194.486       42.394        0.048      338.139       10.586      860.543
09/26/2014  03:56:00      -81.365      -24.860       27.921      105.855       86.439       51.871    11205.227     7471.744     2690.589        1.469        1.068       85.078       46.296        0.296      338.125       10.564      860.502
09/26/2014  03:57:00      -11.844       21.853        4.670       65.128       22.300       23.435     4241.667      497.280      549.216        0.296        0.264       24.856       29.231        1.383      338.098       10.518      860.547
09/26/2014  03:58:00     -107.223       16.986      -14.865       31.729       25.893       20.652     1006.715      670.464      426.516        0.705        0.105      108.560       13.448        0.015      338.152       10.607      860.561
09/26/2014  03:59:00        8.852      -29.318       -2.027       30.953       28.851       19.127      958.064      832.353      365.851        0.155        0.108       30.625       15.891        0.269      338.167       10.633      860.572
09/26/2014  04:00:00       -2.185      -17.360       14.098       28.280       41.750       23.707      799.768     1743.096      562.015        0.180        0.155       17.497       21.062        1.449      338.037       10.417      860.579
09/26/2014  04:01:00      -78.368      -70.730       -6.131       54.002       41.551       22.772     2916.164     1726.489      518.572        0.817        0.258      105.567       20.062        0.036      338.072       10.474      860.600
09/26/2014  04:02:00      -39.827      -75.382       15.283       52.461       47.490       30.984     2752.184     2255.278      959.978        0.673        0.298       85.256       33.611        0.155      338.110       10.539      860.583
09/26/2014  04:03:00     -155.111      -55.564       -6.584       56.517       51.383       30.311     3194.223     2640.232      918.749        1.697        0.338      164.763       25.617        0.024      337.932       10.238      860.577
09/26/2014  04:04:00     -135.271      -61.290       -9.098       48.792       51.075       39.866     2380.640     2608.657     1589.264        1.436        0.329      148.508       31.890        0.046      337.797       10.013      860.564
09/26/2014  04:05:00     -121.624      -83.885      -10.522       40.835       49.955       27.012     1667.473     2495.498      729.640        1.342        0.245      147.747       24.537        0.028      337.780        9.984      860.526
09/26/2014  04:06:00      -91.393      -47.324       -4.880       25.282       23.297       14.703      639.158      542.757      216.190        0.601        0.070      102.918        5.197        0.003      337.748        9.932      860.506
09/26/2014  04:07:00      -43.127      -91.676      -10.043       29.042       28.239       20.237      843.428      797.466      409.517        0.621        0.103      101.313       12.578        0.015      337.780        9.986      860.495
09/26/2014  04:08:00      -35.731     -145.690       -1.384       28.952       25.435       16.085      838.221      646.915      258.720        1.212        0.087      150.008        7.564        0.003      337.824       10.059      860.497
09/26/2014  04:09:00      -58.733      -58.243       15.791       63.611       40.376       28.566     4046.395     1630.196      815.998        0.679        0.325       82.715       31.219        0.142      337.747        9.931      860.494
09/26/2014  04:10:00      -38.328      -59.564        6.793       39.069       36.122       20.490     1526.388     1304.795      419.834        0.416        0.163       70.830       19.718        0.077      337.744        9.924      860.490
09/26/2014  04:11:00      -25.554       -3.062       -6.869       42.631       18.086       19.920     1817.373      327.116      396.826        0.163        0.127       25.736       11.660        0.205      337.778        9.982      860.504
09/26/2014  04:12:00      -31.977      -33.038       -1.676       22.167       19.754       12.529      491.381      390.239      156.969        0.158        0.052       45.979       11.156        0.059      337.776        9.978      860.533
09/26/2014  04:13:00       -6.519       17.964        0.182       16.806       22.793       12.325      282.455      519.542      151.909        0.066        0.048       19.110       13.498        0.499      337.721        9.888      860.534
09/26/2014  04:14:00       -4.426       14.907       29.306       19.968       24.339       27.064      398.720      592.390      732.462        0.141        0.086       15.550       22.116        2.023      337.673        9.806      860.525
09/26/2014  04:15:00        1.664       24.454       37.782       15.792       26.615       13.599      249.398      708.352      184.934        0.159        0.057       24.510       11.325        0.214      337.732        9.905      860.515
09/26/2014  04:16:00        8.466       -5.710       32.861       25.182       40.115       26.419      634.149     1609.246      697.973        0.206        0.147       10.211       25.500        6.237      337.699        9.848      860.521
09/26/2014  04:17:00       19.390      -43.315       38.201       51.232       47.176       46.362     2624.679     2225.610     2149.466        0.535        0.350       47.457       37.140        0.612      337.777        9.981      860.526
09/26/2014  04:18:00        0.185       58.417       97.764       27.009       62.408       36.081      729.494     3894.793     1301.812        0.945        0.296       58.417       34.779        0.354      337.672        9.804      860.531
09/26/2014  04:19:00       17.738       46.059       82.919       46.625       61.821       40.692     2173.935     3821.778     1655.820        0.848        0.383       49.356       44.495        0.813      337.792       10.004      860.533
09/26/2014  04:20:00        4.445       43.145       86.211       26.573       45.979       23.679      706.110     2114.093      560.678        0.635        0.169       43.373       23.580        0.296      337.810       10.036      860.529
09/26/2014  04:21:00       15.037       22.216       45.313       26.444       27.422       22.703      699.298      751.976      515.421        0.237        0.098       26.826       17.145        0.408      337.769        9.964      860.525
09/26/2014  04:22:00       18.622       19.994       21.251       17.882       27.710       16.008      319.770      767.842      256.262        0.127        0.067       27.323       12.494        0.209      337.615        9.710      860.524
09/26/2014  04:23:00       11.082      -16.898       13.288       12.803       16.389       12.876      163.929      268.586      165.786        0.059        0.030       20.208       10.709        0.281      337.620        9.717      860.516
09/26/2014  04:24:00       22.177      -31.263        3.354       18.649       28.183       15.494      347.789      794.261      240.060        0.143        0.069       38.330       14.873        0.151      337.631        9.735      860.472
09/26/2014  04:25:00        7.367       16.704       34.990       31.437       26.124       20.795      988.303      682.473      432.440        0.183        0.105       18.256       17.146        0.882      337.494        9.505      860.431
09/26/2014  04:26:00       37.419      -36.858        3.785       26.432       29.059       27.799      698.625      844.418      772.787        0.254        0.116       52.523       23.504        0.200      337.541        9.584      860.426
09/26/2014  04:27:00       27.664       32.844       30.124       21.609       20.474       19.492      466.968      419.168      379.937        0.201        0.063       42.942       13.551        0.100      337.491        9.501      860.432
09/26/2014  04:28:00        9.860       34.775       46.350       19.201       18.269       14.488      368.697      333.765      209.901        0.218        0.046       36.146       13.288        0.135      337.501        9.518      860.432
09/26/2014  04:29:00       21.042       31.397       35.362       30.699       18.268       27.695      942.402      333.728      767.032        0.236        0.102       37.797       27.082        0.513      337.502        9.517      860.439
09/26/2014  04:30:00       29.892       44.985       -4.871       11.821       19.769       12.331      139.743      390.827      152.057        0.181        0.034       54.011       11.839        0.048      337.486        9.490      860.439
09/26/2014  04:31:00       35.241       30.728       -1.878        9.110       14.288       11.695       82.994      204.133      136.771        0.131        0.021       46.756        8.542        0.033      337.462        9.452      860.430
09/26/2014  04:32:00       31.142       17.758        7.559        9.828       11.892       13.646       96.585      141.419      186.221        0.088        0.021       35.849        9.329        0.068      337.447        9.427      860.406
09/26/2014  04:33:00       36.659       19.884        7.741       14.479       12.260       10.160      209.629      150.312      103.223        0.113        0.023       41.704        4.758        0.013      337.471        9.467      860.395
09/26/2014  04:34:00       38.878       32.209        2.941       12.547        9.353       11.453      157.439       87.480      131.160        0.147        0.019       50.487        6.606        0.017      337.414        9.372      860.413
09/26/2014  04:35:00       57.171       45.699        3.853        7.603        7.208        8.822       57.807       51.952       77.836        0.278        0.009       73.191        3.402        0.002      337.420        9.381      860.439
09/26/2014  04:36:00       68.619       50.661        2.122       13.457       13.050       13.405      181.084      170.298      179.706        0.391        0.027       85.294        9.510        0.012      337.368        9.294      860.473
09/26/2014  04:37:00       55.857       51.161       -8.206       17.921       18.437       13.582      321.156      339.935      184.471        0.333        0.042       75.746        9.526        0.016      337.375        9.306      860.493
09/26/2014  04:38:00       39.899       44.391        1.181       26.443       20.088       18.152      699.254      403.518      329.499        0.250        0.072       59.687       13.120        0.048      337.292        9.169      860.515
09/26/2014  04:39:00       56.660       32.383       10.767       32.663       12.830       12.946     1066.882      164.603      167.589        0.289        0.070       65.261       10.919        0.028      337.323        9.220      860.532
09/26/2014  04:40:00       64.875       39.220       23.400       35.816       25.340       25.421     1282.759      642.137      646.217        0.443        0.129       75.809       22.403        0.087      337.377        9.309      860.538
09/26/2014  04:41:00       79.492       61.198        5.633       38.003       31.013       21.013     1444.243      961.781      441.542        0.647        0.142      100.320       15.485        0.024      337.200        9.013      860.540
09/26/2014  04:42:00       50.902       45.642        8.889       47.945       28.827       28.725     2298.756      830.995      825.144        0.435        0.198       68.368       18.177        0.071      337.075        8.804      860.541
09/26/2014  04:43:00       92.675       74.930       10.150       53.485       35.418       34.558     2860.602     1254.445     1194.267        0.981        0.265      119.177       21.802        0.033      337.082        8.815      860.536
09/26/2014  04:44:00       46.511       52.749        9.378       48.912       43.353       39.803     2392.399     1879.522     1584.318        0.544        0.293       70.325       30.546        0.189      337.049        8.759      860.523
09/26/2014  04:45:00       30.868       84.888       -5.250       34.311       47.876       37.629     1177.248     2292.087     1415.956        0.654        0.244       90.326       30.667        0.115      337.041        8.747      860.497
09/26/2014  04:46:00       18.417      117.922      -17.684       29.867       30.397       23.146      892.014      923.985      535.743        0.845        0.118      119.351       21.276        0.032      337.046        8.755      860.469
09/26/2014  04:47:00       18.500       95.710       -3.708       31.025       39.276       25.693      962.551     1542.571      660.145        0.634        0.158       97.481       23.558        0.058      337.038        8.741      860.477
09/26/2014  04:48:00       32.838      127.289      -18.714       21.126       25.993       15.124      446.299      675.645      228.724        0.949        0.068      131.457       12.412        0.009      337.242        9.084      860.504
09/26/2014  04:49:00       29.572       71.101       -2.138       29.065       48.845       29.312      844.784     2385.827      859.211        0.501        0.204       77.006       33.659        0.191      337.373        9.302      860.553
09/26/2014  04:50:00       -9.418      129.155      -17.954       21.380       37.277       11.868      457.085     1389.547      140.848        0.954        0.099      129.498       14.497        0.013      337.355        9.273      860.617
09/26/2014  04:51:00      -60.775       31.930       -9.071       44.376       59.218       13.766     1969.211     3506.742      189.490        0.523        0.283       68.652       12.829        0.035      337.363        9.287      860.667
09/26/2014  04:52:00      -89.781      -42.518       -6.253       29.378       28.822       17.190      863.053      830.706      295.480        0.595        0.099       99.340       13.555        0.019      337.288        9.160      860.685
09/26/2014  04:53:00      -79.345      -21.016        0.966       23.879       16.234       13.353      570.214      263.552      178.300        0.387        0.051       82.081        8.619        0.011      337.375        9.308      860.674
09/26/2014  04:54:00      -91.432      -35.808       -3.618       29.064       27.130       16.744      844.736      736.050      280.346        0.576        0.093       98.193       12.927        0.017      337.395        9.341      860.636
09/26/2014  04:55:00     -102.378      -19.519       -8.743       30.173       21.984       14.787      910.397      483.303      218.666        0.628        0.081      104.222       13.013        0.016      337.465        9.457      860.601
09/26/2014  04:56:00      -95.658      -21.302       -3.979       40.536       29.246       18.777     1643.145      855.326      352.593        0.624        0.143       98.001       18.239        0.035      337.389        9.330      860.565
09/26/2014  04:57:00      -69.645      -21.450       -8.603       21.496       20.359       13.630      462.067      414.501      185.772        0.322        0.053       72.873       12.824        0.031      337.421        9.383      860.512
09/26/2014  04:58:00      -80.429      -31.694       -6.332       24.489       17.335       13.401      599.731      300.498      179.592        0.430        0.054       86.449       13.400        0.024      337.431        9.399      860.467
09/26/2014  04:59:00      -60.473       -2.278       -5.708       29.644       22.928       14.518      878.792      525.687      210.775        0.265        0.081       60.516       11.067        0.033      337.372        9.301      860.462
09/26/2014  05:00:00      -93.742       23.654       -5.637       25.732       21.866       13.366      662.113      478.141      178.652        0.535        0.066       96.680       13.860        0.021      337.433        9.402      860.480
09/26/2014  05:01:00      -52.782       20.053      -10.964       14.629       17.128       13.280      213.994      293.365      176.363        0.200        0.034       56.462        8.291        0.022      337.430        9.397      860.523
09/26/2014  05:02:00      -17.541      -22.575       -0.215       38.330       20.817       14.500     1469.186      433.340      210.253        0.146        0.106       28.589       11.171        0.153      337.448        9.427      860.559
09/26/2014  05:03:00        8.704      -37.567       -6.172       12.884       14.519       11.512      166.003      210.808      132.521        0.102        0.025       38.562        6.229        0.026      337.520        9.548      860.582
09/26/2014  05:04:00      -16.351      -19.703        3.804       15.834       11.976       10.226      250.705      143.421      104.575        0.058        0.025       25.604        7.118        0.077      337.500        9.517      860.596
09/26/2014  05:05:00      -23.388       -3.425       -1.142        7.598        9.036        7.727       57.725       81.653       59.713        0.038        0.010       23.637        4.107        0.030      337.490        9.500      860.601
09/26/2014  05:06:00      -65.393        5.551       -3.213       25.089       23.329       11.280      629.441      544.246      127.240        0.281        0.065       65.628       12.132        0.034      337.557        9.610      860.592
09/26/2014  05:07:00     -102.396       33.320      -10.387       32.618       19.538       17.086     1063.947      381.742      291.930        0.672        0.087      107.681       14.261        0.018      337.371        9.300      860.582
09/26/2014  05:08:00     -186.224        1.257      -19.374       34.019       31.556       20.661     1157.313      995.775      426.896        1.882        0.129      186.228       15.814        0.007      337.313        9.202      860.585
09/26/2014  05:09:00     -179.620      -26.750      -19.950       67.230       59.898       37.757     4519.886     3587.800     1425.574        2.145        0.477      181.601       33.369        0.034      337.213        9.034      860.594
09/26/2014  05:10:00     -212.341      -30.785       -9.752       49.029       40.730       27.941     2403.834     1658.921      780.707        2.549        0.242      214.561       28.587        0.018      337.108        8.856      860.616
09/26/2014  05:11:00     -216.533      -30.671      -30.510       40.808       40.402       28.840     1665.299     1632.315      831.737        2.644        0.206      218.695       18.324        0.007      337.113        8.865      860.642
09/26/2014  05:12:00     -179.818      -24.190      -24.389       51.242       45.235       30.449     2625.741     2046.190      927.113        1.956        0.280      181.437       31.018        0.029      337.096        8.837      860.669
09/26/2014  05:13:00     -160.320      -32.886      -16.086       45.173       37.208       24.713     2040.642     1384.410      610.713        1.554        0.202      163.658       23.039        0.020      337.082        8.815      860.702
09/26/2014  05:14:00     -189.411      -38.656      -22.353       28.282       29.725       18.171      799.856      883.570      330.196        1.994        0.101      193.316       14.935        0.006      337.107        8.857      860.727
09/26/2014  05:15:00     -166.891      -56.997      -10.321       40.546       39.829       22.566     1644.006     1586.381      509.218        1.747        0.187      176.355       16.392        0.009      337.104        8.852      860.742
09/26/2014  05:16:00     -136.834      -39.575       -5.914       49.851       33.346       26.711     2485.143     1111.934      713.473        1.232        0.216      142.442       26.229        0.034      337.102        8.848      860.762
09/26/2014  05:17:00     -132.567      -42.076      -22.358       35.266       41.208       23.364     1243.680     1698.072      545.868        1.167        0.174      139.084       15.261        0.012      337.157        8.942      860.792
09/26/2014  05:18:00     -137.648      -63.389      -25.804       33.603       30.529       22.924     1129.193      932.019      525.524        1.311        0.129      151.543       14.295        0.009      337.142        8.916      860.803
09/26/2014  05:19:00     -164.864      -76.475      -15.638       52.486       35.821       27.274     2754.797     1283.145      743.870        1.903        0.239      181.737       18.108        0.010      337.100        8.843      860.798
09/26/2014  05:20:00     -179.017      -49.068      -17.145       41.090       36.137       26.119     1688.355     1305.894      682.189        1.921        0.184      185.620       10.584        0.003      337.090        8.827      860.798
09/26/2014  05:21:00     -132.987      -62.034       -7.001       41.031       31.036       26.021     1683.571      963.209      677.089        1.245        0.166      146.744       19.608        0.018      337.183        8.985      860.784
09/26/2014  05:22:00      -93.109      -35.478      -14.202       47.588       33.112       25.174     2264.588     1096.407      633.722        0.706        0.200       99.639       18.924        0.036      337.227        9.060      860.759
09/26/2014  05:23:00     -125.509      -62.173      -11.164       61.017       36.876       27.784     3723.078     1359.827      771.927        1.280        0.293      140.064       24.999        0.032      337.242        9.085      860.720
09/26/2014  05:24:00     -161.132      -77.132      -26.171       59.254       41.810       29.868     3511.040     1748.060      892.115        1.937        0.308      178.642       20.331        0.013      337.316        9.207      860.693
09/26/2014  05:25:00     -178.590      -59.233      -19.405       65.315       43.795       34.070     4266.024     1917.993     1160.782        2.156        0.367      188.156       28.169        0.022      337.358        9.276      860.672
09/26/2014  05:26:00     -128.891      -21.448       -2.685       51.128       45.346       34.139     2614.061     2056.269     1165.437        1.146        0.292      130.663       31.547        0.058      337.364        9.286      860.643
09/26/2014  05:27:00     -183.166      -13.144      -28.837       52.173       39.738       31.219     2722.057     1579.110      974.631        1.991        0.264      183.637       25.301        0.019      337.404        9.355      860.620
09/26/2014  05:28:00     -201.102      -89.637      -12.675       48.680       48.202       35.822     2369.789     2323.421     1283.207        2.731        0.299      220.175       22.499        0.010      337.367        9.290      860.620
09/26/2014  05:29:00     -128.293      -32.169       -3.435       60.850       56.129       33.117     3702.711     3150.449     1096.728        1.273        0.397      132.264       36.038        0.074      337.367        9.293      860.634
09/26/2014  05:30:00     -119.040      -25.737       -4.030       87.077       54.885       30.853     7582.437     3012.328      951.907        1.320        0.577      121.791       36.478        0.090      337.366        9.290      860.660
09/26/2014  05:31:00     -152.844      -40.414      -10.316       34.622       41.214       23.937     1198.693     1698.622      572.963        1.429        0.174      158.097       18.783        0.014      337.388        9.327      860.672
09/26/2014  05:32:00     -188.385      -55.101      -10.285       54.994       39.566       29.892     3024.375     1565.494      893.549        2.206        0.274      196.278       23.051        0.014      337.315        9.203      860.671
09/26/2014  05:33:00     -267.933      -67.868      -15.072       54.231       61.353       31.570     2940.950     3764.154      996.691        4.216        0.385      276.395       27.153        0.010      337.271        9.129      860.653
09/26/2014  05:34:00     -195.910      -44.600       -6.089       70.463       63.841       31.239     4965.029     4075.699      975.845        2.521        0.501      200.922       31.620        0.025      337.291        9.162      860.612
09/26/2014  05:35:00     -133.210       10.227      -13.043       68.654       57.690       31.592     4713.440     3328.137      998.026        1.353        0.452      133.602       34.380        0.066      337.276        9.139      860.590
09/26/2014  05:36:00     -189.949      -34.561      -16.672       30.974       47.807       23.001      959.386     2285.543      529.029        2.066        0.189      193.068       18.078        0.009      337.314        9.203      860.584
09/26/2014  05:37:00     -167.549      -29.371      -10.942       44.987       46.576       31.796     2023.869     2169.347     1010.990        1.713        0.260      170.104       25.670        0.023      337.332        9.235      860.603
09/26/2014  05:38:00      -86.183      -37.547        0.562       37.679       37.090       20.305     1419.710     1375.678      412.281        0.602        0.160       94.007       14.762        0.025      337.342        9.252      860.649
09/26/2014  05:39:00      -67.267      -22.023       -5.598       48.128       43.979       27.363     2316.284     1934.183      748.716        0.502        0.250       70.781       21.243        0.090      337.416        9.375      860.696
09/26/2014  05:40:00      -44.506      -18.476       -8.987       45.602       23.565       17.471     2079.540      555.301      305.231        0.267        0.147       48.189       15.708        0.106      337.454        9.439      860.735
09/26/2014  05:41:00      -92.387      -18.858       -7.799       32.547       46.767       22.249     1059.298     2187.129      495.014        0.635        0.187       94.292       24.154        0.066      337.430        9.400      860.738
09/26/2014  05:42:00     -110.001      -18.678      -23.786       57.996       50.536       23.636     3363.518     2553.868      558.665        0.974        0.324      111.575       18.761        0.028      337.515        9.542      860.717
09/26/2014  05:43:00      -58.962      -18.074       -7.919       40.971       27.340       20.254     1678.607      747.471      410.225        0.335        0.142       61.670        4.234        0.005      337.525        9.557      860.697
09/26/2014  05:44:00     -128.142      -52.636       -3.879       40.177       29.341       16.735     1614.185      860.882      280.057        1.098        0.138      138.531       13.675        0.010      337.513        9.538      860.704
09/26/2014  05:45:00     -128.778      -56.120       -4.907       71.619       38.651       28.538     5129.328     1493.938      814.416        1.360        0.372      140.475       38.562        0.075      337.492        9.502      860.732
09/26/2014  05:46:00     -100.392      -46.369       -4.116       48.930       43.784       22.195     2394.126     1917.040      492.605        0.852        0.240      110.583        9.223        0.007      337.530        9.566      860.758
09/26/2014  05:47:00       -9.373      -20.059        6.677       53.329       36.592       27.796     2843.969     1338.976      772.620        0.274        0.248       22.141       20.366        0.846      337.588        9.664      860.774
09/26/2014  05:48:00      -74.764      -43.373        0.054       62.879       36.206       26.812     3953.727     1310.906      718.865        0.673        0.299       86.435       19.049        0.049      337.610        9.700      860.775
09/26/2014  05:49:00      -78.214      -28.679        7.650       63.870       37.917       25.853     4079.333     1437.720      668.381        0.659        0.309       83.306       28.278        0.115      337.492        9.501      860.751
09/26/2014  05:50:00      -87.533      -32.770       -1.732       64.864       34.191       23.773     4207.329     1169.047      565.156        0.734        0.297       93.466       24.518        0.069      337.569        9.630      860.709
09/26/2014  05:51:00      -66.639      -37.969       -5.680       31.767       19.199       14.845     1009.115      368.598      220.368        0.376        0.080       76.697       15.995        0.043      337.542        9.586      860.665
09/26/2014  05:52:00      -31.190      -30.500        7.397       23.572       22.544       17.684      555.623      508.221      312.716        0.167        0.069       43.624       13.416        0.095      337.631        9.736      860.653
09/26/2014  05:53:00      -88.450       -2.996       -5.599       36.750       26.201       19.263     1350.541      686.485      371.059        0.514        0.120       88.501       20.289        0.053      337.575        9.640      860.680
09/26/2014  05:54:00     -115.424       14.367       -6.769       22.322       24.719       11.305      498.265      611.052      127.804        0.741        0.062      116.315       11.452        0.010      337.592        9.670      860.708
09/26/2014  05:55:00      -53.805      -23.166        7.110       24.525       15.043       12.612      601.462      226.291      159.051        0.223        0.049       58.580       12.295        0.044      337.586        9.659      860.741
09/26/2014  05:56:00      -12.159      -35.702        9.864       32.529       23.705       18.116     1058.160      561.906      328.193        0.173        0.097       37.715       13.614        0.130      337.757        9.945      860.760
09/26/2014  05:57:00      -57.900      -73.445        3.316       46.833       41.584       25.667     2193.329     1729.188      658.779        0.667        0.229       93.523       21.941        0.055      337.790       10.003      860.760
09/26/2014  05:58:00      -50.317     -105.798        0.562       39.253       40.596       28.141     1540.789     1648.036      791.926        0.885        0.199      117.153       25.708        0.048      337.793       10.007      860.741
09/26/2014  05:59:00      -25.731      -91.084       10.376       23.184       46.788       21.041      537.510     2189.151      442.732        0.612        0.158       94.649       20.979        0.049      337.719        9.882      860.710
09/26/2014  06:00:00      -46.854      -27.230        0.553       44.215       37.741       21.622     1954.977     1424.408      467.521        0.339        0.192       54.192       24.055        0.197      337.664        9.791      860.677
09/26/2014  06:01:00      -35.616      -41.680       -1.137       31.970       27.251       17.901     1022.062      742.637      320.450        0.255        0.104       54.824       11.428        0.043      337.698        9.848      860.639
09/26/2014  06:02:00      -44.330      -18.052        5.549       39.996       21.215       17.895     1599.681      450.074      320.234        0.235        0.118       47.864       10.814        0.051      337.520        9.549      860.630
09/26/2014  06:03:00      -43.567      -52.343       -3.166       34.909       40.596       24.225     1218.635     1647.998      586.872        0.405        0.173       68.102       18.762        0.076      337.475        9.474      860.627
09/26/2014  06:04:00      -66.012      -32.672        2.878       45.708       26.607       23.211     2089.183      707.943      538.732        0.438        0.167       73.655       16.983        0.053      337.523        9.554      860.638
09/26/2014  06:05:00      -79.310      -63.759       -2.812       37.455       37.491       24.814     1402.864     1405.561      615.742        0.689        0.171      101.761       19.346        0.036      337.453        9.438      860.664
09/26/2014  06:06:00      -65.379      -56.604        6.682       55.511       42.184       29.757     3081.524     1779.478      885.474        0.663        0.287       86.478       27.439        0.101      337.358        9.278      860.693
09/26/2014  06:07:00      -88.991      -84.148        6.841       56.540       50.943       31.445     3196.742     2595.207      988.807        1.091        0.339      122.475       31.623        0.067      337.307        9.192      860.713
09/26/2014  06:08:00     -109.693     -129.856        0.289       41.241       47.225       28.629     1700.781     2230.231      819.608        1.682        0.238      169.986       24.994        0.022      337.343        9.252      860.730
09/26/2014  06:09:00      -53.510      -65.638        3.047       56.133       48.752       28.652     3150.914     2376.724      820.932        0.676        0.317       84.685       21.450        0.064      337.396        9.339      860.745
09/26/2014  06:10:00      -53.383      -46.997        9.054       57.935       35.729       27.033     3356.419     1276.544      730.801        0.525        0.268       71.123       28.481        0.160      337.298        9.177      860.765
09/26/2014  06:11:00      -38.163      -49.865        2.395       33.210       29.846       25.076     1102.896      890.795      628.797        0.329        0.131       62.792       18.688        0.089      337.268        9.129      860.776
09/26/2014  06:12:00       -9.254      -68.546        6.342       24.680       29.003       17.993      609.124      841.163      323.742        0.330        0.089       69.168       13.967        0.041      337.292        9.168      860.766
09/26/2014  06:13:00      -16.289      -30.426       -1.483       19.593       24.092       15.586      383.871      580.432      242.938        0.120        0.060       34.512       12.996        0.142      337.306        9.191      860.748
09/26/2014  06:14:00      -56.650      -51.471        3.297       38.838       26.577       17.484     1508.426      706.345      305.703        0.419        0.126       76.541       13.106        0.029      337.217        9.042      860.744
09/26/2014  06:15:00      -76.054      -31.321        0.757       28.939       17.869       21.555      837.465      319.296      464.623        0.419        0.081       82.251       19.223        0.055      337.135        8.904      860.752
09/26/2014  06:16:00     -105.331      -69.206       -2.803       39.425       32.821       21.344     1554.301     1077.249      455.583        0.949        0.154      126.032       21.568        0.029      337.082        8.815      860.763
09/26/2014  06:17:00     -119.380      -81.587        1.751       29.148       38.695       17.155      849.585     1497.303      294.308        1.178        0.132      144.596       15.742        0.012      337.059        8.777      860.786
09/26/2014  06:18:00     -114.112     -106.608        3.185       55.755       33.300       28.026     3108.565     1108.869      785.459        1.470        0.250      156.163       24.302        0.024      337.028        8.723      860.801
09/26/2014  06:19:00      -88.443      -65.678       15.028       62.469       48.264       35.038     3902.393     2329.377     1227.694        0.991        0.373      110.163       34.389        0.097      336.935        8.569      860.801
09/26/2014  06:20:00     -118.066      -78.829        8.263       71.821       55.089       36.255     5158.301     3034.806     1314.422        1.486        0.475      141.964       43.648        0.095      336.947        8.589      860.802
09/26/2014  06:21:00      -71.779      -58.287        8.291       44.924       30.406       22.845     2018.159      924.496      521.884        0.604        0.173       92.464       21.306        0.053      336.938        8.575      860.799
09/26/2014  06:22:00      -99.592      -27.652       -4.038       44.530       24.114       19.840     1982.928      581.507      393.645        0.683        0.148      103.360       18.716        0.033      336.911        8.530      860.792
09/26/2014  06:23:00      -93.953      -78.189       -2.782       51.628       29.836       25.663     2665.495      890.200      658.610        0.958        0.211      122.232       25.478        0.043      336.888        8.491      860.785
09/26/2014  06:24:00      -77.452      -68.183       -1.843       25.880       25.898       18.784      669.773      670.698      352.836        0.617        0.085      103.188       16.572        0.026      336.905        8.520      860.771
09/26/2014  06:25:00      -55.532      -15.878       -6.074       17.052       19.191       11.752      290.763      368.305      138.117        0.208        0.040       57.758        9.196        0.025      336.904        8.518      860.751
09/26/2014  06:26:00      -45.759        1.096       -1.695       13.316       13.064       10.812      177.323      170.679      116.890        0.128        0.023       45.772        8.500        0.034      336.938        8.575      860.743
09/26/2014  06:27:00      -58.739       18.688       -0.941       23.926       11.105       10.977      572.451      123.316      120.488        0.231        0.041       61.640        7.489        0.015      336.914        8.535      860.734
09/26/2014  06:28:00      -67.598        9.450       -9.212       10.773       14.438        9.540      116.068      208.452       91.013        0.258        0.021       68.255        6.861        0.010      336.914        8.534      860.733
09/26/2014  06:29:00      -73.108      -16.484       -9.109       11.036       13.416        8.175      121.799      179.979       66.829        0.303        0.018       74.944        5.456        0.005      336.955        8.602      860.735
09/26/2014  06:30:00      -93.025      -29.744      -13.370       23.849       10.611        7.194      568.776      112.599       51.761        0.523        0.037       97.665        3.924        0.002      336.948        8.590      860.754
09/26/2014  06:31:00     -101.606      -64.230       -3.762       35.233       21.327       16.636     1241.375      454.828      276.748        0.822        0.099      120.206       10.349        0.007      337.004        8.686      860.772
09/26/2014  06:32:00      -78.734      -34.495        1.025       30.800       19.335       17.129      948.626      373.835      293.414        0.450        0.081       85.959       12.246        0.020      336.952        8.598      860.789
09/26/2014  06:33:00      -51.427      -34.316        1.916       28.488       17.367       13.154      811.539      301.615      173.036        0.256        0.064       61.825        9.110        0.022      337.043        8.750      860.791
09/26/2014  06:34:00      -59.944      -27.107        3.035       22.533       15.274       15.772      507.753      233.284      248.746        0.266        0.049       65.788       12.892        0.038      337.096        8.838      860.782
09/26/2014  06:35:00      -21.390      -28.494       10.778       44.956       20.377       17.263     2021.038      415.203      298.027        0.206        0.137       35.630       18.452        0.268      337.163        8.952      860.773
09/26/2014  06:36:00      -14.194      -20.032       11.332       20.905       19.448       10.552      437.034      378.230      111.340        0.083        0.046       24.551       11.603        0.223      337.210        9.032      860.784
09/26/2014  06:37:00      -21.149      -22.795        2.747       28.333       15.758       14.318      802.736      248.318      205.007        0.112        0.063       31.095       13.584        0.191      337.192        9.000      860.807
09/26/2014  06:38:00        4.659      -28.602        4.563       11.075       12.200       13.489      122.664      148.837      181.949        0.066        0.023       28.979       10.013        0.119      337.253        9.103      860.838
09/26/2014  06:39:00      -16.193      -32.730       -6.139       14.002       18.290       14.909      196.060      334.513      222.279        0.106        0.038       36.517       12.680        0.121      337.269        9.129      860.851
09/26/2014  06:40:00       -7.749      -16.757       -6.639        8.726       10.553        9.562       76.143      111.375       91.438        0.033        0.014       18.462        4.144        0.050      337.311        9.201      860.853
09/26/2014  06:41:00      -10.499      -29.655        3.002       14.458       20.548       10.893      209.036      422.215      118.647        0.087        0.037       31.459       10.158        0.104      337.256        9.109      860.846
09/26/2014  06:42:00       -8.412      -32.118        6.255       18.224       18.357       18.029      332.104      336.989      325.031        0.107        0.050       33.201       12.461        0.141      337.322        9.216      860.831
09/26/2014  06:43:00       -0.528       11.330        8.328        9.706       14.717        9.365       94.202      216.592       87.709        0.030        0.020       11.342        8.992        0.629      337.238        9.076      860.832
09/26/2014  06:44:00       -9.740       10.656        9.471       20.413       14.032       12.054      416.694      196.911      145.288        0.053        0.038       14.436        9.517        0.435      337.188        8.994      860.839
09/26/2014  06:45:00      -43.433       12.949        1.249       23.375       15.205       11.612      546.408      231.199      134.837        0.148        0.046       45.322       10.091        0.050      337.103        8.851      860.848
09/26/2014  06:46:00        8.532        6.734       15.677        9.959       10.953       10.391       99.183      119.973      107.968        0.035        0.016       10.869        6.837        0.396      337.087        8.823      860.851
09/26/2014  06:47:00      -43.702       -1.336       -5.229       19.421       16.356        9.355      377.179      267.519       87.521        0.134        0.037       43.722        6.273        0.021      337.127        8.892      860.849
09/26/2014  06:48:00      -59.174        8.722       -2.361       16.813       17.970        8.857      282.694      322.925       78.451        0.213        0.034       59.814        6.016        0.010      337.134        8.904      860.847
09/26/2014  06:49:00      -52.459      -21.407       -5.155       12.098       14.528        8.302      146.370      211.064       68.924        0.183        0.021       56.659        7.263        0.016      337.080        8.812      860.832
09/26/2014  06:50:00      -21.761       -9.689        2.978       14.804       12.992        7.925      219.160      168.783       62.802        0.051        0.023       23.820        4.028        0.029      337.173        8.971      860.791
09/26/2014  06:51:00        9.466       11.435       11.335       10.035        9.324        7.696      100.709       86.946       59.221        0.030        0.012       14.845        4.636        0.098      337.062        8.780      860.742
09/26/2014  06:52:00       30.951       31.843       -1.202       21.148        9.471       12.094      447.243       89.698      146.268        0.133        0.034       44.407       12.338        0.077      337.133        8.901      860.707
09/26/2014  06:53:00       25.225       25.786       -9.336       10.956       18.589       11.266      120.026      345.564      126.925        0.099        0.030       36.072        8.069        0.050      337.096        8.839      860.707
09/26/2014  06:54:00       16.453       15.818       -9.540       14.698       11.773        7.761      216.024      138.599       60.228        0.051        0.021       22.824        5.007        0.048      337.144        8.922      860.727
09/26/2014  06:55:00      -12.785      -30.690       -3.268       17.410       16.417       16.884      303.106      269.509      285.068        0.099        0.043       33.247       13.213        0.158      337.298        9.177      860.764
09/26/2014  06:56:00      -40.503      -30.639       -7.515       19.594       24.321       15.156      383.922      591.488      229.707        0.192        0.060       50.787       10.194        0.040      337.360        9.281      860.796
09/26/2014  06:57:00      -68.414      -17.391       -6.658       10.286       10.026        9.377      105.793      100.517       87.933        0.266        0.015       70.590        3.054        0.002      337.360        9.280      860.818
09/26/2014  06:58:00      -44.286      -27.129       -3.979       26.640       11.372       13.088      709.689      129.322      171.290        0.186        0.051       51.935        7.835        0.023      337.329        9.229      860.816
09/26/2014  06:59:00      -22.383      -22.421       12.045       23.350       15.332       13.121      545.242      235.071      172.174        0.105        0.048       31.681       10.336        0.106      337.378        9.312      860.790
09/26/2014  07:00:00      -13.861      -17.206        1.836       13.891       15.817        9.446      192.955      250.166       89.221        0.051        0.027       22.094        7.611        0.119      337.423        9.387      860.765
09/26/2014  07:01:00        3.973       11.793        7.128       16.973       12.064        8.676      288.085      145.534       75.266        0.036        0.025       12.444        6.717        0.291      337.394        9.338      860.744
09/26/2014  07:02:00       -5.276       24.372       45.993       11.699       20.521       23.320      136.874      421.112      543.813        0.192        0.055       24.937       17.784        0.509      337.535        9.574      860.763
09/26/2014  07:03:00       -2.813       40.845       64.560       15.304       27.515       15.204      234.222      757.081      231.171        0.353        0.061       40.942       16.457        0.162      337.497        9.512      860.825
09/26/2014  07:04:00       43.409      -67.886      -12.127       32.474       33.813       25.801     1054.586     1143.308      665.705        0.475        0.143       80.579       17.512        0.047      337.595        9.674      860.904
09/26/2014  07:05:00       12.585      -89.730      -19.851       30.382       40.572       21.307      923.066     1646.087      454.007        0.581        0.151       90.608       15.669        0.030      337.620        9.718      860.980
09/26/2014  07:06:00       13.811      -55.707      -12.638       36.413       33.738       25.188     1325.912     1138.281      634.436        0.328        0.155       57.394       11.152        0.038      337.630        9.734      861.029
09/26/2014  07:07:00       23.411      -48.484      -14.712       28.381       29.422       24.493      805.494      865.655      599.922        0.269        0.114       53.840       11.671        0.047      337.706        9.861      861.036
09/26/2014  07:08:00        2.016      -37.136        3.018       27.368       39.701       28.575      748.990     1576.162      816.542        0.227        0.157       37.190       25.566        0.473      337.772        9.971      860.999
09/26/2014  07:09:00      -12.691       12.508       49.905       16.523       30.946       28.621      273.012      957.629      819.168        0.243        0.102       17.819       23.567        1.749      337.718        9.882      860.963
09/26/2014  07:10:00       -2.147       53.625       68.740       18.922       27.411       25.917      358.057      751.382      671.682        0.469        0.089       53.668       24.215        0.204      337.622        9.721      860.923
09/26/2014  07:11:00       -6.244       31.343       63.033       12.313       22.832       11.477      151.609      521.289      131.723        0.290        0.040       31.959       12.978        0.165      337.644        9.758      860.884
09/26/2014  07:12:00        0.620      -12.440       35.307       16.828       34.921       29.963      283.166     1219.495      897.759        0.190        0.120       12.455       26.300        4.459      337.691        9.835      860.856
09/26/2014  07:13:00       22.712      -66.627       -5.105       33.157       28.558       25.880     1099.389      815.550      669.792        0.378        0.129       70.391       17.879        0.065      337.690        9.836      860.851
09/26/2014  07:14:00       38.268      -48.143      -10.629       25.036       20.726       17.609      626.784      429.551      310.081        0.263        0.068       61.500       11.042        0.032      337.626        9.726      860.872
09/26/2014  07:15:00        2.487       12.451       34.605       16.108       28.328       19.205      259.475      802.477      368.834        0.139        0.072       12.697        7.700        0.368      337.623        9.723      860.912
09/26/2014  07:16:00       21.978      -45.465       20.661       35.097       50.669       38.272     1231.822     2567.378     1464.782        0.412        0.263       50.498       38.061        0.568      337.721        9.886      860.966
09/26/2014  07:17:00       62.634      -65.653      -14.183       48.831       53.703       41.653     2384.494     2883.989     1735.001        0.772        0.350       90.738       36.025        0.158      337.813       10.040      861.023
09/26/2014  07:18:00       54.261      -51.916        3.858       45.527       51.363       40.032     2072.692     2638.159     1602.561        0.598        0.316       75.097       33.976        0.205      337.733        9.907      861.058
09/26/2014  07:19:00       13.438      -30.869       12.109       40.444       28.335       27.269     1635.709      802.858      743.595        0.223        0.159       33.667       19.502        0.336      337.720        9.885      861.065
09/26/2014  07:20:00       11.567       -6.452        7.938       13.465       26.806       15.453      181.305      718.585      238.792        0.069        0.057       13.245        6.022        0.207      337.769        9.968      861.046
09/26/2014  07:21:00        4.445       -9.097       21.117       27.854       28.201       20.608      775.864      795.282      424.672        0.127        0.100       10.124       16.916        2.792      337.788        9.998      861.024
09/26/2014  07:22:00      -15.483       11.331       11.379       25.813       19.082       17.052      666.299      364.129      290.770        0.091        0.066       19.187       16.801        0.767      337.711        9.869      861.016
09/26/2014  07:23:00      -33.666      -16.506       -0.194       44.972       26.650       18.369     2022.475      710.198      337.424        0.224        0.154       37.494       18.007        0.231      337.684        9.824      861.041
09/26/2014  07:24:00      -84.984      -41.106        3.650       39.741       34.186       22.903     1579.318     1168.659      524.554        0.610        0.164       94.403       23.477        0.062      337.617        9.712      861.078
09/26/2014  07:25:00      -17.212      -57.710       -6.931       26.702       18.788       18.683      712.977      352.974      349.063        0.254        0.071       60.222       10.606        0.031      337.649        9.766      861.104
09/26/2014  07:26:00      -45.116      -51.805        4.189       36.369       30.414       19.352     1322.738      925.038      374.490        0.368        0.131       68.696        9.592        0.019      337.678        9.815      861.129
09/26/2014  07:27:00      -55.277      -43.740       -2.702       40.085       28.383       20.970     1606.778      805.593      439.721        0.391        0.143       70.489       15.184        0.046      337.642        9.753      861.142
09/26/2014  07:28:00     -111.946      -85.972       -0.377       56.493       46.667       27.665     3191.449     2177.805      765.369        1.303        0.307      141.149       29.284        0.043      337.492        9.502      861.137
09/26/2014  07:29:00     -115.138      -61.350        2.541       56.574       34.324       25.219     3200.585     1178.159      636.012        1.102        0.251      130.463       22.817        0.031      337.407        9.359      861.119
09/26/2014  07:30:00      -55.151      -62.547        4.067       36.570       24.426       20.326     1337.352      596.644      413.165        0.466        0.117       83.389       12.011        0.021      337.418        9.377      861.113
09/26/2014  07:31:00      -77.517      -77.290        2.976       53.301       31.342       26.697     2840.995      982.347      712.721        0.826        0.227      109.465       24.320        0.049      337.439        9.414      861.120
09/26/2014  07:32:00      -46.441      -99.260        5.428       55.508       48.409       42.499     3081.193     2343.455     1806.183        0.963        0.362      109.587       34.831        0.101      337.450        9.433      861.156
09/26/2014  07:33:00      -90.469      -80.127       -0.655       48.061       46.898       25.402     2309.870     2199.435      645.241        0.988        0.258      120.851       26.898        0.050      337.411        9.367      861.208
09/26/2014  07:34:00      -54.732      -74.560        3.969       55.608       52.054       29.892     3092.220     2709.668      893.550        0.763        0.335       92.492       26.823        0.084      337.386        9.324      861.244
09/26/2014  07:35:00      -75.329     -121.083       -3.799       29.100       39.099       27.686      846.795     1528.729      766.533        1.175        0.157      142.603       19.557        0.019      337.310        9.198      861.260
09/26/2014  07:36:00     -105.292      -68.648      -10.928       38.831       35.597       21.373     1507.872     1267.126      456.808        0.957        0.162      125.694       17.289        0.019      337.290        9.164      861.250
09/26/2014  07:37:00      -85.558      -96.041      -12.156       55.079       41.642       28.381     3033.672     1734.071      805.481        1.113        0.279      128.623       23.237        0.033      337.268        9.127      861.244
09/26/2014  07:38:00      -54.249     -106.317        2.048       42.875       63.053       31.900     1838.233     3975.652     1017.580        1.054        0.342      119.358       32.386        0.074      337.308        9.194      861.232
09/26/2014  07:39:00     -100.942     -115.201       -8.554       42.822       55.488       23.127     1833.757     3078.914      534.851        1.449        0.272      153.168       19.790        0.017      337.232        9.067      861.233
09/26/2014  07:40:00     -131.576      -81.684       -5.977       47.522       42.804       26.621     2258.300     1832.193      708.685        1.441        0.240      154.869       16.945        0.012      337.306        9.191      861.230
09/26/2014  07:41:00     -111.652     -110.050       -8.056       49.366       50.028       26.956     2437.009     2502.755      726.636        1.515        0.283      156.772       22.506        0.021      337.294        9.170      861.249
09/26/2014  07:42:00     -114.899      -67.586        1.108       71.717       56.142       29.177     5143.381     3151.877      851.319        1.346        0.457      133.302       28.948        0.047      337.363        9.285      861.260
09/26/2014  07:43:00     -103.723      -90.882       -2.896       65.633       61.088       36.691     4307.673     3731.768     1346.210        1.420        0.469      137.906       40.359        0.086      337.372        9.300      861.274
09/26/2014  07:44:00     -149.441      -67.725        3.028       46.480       61.084       36.839     2160.368     3731.278     1357.144        1.709        0.362      164.071       29.238        0.032      337.367        9.291      861.273
09/26/2014  07:45:00     -129.766     -114.190       -9.787       43.818       49.962       29.719     1920.040     2496.220      883.212        1.764        0.265      172.855       25.492        0.022      337.345        9.256      861.292
09/26/2014  07:46:00     -174.107      -78.817       -3.164       58.309       72.529       36.303     3399.992     5260.516     1317.916        2.326        0.499      191.116       28.727        0.023      337.319        9.212      861.296
09/26/2014  07:47:00     -141.945      -53.646       -1.341       59.842       49.906       31.156     3581.009     2490.654      970.685        1.503        0.352      151.744       25.569        0.028      337.304        9.186      861.302
09/26/2014  07:48:00     -114.064      -93.005       -5.132       61.937       49.364       30.335     3836.245     2436.820      920.241        1.444        0.360      147.175       21.265        0.021      337.341        9.249      861.315
09/26/2014  07:49:00      -80.158      -54.867        3.101       60.200       57.841       26.908     3623.991     3345.552      724.058        0.857        0.385       97.138       28.360        0.085      337.346        9.256      861.328
09/26/2014  07:50:00     -102.735      -13.931        6.966       72.700       35.200       26.445     5285.248     1239.033      699.347        0.901        0.361      103.675       37.139        0.128      337.353        9.269      861.335
09/26/2014  07:51:00      -95.878      -48.246        4.170       41.365       39.566       27.691     1711.053     1565.496      766.783        0.779        0.202      107.333       24.907        0.054      337.381        9.316      861.322
09/26/2014  07:52:00      -40.585      -56.906        2.426       37.404       43.955       21.096     1399.096     1932.015      445.046        0.433        0.189       69.896       16.443        0.055      337.444        9.422      861.317
09/26/2014  07:53:00      -55.254      -68.077       -6.757       32.459       28.530       20.105     1053.568      813.965      404.199        0.500        0.114       87.678       14.895        0.029      337.442        9.417      861.315
09/26/2014  07:54:00      -93.354      -40.792       -2.783       35.773       43.418       22.638     1279.688     1885.106      512.493        0.703        0.184      101.877       18.082        0.032      337.524        9.557      861.332
09/26/2014  07:55:00      -93.124      -63.107      -11.038       51.799       40.506       23.665     2683.172     1640.752      560.021        0.883        0.244      112.493       16.876        0.023      337.446        9.426      861.343
09/26/2014  07:56:00     -126.882      -35.487      -11.755       32.333       27.215       18.711     1045.407      740.648      350.112        0.982        0.107      131.751       12.227        0.009      337.504        9.522      861.346
09/26/2014  07:57:00     -111.264      -33.430       -2.179       51.312       46.471       25.218     2632.928     2159.555      635.959        0.946        0.271      116.177       23.764        0.042      337.476        9.475      861.339
09/26/2014  07:58:00     -111.249      -15.216       -5.066       70.303       34.994       28.250     4942.466     1224.589      798.054        0.980        0.348      112.285       34.725        0.096      337.410        9.365      861.333
09/26/2014  07:59:00     -132.682       -4.036       -6.945       57.255       48.021       28.852     3278.079     2306.043      832.425        1.204        0.321      132.743       28.587        0.046      337.314        9.205      861.341
09/26/2014  08:00:00     -158.409      -33.860      -14.196       55.768       51.502       28.961     3110.016     2652.418      838.757        1.652        0.330      161.988       22.852        0.020      337.260        9.113      861.353
09/26/2014  08:01:00     -159.000       -4.994       -8.243       48.498       50.454       26.994     2352.084     2545.576      728.654        1.550        0.281      159.078       22.417        0.020      337.277        9.141      861.352
09/26/2014  08:02:00     -162.540      -27.243      -27.333       48.058       43.681       15.462     2309.595     1908.065      239.075        1.618        0.223      164.807       14.831        0.008      337.299        9.180      861.350
09/26/2014  08:03:00      -99.547      -42.559       -6.172       33.927       33.497       20.212     1151.013     1122.079      408.531        0.722        0.134      108.263       13.988        0.017      337.416        9.376      861.352
09/26/2014  08:04:00      -66.765      -37.250       -2.687       36.805       28.714       17.550     1354.639      824.513      308.019        0.417        0.124       76.454       16.211        0.045      337.371        9.300      861.357
09/26/2014  08:05:00     -122.863      -12.148      -10.658       40.217       34.215       21.854     1617.433     1170.655      477.577        0.931        0.163      123.463       23.725        0.037      337.358        9.278      861.369
09/26/2014  08:06:00     -127.028       44.551      -11.271       38.781       22.468       20.947     1503.947      504.797      438.774        1.035        0.122      134.614       16.364        0.015      337.230        9.065      861.379
09/26/2014  08:07:00     -149.042       51.807      -10.513       29.427       23.798       16.039      865.948      566.329      257.256        1.335        0.084      157.790        6.267        0.002      337.247        9.092      861.375
09/26/2014  08:08:00     -121.221       54.198       -8.233       48.465       32.977       27.471     2348.896     1087.515      754.643        1.094        0.210      132.785       19.919        0.023      337.279        9.145      861.367
09/26/2014  08:09:00     -113.724       52.879      -10.812       43.957       23.027       20.935     1932.212      530.238      438.265        0.937        0.145      125.416       15.609        0.015      337.288        9.159      861.342
09/26/2014  08:10:00     -111.855       38.578       -0.009       37.189       26.257       16.233     1383.040      689.411      263.498        0.817        0.117      118.321       15.483        0.017      337.338        9.245      861.304
09/26/2014  08:11:00     -108.088      -14.542       -8.579       37.056       34.931       22.473     1373.114     1220.198      505.026        0.753        0.155      109.061       20.576        0.036      337.407        9.361      861.273
09/26/2014  08:12:00      -89.028      -21.522      -11.611       22.805       21.568       17.336      520.067      465.183      300.540        0.490        0.064       91.593       13.478        0.022      337.427        9.392      861.251
09/26/2014  08:13:00      -77.142        5.549       -7.578       32.816       30.946       15.081     1076.890      957.644      227.439        0.415        0.113       77.341       16.245        0.044      337.503        9.519      861.223
09/26/2014  08:14:00      -57.025        7.196      -11.576       46.844       31.393       18.686     2194.347      985.516      349.156        0.348        0.176       57.478        5.947        0.011      337.382        9.318      861.215
09/26/2014  08:15:00      -41.727       -4.693       -4.261       15.251       20.950       12.355      232.594      438.903      152.636        0.130        0.041       41.990        9.830        0.055      337.487        9.494      861.221
09/26/2014  08:16:00      -18.800      -23.728        1.201       25.164       23.704       15.315      633.205      561.874      234.543        0.117        0.071       30.273       13.346        0.194      337.633        9.739      861.234
09/26/2014  08:17:00      -20.892        1.422       -1.823       16.294       32.230       11.624      265.484     1038.765      135.118        0.094        0.072       20.940       10.047        0.230      337.516        9.542      861.243
09/26/2014  08:18:00      -63.087       20.498        0.005       28.543       18.773       16.503      814.684      352.436      272.335        0.292        0.072       66.333        9.085        0.019      337.666        9.796      861.221
09/26/2014  08:19:00      -68.003       42.351       -6.393       19.393       21.251       13.407      376.094      451.586      179.754        0.373        0.050       80.112       10.934        0.019      337.570        9.632      861.212
09/26/2014  08:20:00      -86.247       48.479       -5.619       18.432       22.925       14.030      339.754      525.544      196.841        0.544        0.053       98.938        7.460        0.006      337.933       10.242      861.226
09/26/2014  08:21:00      -42.497       15.209       -2.294       21.474       29.481       18.810      461.122      869.136      353.834        0.186        0.084       45.137       17.247        0.146      337.882       10.156      861.230
09/26/2014  08:22:00      -51.179      -41.298       -1.969       21.131       16.608       13.190      446.511      275.838      173.985        0.261        0.045       65.764        3.870        0.003      337.806       10.030      861.236
09/26/2014  08:23:00      -35.103      -28.706       -9.449       20.606       18.009       11.068      424.617      324.341      122.508        0.151        0.044       45.346        7.738        0.029      337.835       10.078      861.246
09/26/2014  08:24:00      -31.734      -21.284        6.775       21.322       29.734       14.903      454.648      884.122      222.085        0.153        0.078       38.211       15.409        0.163      337.885       10.161      861.248
09/26/2014  08:25:00       15.645       18.983       16.196       21.706       19.401       15.097      471.132      376.411      227.908        0.097        0.054       24.599        7.406        0.091      337.815       10.044      861.244
09/26/2014  08:26:00       62.004       29.216       20.944       23.760       14.724       16.117      564.552      216.804      259.759        0.309        0.052       68.542        6.724        0.010      337.671        9.802      861.242
09/26/2014  08:27:00       51.238       52.700       34.301       26.995       19.603       21.431      728.751      384.288      459.286        0.408        0.079       73.502       10.081        0.019      337.686        9.828      861.246
09/26/2014  08:28:00        3.821       38.822       52.900       20.479       31.305       23.953      419.381      979.989      573.759        0.315        0.099       39.009       16.282        0.174      337.812       10.038      861.243
09/26/2014  08:29:00       61.746       78.146       70.297       51.643       36.081       25.093     2667.017     1301.854      629.644        0.973        0.230       99.597       18.842        0.036      337.800       10.019      861.241
09/26/2014  08:30:00       86.027       90.378       52.422       38.631       39.182       36.422     1492.363     1535.234     1326.527        1.133        0.218      124.775       27.634        0.049      337.645        9.757      861.240
09/26/2014  08:31:00       94.660       63.037       10.275       35.957       21.084       28.798     1292.938      444.519      829.311        0.780        0.128      113.728       12.882        0.013      337.612        9.703      861.236
09/26/2014  08:32:00       80.389       54.551       22.604       36.592       27.575       29.419     1338.983      760.358      865.494        0.646        0.148       97.150       15.761        0.026      337.648        9.765      861.243
09/26/2014  08:33:00       71.784       51.375       35.808       33.145       20.697       22.718     1098.620      428.366      516.106        0.556        0.102       88.275       15.845        0.032      337.583        9.656      861.253
09/26/2014  08:34:00       50.633       46.645       25.210       42.168       19.685       22.318     1778.155      387.493      498.098        0.402        0.133       68.844       24.449        0.126      337.593        9.672      861.262
09/26/2014  08:35:00       70.112       57.248        8.529       19.833       17.140       20.281      393.361      293.780      411.311        0.468        0.055       90.515       12.839        0.020      337.543        9.590      861.263
09/26/2014  08:36:00       53.746       30.586       11.701       26.929       16.818       22.041      725.168      282.839      485.803        0.273        0.075       61.839       10.630        0.030      337.587        9.661      861.262
09/26/2014  08:37:00       34.012       10.055        0.026       26.653       12.934       16.575      710.385      167.278      274.740        0.120        0.058       35.467        5.368        0.023      337.573        9.637      861.258
09/26/2014  08:38:00       -1.794       30.714       -4.086       11.542       15.837       10.166      133.227      250.810      103.354        0.073        0.024       30.767        9.666        0.099      337.582        9.652      861.245
09/26/2014  08:39:00       -4.456       19.046        0.556       17.298       11.367        9.393      299.217      129.217       88.236        0.045        0.026       19.560        6.393        0.107      337.550        9.601      861.239
09/26/2014  08:40:00        6.789        9.870        7.273       14.231       16.498       15.262      202.531      272.184      232.935        0.045        0.035       11.979       13.775        1.322      337.678        9.813      861.234
09/26/2014  08:41:00       11.467        5.271        1.013        8.487        6.462       13.326       72.022       41.755      177.595        0.023        0.015       12.621        7.922        0.394      337.628        9.729      861.238
09/26/2014  08:42:00       12.541       26.732        5.423       11.888       15.170       10.426      141.325      230.129      108.708        0.069        0.024       29.527        9.963        0.114      337.588        9.662      861.251
09/26/2014  08:43:00       21.144       41.258      -16.920       17.205       19.501        9.598      295.999      380.281       92.120        0.160        0.038       46.360        8.116        0.031      337.622        9.721      861.262
09/26/2014  08:44:00       27.061       28.513        0.126       25.938       16.359       13.302      672.774      267.612      176.935        0.133        0.056       39.310        7.910        0.040      337.695        9.840      861.274
09/26/2014  08:45:00       11.812       14.060       23.243       19.363       19.951       12.882      374.912      398.031      165.953        0.091        0.047       18.363        8.579        0.218      337.793       10.006      861.300
09/26/2014  08:46:00        0.591       24.555       30.001       18.564       19.732       16.452      344.632      389.361      270.664        0.125        0.050       24.562       16.159        0.433      337.767        9.963      861.315
09/26/2014  08:47:00        8.641       30.536       60.304       40.385       40.489       24.390     1630.973     1639.384      594.879        0.425        0.193       31.735       25.923        0.667      337.783        9.989      861.338
09/26/2014  08:48:00       47.582       45.546       61.852       43.853       29.046       30.593     1923.050      843.656      935.947        0.593        0.185       65.868       28.371        0.186      337.727        9.896      861.361
09/26/2014  08:49:00       47.818       69.470       67.987       42.884       32.430       22.519     1839.073     1051.717      507.098        0.757        0.170       84.337       16.179        0.037      337.727        9.897      861.374
09/26/2014  08:50:00       87.916       80.951       46.804       34.540       31.447       35.813     1192.977      988.924     1282.585        0.997        0.173      119.509       23.341        0.038      337.688        9.832      861.371
09/26/2014  08:51:00       94.752       55.205       27.705       46.357       37.050       34.733     2148.933     1372.718     1206.351        0.876        0.236      109.661       20.841        0.036      337.724        9.892      861.360
09/26/2014  08:52:00       60.103       16.604       28.651       44.917       32.270       27.554     2017.550     1041.379      759.210        0.426        0.191       62.355       20.022        0.103      337.760        9.951      861.330
09/26/2014  08:53:00       55.116       46.982       29.474       35.001       29.492       23.305     1225.060      869.773      543.124        0.438        0.132       72.423       15.892        0.048      337.707        9.864      861.293
09/26/2014  08:54:00       49.888       52.521        7.767       38.937       30.431       27.858     1516.124      926.034      776.070        0.426        0.161       72.438       19.679        0.074      337.649        9.768      861.254
09/26/2014  08:55:00       56.711       42.939       -0.684       36.167       24.031       21.075     1308.079      577.466      444.139        0.369        0.116       71.133       15.639        0.048      337.638        9.747      861.223
09/26/2014  08:56:00       48.510       35.848        4.137       20.119       23.669       19.693      404.758      560.226      387.799        0.250        0.068       60.318       12.649        0.044      337.647        9.761      861.215
09/26/2014  08:57:00       50.378       30.453        9.546       24.954       16.747       15.900      622.711      280.455      252.820        0.236        0.058       58.867       14.220        0.058      337.683        9.824      861.221
09/26/2014  08:58:00       57.622       19.690        4.338       15.955       19.130       16.660      254.575      365.970      277.550        0.231        0.045       60.893       10.866        0.032      337.659        9.784      861.236
09/26/2014  08:59:00       20.334       26.288       21.059       19.654       16.459       22.707      386.296      270.910      515.608        0.136        0.059       33.235       17.046        0.263      337.722        9.888      861.263
09/26/2014  09:00:00       57.193       45.160       14.193       19.443       20.160       16.555      378.045      406.414      274.056        0.329        0.053       72.873        4.574        0.004      337.714        9.875      861.276
09/26/2014  09:01:00       41.296       38.746        7.927       14.478       18.089       13.410      209.619      327.228      179.818        0.199        0.036       56.627        7.135        0.016      337.658        9.781      861.286
09/26/2014  09:02:00       66.930       55.687       10.328       27.929       20.556       19.844      780.034      422.558      393.769        0.464        0.080       87.067       15.013        0.030      337.703        9.857      861.295
09/26/2014  09:03:00       56.704       39.920        4.971       21.886       23.180       20.196      479.000      537.314      407.884        0.313        0.071       69.346       13.663        0.039      337.704        9.857      861.300
09/26/2014  09:04:00       90.047       60.442        0.931       19.531       20.667       16.605      381.452      427.110      275.741        0.642        0.054      108.452       12.306        0.013      337.667        9.797      861.287
09/26/2014  09:05:00       39.209       40.346       -0.757       25.815       22.533       15.267      666.397      507.719      233.089        0.229        0.070       56.260       13.613        0.059      337.692        9.838      861.267
09/26/2014  09:06:00        1.177       15.199       -3.213       12.972       19.083       11.895      168.267      364.168      141.500        0.046        0.034       15.245        8.595        0.318      337.681        9.820      861.286
09/26/2014  09:07:00      -35.819      -30.764       -8.065       33.850       23.934       13.687     1145.808      572.824      187.346        0.210        0.095       47.216        9.539        0.041      337.705        9.862      861.327
09/26/2014  09:08:00       -8.862      -27.208       22.401       42.742       27.509       21.796     1826.880      756.745      475.067        0.219        0.153       28.615       21.997        0.591      337.980       10.322      861.377
09/26/2014  09:09:00       -4.632      -67.956       21.106       41.925       44.628       30.485     1757.721     1991.658      929.310        0.488        0.234       68.113       31.427        0.213      337.948       10.268      861.436
09/26/2014  09:10:00      -52.349      -66.766       -6.173       36.711       52.069       30.605     1347.675     2711.204      936.647        0.612        0.250       84.841       25.322        0.089      337.947       10.264      861.503
09/26/2014  09:11:00      -28.428      -51.034        4.767       48.708       55.991       29.187     2372.493     3134.974      851.901        0.490        0.318       58.418       31.581        0.292      338.044       10.427      861.578
09/26/2014  09:12:00      -52.551      -36.992       -1.919       57.194       35.257       31.104     3271.111     1243.082      967.467        0.481        0.274       64.265       29.490        0.211      337.961       10.288      861.641
09/26/2014  09:13:00      -26.660      -48.536        8.959       29.818       34.228       24.850      889.116     1171.548      617.546        0.291        0.134       55.376       16.094        0.084      337.979       10.318      861.673
09/26/2014  09:14:00      -26.204      -28.841        3.968       28.599       22.481       20.976      817.923      505.397      439.994        0.165        0.088       38.967       11.326        0.084      338.028       10.400      861.706
09/26/2014  09:15:00      -57.264      -21.525       -3.424       22.181       24.303       14.950      492.009      590.645      223.505        0.253        0.065       61.176       10.458        0.029      338.089       10.503      861.734
09/26/2014  09:16:00      -48.855      -46.516      -15.054       29.378       35.581       22.148      863.083     1266.025      490.537        0.370        0.131       67.458       21.712        0.104      338.171       10.642      861.766
09/26/2014  09:17:00      -24.295      -24.293        9.535       43.045       23.881       27.853     1852.883      570.307      775.789        0.223        0.160       34.357       28.268        0.677      338.161       10.625      861.785
09/26/2014  09:18:00      -83.341      -70.922      -11.700       45.602       49.625       30.576     2079.553     2462.657      934.900        0.879        0.274      109.434       20.007        0.033      338.065       10.463      861.806
09/26/2014  09:19:00     -104.575      -39.095        0.075       47.421       33.224       28.473     2248.787     1103.851      810.713        0.831        0.208      111.644       23.385        0.044      337.995       10.347      861.805
09/26/2014  09:20:00      -58.459      -39.814       14.728       50.431       36.577       27.021     2543.298     1337.907      730.152        0.491        0.231       70.729       26.649        0.142      337.956       10.282      861.819
09/26/2014  09:21:00      -35.925     -108.697       11.991       50.430       52.068       35.902     2543.228     2711.055     1288.947        0.990        0.327      114.480       36.326        0.101      338.041       10.423      861.832
09/26/2014  09:22:00     -115.223     -144.377      -17.453       43.382       51.220       26.210     1881.993     2623.439      686.963        1.981        0.260      184.718       21.138        0.013      337.958       10.284      861.850
09/26/2014  09:23:00      -54.472      -90.842        2.652       63.416       45.720       31.115     4021.536     2090.278      968.171        0.915        0.354      105.922       22.131        0.044      338.090       10.505      861.872
09/26/2014  09:24:00      -85.774      -36.875       15.291       65.863       52.004       32.976     4337.876     2704.455     1087.439        0.854        0.406       93.364       31.122        0.111      338.035       10.413      861.883
09/26/2014  09:25:00      -85.476      -43.425        1.443       52.237       40.952       28.912     2728.685     1677.052      835.898        0.722        0.262       95.875       22.679        0.056      338.004       10.360      861.884
09/26/2014  09:26:00     -108.445      -64.086        8.413       59.862       57.788       29.300     3583.451     3339.494      858.512        1.186        0.389      125.965       34.861        0.077      338.008       10.367      861.873
09/26/2014  09:27:00     -112.922      -69.149        0.331       47.615       59.036       24.778     2267.235     3485.279      613.938        1.195        0.318      132.412       22.111        0.028      337.973       10.309      861.855
09/26/2014  09:28:00      -70.315      -91.742       10.622       58.673       71.108       35.894     3442.487     5056.402     1288.346        1.163        0.489      115.589       28.583        0.061      337.969       10.301      861.832
09/26/2014  09:29:00     -133.650      -59.490        6.127       78.574       83.159       42.234     6173.884     6915.497     1783.698        1.815        0.744      146.292       40.343        0.076      337.846       10.094      861.807
09/26/2014  09:30:00     -223.105      -46.785        2.959      123.736       77.788       57.498    15310.530     6051.002     3306.041        3.832        1.233      227.957       67.176        0.087      337.648        9.761      861.784
09/26/2014  09:31:00     -238.067      -81.924       -6.295       72.990       49.955       38.823     5327.474     2495.534     1507.207        3.638        0.467      251.768       41.158        0.027      337.576        9.638      861.771
09/26/2014  09:32:00     -183.724      -72.541       -4.394       69.917       59.627       33.338     4888.329     3555.412     1111.423        2.429        0.478      197.526       30.691        0.024      337.600        9.681      861.753
09/26/2014  09:33:00     -115.359      -50.476        6.300       66.909       60.750       29.781     4476.781     3690.508      886.923        1.247        0.453      125.919       33.186        0.069      337.658        9.780      861.742
09/26/2014  09:34:00     -150.645      -20.044       -4.121       46.011       54.007       24.594     2116.997     2916.781      604.857        1.437        0.282      151.973       24.379        0.026      337.672        9.803      861.727
09/26/2014  09:35:00     -146.177      -91.179      -12.165       41.008       59.636       23.609     1681.641     3556.412      557.365        1.781        0.290      172.283       22.380        0.017      337.672        9.803      861.721
09/26/2014  09:36:00     -117.877      -91.308       -2.153       42.186       41.629       25.262     1779.637     1732.944      638.178        1.319        0.208      149.104       21.980        0.022      337.614        9.706      861.712
09/26/2014  09:37:00      -58.297        0.161        3.922       48.532       36.511       22.896     2355.318     1333.073      524.236        0.381        0.211       58.298       14.106        0.059      337.661        9.786      861.701
09/26/2014  09:38:00     -124.912      -25.720      -11.467       33.601       39.988       18.738     1129.043     1599.016      351.130        0.974        0.154      127.533       13.294        0.011      337.610        9.701      861.706
09/26/2014  09:39:00     -111.494      -50.023       -0.137       45.899       33.168       25.502     2106.727     1100.110      650.364        0.939        0.193      122.202       27.394        0.050      337.658        9.781      861.706
09/26/2014  09:40:00     -119.697      -63.065       -5.090       29.127       24.410       19.477      848.384      595.855      379.357        1.008        0.091      135.294       14.474        0.011      337.610        9.700      861.700
09/26/2014  09:41:00      -62.794      -20.721       -3.609       30.259       27.016       15.780      915.578      729.862      249.003        0.314        0.095       66.125       15.808        0.057      337.594        9.673      861.670
09/26/2014  09:42:00     -122.311      -23.370       -6.234       48.463       31.198       21.811     2348.624      973.335      475.703        0.967        0.190      124.523       21.308        0.029      337.614        9.707      861.642
09/26/2014  09:43:00     -115.316      -30.905       -6.201       23.015       16.906       14.455      529.705      285.827      208.946        0.766        0.051      119.386       11.949        0.010      337.552        9.604      861.609
09/26/2014  09:44:00      -94.709      -32.539       -5.758       18.516       19.434       12.014      342.857      377.690      144.335        0.546        0.043      100.143       10.007        0.010      337.644        9.757      861.577
09/26/2014  09:45:00      -76.406      -40.114       -3.912       18.709       22.401       13.728      350.038      501.819      188.461        0.425        0.052       86.297       10.820        0.016      337.669        9.801      861.536
09/26/2014  09:46:00      -59.143      -48.365       -2.364       29.084       20.498       16.777      845.867      420.158      281.471        0.369        0.077       76.401       14.099        0.034      337.808       10.032      861.489
09/26/2014  09:47:00      -30.752      -33.150       -2.019       26.573       19.741       21.570      706.133      389.710      465.247        0.180        0.078       45.217       17.448        0.149      337.862       10.124      861.453
09/26/2014  09:48:00        1.868       10.613        9.812       14.998       13.893       22.884      224.946      193.022      523.687        0.058        0.047       10.776       10.500        0.949      338.054       10.446      861.420
09/26/2014  09:49:00       15.019       12.841        6.416        9.302       16.475       10.600       86.523      271.414      112.354        0.045        0.024       19.760        7.879        0.159      337.919       10.216      861.395
09/26/2014  09:50:00      -28.967       20.927        5.993       42.217       26.415       15.283     1782.271      697.763      233.574        0.201        0.136       35.735       11.672        0.107      338.000       10.354      861.389
09/26/2014  09:51:00      -34.073       69.196       -7.907       21.168       49.926       16.658      448.088     2492.640      277.480        0.461        0.161       77.130       17.040        0.049      337.843       10.091      861.381
09/26/2014  09:52:00      -60.780       46.043       -8.804       35.886       27.887       16.835     1287.778      777.680      283.417        0.412        0.117       76.250       14.343        0.035      338.023       10.394      861.354
09/26/2014  09:53:00      -99.381      -22.511      -16.649       34.689       29.824       19.454     1203.297      889.500      378.447        0.657        0.124      101.898       11.813        0.013      337.925       10.228      861.351
09/26/2014  09:54:00     -109.005      -33.197       -6.897       45.230       43.162       25.154     2045.733     1862.939      632.746        0.879        0.227      113.948        8.030        0.005      337.934       10.243      861.353
09/26/2014  09:55:00     -172.865      -75.191       -6.179       41.914       32.688       23.279     1756.785     1068.479      541.895        1.947        0.168      188.510       25.260        0.018      337.846       10.096      861.363
09/26/2014  09:56:00     -131.477      -56.899        0.286       50.642       42.257       22.391     2564.598     1785.628      501.371        1.269        0.243      143.261       26.141        0.033      337.881       10.155      861.366
09/26/2014  09:57:00     -126.281      -34.017        2.062       45.251       40.647       22.925     2047.647     1652.169      525.556        1.067        0.211      130.782       20.105        0.024      337.890       10.171      861.368
09/26/2014  09:58:00     -123.523      -47.195        2.174       55.065       23.354       20.287     3032.106      545.424      411.565        1.074        0.199      132.232       21.593        0.027      337.856       10.113      861.367
09/26/2014  09:59:00      -26.924       12.224        9.856       37.611       29.334       21.455     1414.550      860.454      460.307        0.185        0.137       29.569       25.079        0.719      338.254       10.781      861.360
09/26/2014  10:00:00     -104.542       13.355      -12.897       27.965       28.130       14.940      782.051      791.301      223.191        0.653        0.090      105.392        7.144        0.005      337.871       10.137      861.363
09/26/2014  10:01:00      -68.290       -8.537       -4.886       28.622       20.940       20.942      819.231      438.471      438.552        0.323        0.085       68.822       19.309        0.079      337.957       10.283      861.344
09/26/2014  10:02:00      -54.721       42.135      -15.451       20.558       25.103       12.774      422.623      630.169      163.166        0.311        0.061       69.063        6.201        0.008      337.970       10.304      861.315
09/26/2014  10:03:00      -17.170      169.047      -11.525       33.984       53.539       26.006     1154.918     2866.469      676.304        1.685        0.235      169.916       25.724        0.023      338.094       10.511      861.273
09/26/2014  10:04:00      -49.801      118.582      -15.533       42.533       43.333       24.295     1809.075     1877.782      590.240        1.053        0.214      128.615       25.885        0.041      338.033       10.409      861.247
09/26/2014  10:05:00      -12.375       75.395       -4.305       22.402       35.475       18.995      501.839     1258.480      360.794        0.399        0.106       76.404       14.489        0.036      338.260       10.790      861.226
09/26/2014  10:06:00       44.864       85.169       -9.357       47.761       68.053       37.972     2281.136     4631.152     1441.886        0.885        0.418       96.263       41.959        0.190      338.340       10.925      861.235
09/26/2014  10:07:00       21.300       18.339        8.404       23.400       24.215       20.474      547.554      586.366      419.197        0.121        0.078       28.108       13.904        0.245      338.479       11.158      861.246
09/26/2014  10:08:00       25.336       34.194       -2.769       21.583       30.969       20.875      465.807      959.066      435.762        0.184        0.093       42.558       13.498        0.101      338.286       10.835      861.248
09/26/2014  10:09:00       71.398       56.756        6.194       31.776       29.091       28.015     1009.734      846.259      784.854        0.550        0.132       91.208       20.765        0.052      338.344       10.932      861.217
09/26/2014  10:10:00       82.498       88.953        1.667       57.695       46.791       41.097     3328.753     2189.373     1688.982        1.096        0.360      121.320       29.326        0.058      338.308       10.871      861.186
09/26/2014  10:11:00       77.388      109.607      -10.493       53.179       55.379       35.759     2827.987     3066.882     1278.710        1.264        0.359      134.173       34.856        0.067      338.316       10.885      861.149
09/26/2014  10:12:00      114.033       67.258       24.489       63.259       48.400       37.501     4001.681     2342.548     1406.315        1.294        0.388      132.390       35.591        0.072      338.290       10.841      861.129
09/26/2014  10:13:00      117.182       57.198       13.494       52.025       43.831       37.294     2706.551     1921.198     1390.823        1.160        0.301      130.396       24.296        0.035      338.379       10.990      861.140
09/26/2014  10:14:00       75.098       74.678        5.829       47.068       25.340       22.062     2215.433      642.103      486.717        0.730        0.167      105.908       16.780        0.025      338.378       10.989      861.188
09/26/2014  10:15:00       23.724       44.667       10.602       35.728       15.711       22.238     1276.500      246.824      494.546        0.234        0.101       50.576       18.939        0.140      338.466       11.136      861.242
09/26/2014  10:16:00       61.234       45.967       13.841       57.960       26.798       31.468     3359.368      718.139      990.251        0.556        0.253       76.567       34.245        0.200      338.462       11.130      861.277
09/26/2014  10:17:00       43.015       75.025       41.915       32.273       30.416       30.660     1041.556      925.151      940.008        0.607        0.145       86.482       20.875        0.058      338.781       11.665      861.285
09/26/2014  10:18:00       24.099       48.016       68.661       34.715       34.405       16.805     1205.128     1183.730      282.403        0.514        0.134       53.724       11.364        0.045      338.709       11.546      861.283
09/26/2014  10:19:00       57.116       71.033       57.316       47.442       32.590       30.351     2250.714     1062.117      921.196        0.791        0.212       91.148       24.774        0.074      338.593       11.350      861.261
09/26/2014  10:20:00       48.525       65.978       22.920       34.112       22.463       19.705     1163.660      504.608      388.277        0.464        0.103       81.901       12.749        0.024      338.538       11.258      861.241
09/26/2014  10:21:00      -17.148       33.739       34.547       58.162       28.181       31.030     3382.784      794.148      962.867        0.388        0.257       37.847       32.637        0.744      338.678       11.491      861.227
09/26/2014  10:22:00      -29.393      -41.248      -10.901       46.022       52.869       18.847     2118.016     2795.085      355.198        0.398        0.263       50.650       20.599        0.165      338.720       11.563      861.223
09/26/2014  10:23:00       -9.877      -51.900      -11.557       33.147       46.723       21.113     1098.727     2183.059      445.778        0.333        0.186       52.831       19.758        0.140      338.836       11.758      861.237
09/26/2014  10:24:00      -12.871      -63.713        6.021       45.439       50.999       31.119     2064.674     2600.903      968.390        0.495        0.282       65.000       26.322        0.164      338.892       11.853      861.268
09/26/2014  10:25:00      -40.544      -81.632       -0.120       28.146       27.477       15.232      792.208      754.998      232.006        0.504        0.089       91.146       17.421        0.037      338.700       11.530      861.293
09/26/2014  10:26:00      -16.814      -54.244        1.874       25.063       47.593       20.298      628.158     2265.136      412.011        0.327        0.165       56.790       24.432        0.185      339.002       12.036      861.333
09/26/2014  10:27:00        4.475       18.367       23.674       24.953       22.162       16.442      622.657      491.144      270.327        0.115        0.069       18.904       16.103        0.726      339.175       12.329      861.371
09/26/2014  10:28:00       -0.850       71.315       -0.306       40.901       23.418       20.265     1672.922      548.386      410.681        0.386        0.132       71.320       24.227        0.115      338.830       11.749      861.400
09/26/2014  10:29:00       24.417       25.999        9.051       18.627       16.551       17.974      346.948      273.948      323.048        0.115        0.047       35.667       10.369        0.085      338.904       11.872      861.415
09/26/2014  10:30:00       -6.309       44.527      -15.551       40.593       29.307       19.060     1647.767      858.876      363.289        0.257        0.143       44.972       20.498        0.208      338.846       11.775      861.424
09/26/2014  10:31:00        7.252        3.669       15.700       14.237       14.792       13.666      202.692      218.812      186.758        0.046        0.030        8.128        8.708        1.148      339.165       12.312      861.426
09/26/2014  10:32:00      -75.368      -29.351        1.418       69.884       52.389       31.967     4883.789     2744.623     1021.908        0.760        0.433       80.882       39.576        0.239      339.381       12.676      861.443
09/26/2014  10:33:00     -113.122      -56.118        0.787       57.748       60.998       24.814     3334.825     3720.720      615.714        1.181        0.384      126.277       22.443        0.032      339.180       12.337      861.469
09/26/2014  10:34:00     -169.070      -52.391      -10.159       34.901       35.387       22.347     1218.103     1252.221      499.368        1.720        0.148      177.001       12.864        0.005      338.769       11.646      861.491
09/26/2014  10:35:00     -150.012      -65.138       -9.843       40.113       37.998       18.163     1609.044     1443.876      329.896        1.511        0.169      163.544       17.502        0.011      338.793       11.686      861.516
09/26/2014  10:36:00      -74.350      -52.163        0.058       60.871       43.631       33.749     3705.261     1903.666     1139.016        0.750        0.337       90.824       33.124        0.133      338.985       12.008      861.533
09/26/2014  10:37:00      -65.919      -58.896       17.054       92.130       58.951       37.357     8487.849     3475.198     1395.522        1.073        0.668       88.398       53.886        0.372      339.000       12.034      861.547
09/26/2014  10:38:00     -148.677      -73.042       -3.938       50.312       39.998       25.136     2531.267     1599.864      631.815        1.611        0.238      165.650       17.571        0.011      338.814       11.720      861.549
09/26/2014  10:39:00      -83.710      -34.608       -6.400       59.151       33.163       28.504     3498.846     1099.801      812.470        0.683        0.271       90.582       18.117        0.040      338.939       11.930      861.518
09/26/2014  10:40:00     -149.376      -75.949       -8.679      100.242       53.077       36.219    10048.537     2817.198     1311.815        2.116        0.709      167.575       34.234        0.042      338.725       11.570      861.465
09/26/2014  10:41:00     -183.680      -52.898       -2.058       44.731       37.903       26.745     2000.821     1436.633      715.272        2.035        0.208      191.146       21.346        0.012      338.631       11.412      861.404
09/26/2014  10:42:00     -202.149      -15.717      -20.602       39.477       37.091       29.439     1558.408     1375.711      866.651        2.267        0.190      202.759       23.079        0.013      338.647       11.440      861.354
09/26/2014  10:43:00     -169.848      -39.880      -24.151       37.791       32.923       16.969     1428.162     1083.950      287.940        1.691        0.140      174.467       17.198        0.010      338.600       11.361      861.326
09/26/2014  10:44:00      -47.806      -30.568       15.863       42.731       41.537       27.018     1825.913     1725.307      729.966        0.388        0.214       56.743       26.335        0.215      339.008       12.047      861.309
09/26/2014  10:45:00      -26.766      -55.054       -3.195       33.819       23.245       20.158     1143.703      540.332      406.326        0.292        0.105       61.216       14.564        0.057      338.849       11.780      861.306
09/26/2014  10:46:00      -38.204      -55.695        3.181       59.530       26.598       23.171     3543.783      707.475      536.909        0.468        0.239       67.539       25.392        0.141      338.859       11.797      861.315
09/26/2014  10:47:00      -43.740       -7.384        9.813       72.973       45.065       28.082     5325.050     2030.868      788.606        0.510        0.407       44.359       36.872        0.691      339.045       12.109      861.325
09/26/2014  10:48:00      -89.700      -37.303        8.012       67.439       59.115       48.608     4547.960     3494.540     2362.782        0.995        0.520       97.147       47.613        0.240      338.965       11.974      861.330
09/26/2014  10:49:00     -212.328      -74.889       -5.359       79.604       57.976       42.618     6336.802     3361.165     1816.288        3.112        0.576      225.148       44.533        0.039      338.779       11.660      861.332
09/26/2014  10:50:00     -144.284        0.214        2.815       81.361       46.925       40.982     6619.591     2201.915     1679.535        1.566        0.525      144.284       42.080        0.085      339.224       12.411      861.334
09/26/2014  10:51:00     -173.331      -42.082      -11.429       45.118       41.273       28.643     2035.648     1703.463      820.450        1.825        0.228      178.366       25.247        0.020      338.861       11.800      861.339
09/26/2014  10:52:00     -206.478      -73.522      -18.356       74.870       68.972       42.269     5605.590     4757.165     1786.699        3.026        0.607      219.177       42.497        0.038      338.781       11.663      861.338
09/26/2014  10:53:00     -131.652      -48.892       -6.893      101.680       72.914       44.724    10338.853     5316.508     2000.264        1.871        0.883      140.438       43.022        0.094      338.736       11.587      861.332
09/26/2014  10:54:00      -62.085      -64.511        9.386      114.392       55.204       56.511    13085.512     3047.535     3193.481        1.371        0.966       89.534       59.914        0.448      338.849       11.779      861.338
09/26/2014  10:55:00     -132.912       38.402       -8.177       77.322       69.182       45.645     5978.765     4786.136     2083.421        1.603        0.642      138.349       42.349        0.094      339.037       12.096      861.344
09/26/2014  10:56:00     -114.875      -53.937        0.535       92.400       68.918       46.490     8537.789     4749.647     2161.309        1.577        0.772      126.908       45.745        0.130      339.031       12.085      861.338
09/26/2014  10:57:00      -96.670      -75.469       13.291      101.776       77.980       60.434    10358.398     6080.821     3652.324        1.765        1.005      122.640       63.852        0.271      338.884       11.838      861.340
09/26/2014  10:58:00     -205.458      -96.962       -8.565      116.432       74.739       53.537    13556.507     5585.912     2866.180        3.684        1.100      227.188       59.422        0.068      338.704       11.533      861.328
09/26/2014  10:59:00      -79.432      -51.935       15.182       86.884       80.564       52.831     7548.818     6490.625     2791.115        1.303        0.842       94.903       52.203        0.303      338.825       11.738      861.306
09/26/2014  11:00:00     -101.815      -40.942        9.675       73.997       70.910       47.857     5475.539     5028.262     2290.306        1.246        0.640      109.739       54.115        0.243      338.891       11.849      861.287
09/26/2014  11:01:00     -113.648      -39.916       -1.369       74.175       69.368       36.952     5501.982     4811.936     1365.450        1.309        0.584      120.454       27.960        0.054      339.006       12.043      861.269
09/26/2014  11:02:00     -118.258      -26.110       -2.587       73.260       49.019       33.892     5367.084     2402.891     1148.639        1.179        0.446      121.106       34.152        0.080      339.035       12.093      861.261
09/26/2014  11:03:00      -43.012      -10.068        1.329       37.434       36.157       17.565     1401.332     1307.324      308.538        0.248        0.151       44.174       19.036        0.186      339.101       12.203      861.234
09/26/2014  11:04:00      -88.688       63.637      -16.556       52.851       37.982       28.478     2793.191     1442.612      811.011        0.862        0.252      109.157       26.664        0.060      338.969       11.981      861.207
09/26/2014  11:05:00     -206.286      -45.585      -23.301      106.135       75.376       44.339    11264.608     5681.580     1965.934        3.204        0.946      211.263       56.669        0.072      339.024       12.073      861.171
09/26/2014  11:06:00     -188.153      -50.938        0.895       93.854       83.399       46.790     8808.554     6955.382     2189.315        2.797        0.898      194.927       50.533        0.067      339.059       12.132      861.155
09/26/2014  11:07:00     -254.636      -54.845      -11.252       75.258      112.122       40.750     5663.780    12571.406     1660.586        4.393        0.995      260.475       42.497        0.027      338.752       11.614      861.143
09/26/2014  11:08:00     -174.101     -110.967       -5.023       85.339       82.799       43.348     7282.811     6855.736     1879.020        2.933        0.801      206.458       22.332        0.012      338.834       11.753      861.094
09/26/2014  11:09:00      -99.273      -28.863       -2.561       51.617       46.397       29.036     2664.280     2152.695      843.073        0.818        0.283      103.384       23.781        0.053      339.045       12.110      861.075
09/26/2014  11:10:00      -82.367      -45.023       -1.395       50.450       47.079       29.291     2545.202     2216.395      857.973        0.722        0.281       93.869       21.237        0.051      339.163       12.309      861.041
09/26/2014  11:11:00     -174.628        7.446      -13.123      105.854       38.204       39.570    11205.001     1459.522     1565.768        2.247        0.712      174.787       49.903        0.082      338.959       11.964      861.009
09/26/2014  11:12:00     -187.030      -43.510      -12.548       73.711       72.173       33.630     5433.341     5208.910     1130.995        2.440        0.589      192.024       30.139        0.025      338.785       11.671      861.003
09/26/2014  11:13:00     -150.571      -35.135       -3.267       79.309       49.046       34.110     6289.944     2405.509     1163.477        1.689        0.493      154.616       39.486        0.065      338.846       11.774      860.999
09/26/2014  11:14:00      -79.330      -69.650       -6.035       50.091       25.392       19.725     2509.066      644.765      389.057        0.736        0.177      105.567       16.020        0.023      338.734       11.587      861.006
09/26/2014  11:15:00        4.516       -8.591        6.402       51.566       26.935       34.395     2659.038      725.475     1183.031        0.235        0.228        9.706       28.059        8.358      339.084       12.175      861.005
09/26/2014  11:16:00      -69.205      -53.761       -2.895       81.878       28.122       25.568     6703.952      790.843      653.711        0.792        0.407       87.633       28.951        0.109      339.003       12.039      861.008
09/26/2014  11:17:00      -49.655      -42.711        5.377       35.197       28.805       24.079     1238.839      829.739      579.816        0.348        0.132       65.497       18.079        0.076      339.170       12.320      861.020
09/26/2014  11:18:00       -6.895      -51.575       -2.479       29.389       42.044       19.473      863.711     1767.721      379.199        0.286        0.151       52.034       17.987        0.119      339.221       12.406      861.021
09/26/2014  11:19:00      -12.371      -43.553       10.610       53.719       42.800       26.763     2885.704     1831.821      716.233        0.380        0.272       45.276       29.033        0.411      339.234       12.429      861.037
09/26/2014  11:20:00     -110.037     -102.356       -4.635       53.319       41.753       31.383     2842.877     1743.309      984.917        1.409        0.279      150.283       20.939        0.019      338.958       11.963      861.043
09/26/2014  11:21:00      -77.164      -50.968        6.602       67.619       48.314       35.580     4572.312     2334.288     1265.961        0.838        0.409       92.477       30.633        0.110      339.134       12.261      861.044
09/26/2014  11:22:00      -80.106      -55.077        2.822       60.955       27.733       18.814     3715.554      769.096      353.978        0.715        0.242       97.213       20.767        0.046      338.976       11.993      861.052
09/26/2014  11:23:00      -56.886      -38.277       -8.641       37.645       25.725       20.955     1417.126      661.767      439.113        0.365        0.126       68.564       17.556        0.066      338.956       11.959      861.060
09/26/2014  11:24:00      -90.578       20.024      -12.159       37.173       38.502       19.877     1381.854     1482.387      395.097        0.601        0.163       92.765       12.788        0.019      339.035       12.093      861.071
09/26/2014  11:25:00      -16.248       61.274        6.698       28.164       40.182       23.549      793.191     1614.620      554.537        0.351        0.148       63.391       19.993        0.099      339.351       12.625      861.071
09/26/2014  11:26:00      -69.812       -9.704       -6.182       28.665       32.426       15.634      821.698     1051.420      244.435        0.356        0.106       70.484       10.470        0.022      339.407       12.718      861.076
09/26/2014  11:27:00      -46.703       10.274        3.659       27.080       26.126       19.296      733.312      682.566      372.324        0.204        0.089       47.820       11.011        0.053      339.564       12.984      861.077
09/26/2014  11:28:00       -0.611       68.983        3.565       44.066       61.893       22.640     1941.845     3830.695      512.554        0.553        0.314       68.986       27.395        0.158      339.313       12.562      861.080
09/26/2014  11:29:00        4.689       69.902       -3.414       23.228       35.318       17.930      539.544     1247.367      321.491        0.351        0.105       70.059       15.605        0.050      339.084       12.176      861.089
09/26/2014  11:30:00        3.216       45.138       -0.738       23.330       16.502       16.380      544.271      272.332      268.307        0.157        0.054       45.253       11.238        0.062      339.032       12.088      861.083
09/26/2014  11:31:00      -55.270       70.144      -21.862       40.489       32.057       20.795     1639.322     1027.641      432.419        0.578        0.155       89.302       19.172        0.046      339.067       12.146      861.091
09/26/2014  11:32:00      -60.433       27.042       -2.659       75.140       67.529       31.567     5645.963     4560.137      996.464        0.779        0.560       66.207       36.576        0.305      339.295       12.531      861.067
09/26/2014  11:33:00       11.775      142.238      -29.298       17.969       23.456       13.329      322.900      550.187      177.668        1.114        0.053      142.724        5.855        0.002      338.907       11.877      861.066
09/26/2014  11:34:00      -41.285      153.161      -28.423       55.723       40.950       20.199     3105.096     1676.863      407.996        1.558        0.259      158.628       14.659        0.009      339.048       12.113      861.060
09/26/2014  11:35:00       14.622       48.196       -0.718       15.782       21.748       20.366      249.086      472.996      414.790        0.184        0.057       50.365       17.638        0.123      339.069       12.149      861.046
09/26/2014  11:36:00       32.286       28.952       15.415       31.248       29.042       23.472      976.433      843.452      550.951        0.224        0.119       43.366       14.537        0.112      339.150       12.286      861.035
09/26/2014  11:37:00       19.237      109.655      -16.626       42.690       55.923       34.177     1822.421     3127.365     1168.047        0.939        0.306      111.329       37.815        0.115      339.086       12.178      861.040
09/26/2014  11:38:00       48.955      158.474      -23.926       36.612       61.113       37.291     1340.457     3734.821     1390.621        1.727        0.323      165.863       41.417        0.062      339.091       12.187      861.019
09/26/2014  11:39:00       25.772      134.616      -23.448       30.812       45.368       26.028      949.375     2058.297      677.471        1.151        0.184      137.060       21.563        0.025      339.011       12.052      861.007
09/26/2014  11:40:00       21.956      115.914      -20.377       30.906       40.449       28.005      955.185     1636.138      784.296        0.885        0.169      117.975       21.113        0.032      339.052       12.121      860.996
09/26/2014  11:41:00      -13.498       86.048      -13.667       33.952       47.927       23.601     1152.749     2297.013      557.015        0.589        0.200       87.100       27.115        0.097      339.139       12.268      860.970
09/26/2014  11:42:00       -0.913      104.982      -21.582       12.170       13.974        9.274      148.102      195.262       86.003        0.596        0.021      104.986        4.986        0.002      338.956       11.963      860.940
09/26/2014  11:43:00       -5.709       79.169      -19.899       19.971       22.610        8.567      398.846      511.206       73.396        0.384        0.049       79.375        8.436        0.011      339.011       12.053      860.937
09/26/2014  11:44:00       13.930       47.759       -7.903       26.612       24.091       15.347      708.196      580.356      235.546        0.203        0.076       49.749       10.449        0.044      339.112       12.222      860.951
09/26/2014  11:45:00       49.310       45.539       -2.801       32.388       29.872       24.833     1048.996      892.312      616.657        0.354        0.128       67.121       18.753        0.078      339.137       12.264      860.972
09/26/2014  11:46:00       56.127       54.093        0.933       26.056       25.025       24.164      678.931      626.251      583.910        0.398        0.094       77.951       17.836        0.052      339.094       12.191      860.972
09/26/2014  11:47:00       18.140       34.271        7.242       27.084       29.847       17.866      733.531      890.845      319.192        0.175        0.097       38.776       10.206        0.069      339.233       12.427      860.981
09/26/2014  11:48:00       70.512       31.317        4.668       40.315       39.536       22.596     1625.331     1563.098      510.589        0.484        0.185       77.154       12.375        0.026      339.234       12.428      860.990
09/26/2014  11:49:00      105.202       61.166       -7.801       25.824       20.791       18.126      666.902      432.285      328.563        0.815        0.071      121.691        8.026        0.004      339.048       12.114      860.989
09/26/2014  11:50:00       33.533       43.066       -8.013       38.363       35.947       19.182     1471.741     1292.188      367.930        0.309        0.157       54.581       14.691        0.072      339.211       12.390      860.981
09/26/2014  11:51:00      101.684       27.791        9.625       47.520       37.682       27.202     2258.127     1419.961      739.929        0.781        0.221      105.413       10.129        0.009      339.283       12.512      860.965
09/26/2014  11:52:00       42.625       48.195       -7.975       35.139       34.508       21.699     1234.775     1190.819      470.848        0.355        0.145       64.341       14.955        0.054      339.331       12.591      860.947
09/26/2014  11:53:00       56.357       51.542      -16.089       22.621       25.703       18.790      511.719      660.625      353.077        0.381        0.076       76.372       12.803        0.028      339.322       12.576      860.929
09/26/2014  11:54:00       53.356       63.583      -13.649       22.722       41.227       22.690      516.271     1699.627      514.833        0.490        0.137       83.004       24.357        0.086      339.191       12.356      860.930
09/26/2014  11:55:00       39.234       34.194       -9.888       24.545       16.139       27.878      602.477      260.466      777.199        0.222        0.082       52.043       10.012        0.037      339.205       12.378      860.956
09/26/2014  11:56:00        3.643       43.223       -8.522       21.680       23.061       16.917      470.010      531.798      286.196        0.162        0.064       43.377       12.428        0.082      339.303       12.544      860.975
09/26/2014  11:57:00       24.613       43.556       -9.554       21.374       28.098       19.979      456.834      789.503      399.156        0.212        0.082       50.029       11.928        0.057      339.194       12.360      860.987
09/26/2014  11:58:00      -43.315      164.093      -21.896       69.395       76.909       31.099     4815.703     5915.055      967.145        2.049        0.585      169.713       33.224        0.038      339.260       12.469      860.989
09/26/2014  11:59:00      -96.605      147.495      -27.934       47.044       49.255       26.902     2213.160     2426.016      723.704        1.861        0.268      176.316       17.967        0.010      339.288       12.518      860.987
09/26/2014  12:00:00       25.526      165.052      -36.693       21.643       35.151       13.021      468.398     1235.602      169.541        1.556        0.094      167.014       14.110        0.007      339.037       12.095      860.996
09/26/2014  12:01:00      -42.149      118.722      -25.735       29.750       31.210       14.303      885.047      974.076      204.572        0.930        0.103      125.982        9.926        0.006      339.209       12.385      860.997
09/26/2014  12:02:00       14.033       96.884      -10.483       16.763       19.331       15.015      280.987      373.674      225.441        0.529        0.044       97.895       11.627        0.014      339.168       12.316      860.983
09/26/2014  12:03:00      -27.093       47.680       -9.965       40.447       22.771       16.289     1635.994      518.536      265.327        0.276        0.121       54.840       18.749        0.117      339.288       12.518      860.965
09/26/2014  12:04:00      -36.173       23.786        8.573       54.667       27.477       19.261     2988.451      754.987      370.978        0.303        0.206       43.292       16.507        0.145      339.469       12.824      860.940
09/26/2014  12:05:00      -87.148       -5.904       -4.434       57.368       36.309       26.467     3291.056     1318.377      700.503        0.648        0.265       87.348       22.906        0.069      339.708       13.226      860.916
09/26/2014  12:06:00     -147.659      -30.952      -18.854       67.640       58.941       30.817     4575.216     3474.024      949.669        1.606        0.450      150.868       20.591        0.019      339.434       12.763      860.904
09/26/2014  12:07:00     -137.504      -66.689      -16.686       30.775       33.989       14.318      947.120     1155.263      204.995        1.297        0.115      152.823        9.659        0.004      339.124       12.242      860.910
09/26/2014  12:08:00      -43.023      -46.256        3.202       44.625       28.490       33.933     1991.388      811.681     1151.423        0.398        0.198       63.171       20.287        0.103      339.611       13.064      860.917
09/26/2014  12:09:00      -58.962       -0.901       -8.808       63.842       57.723       22.722     4075.806     3331.968      516.270        0.574        0.396       58.968       25.736        0.190      339.602       13.047      860.900
09/26/2014  12:10:00     -124.814        2.736      -15.447       51.083       60.580       26.164     2609.492     3669.984      684.556        1.139        0.348      124.843       30.244        0.059      339.457       12.804      860.890
09/26/2014  12:11:00      -35.808      -10.180       10.800       45.700       47.965       26.717     2088.495     2300.594      713.795        0.330        0.255       37.227       19.609        0.277      339.872       13.503      860.867
09/26/2014  12:12:00      -34.619      -31.601       13.723       70.120       37.403       30.035     4916.829     1398.981      902.077        0.480        0.361       46.873       24.776        0.279      340.197       14.052      860.820
09/26/2014  12:13:00       32.384       60.954       21.483       40.388       38.009       33.754     1631.179     1444.673     1139.304        0.472        0.211       69.022       23.511        0.116      340.003       13.724      860.796
09/26/2014  12:14:00      -43.368       75.112      -13.424       33.314       36.886       22.215     1109.825     1360.582      493.500        0.533        0.148       86.732       22.395        0.067      339.589       13.025      860.783
09/26/2014  12:15:00      -65.857      102.887      -14.230       34.609       38.656       25.096     1197.758     1494.302      629.830        0.922        0.166      122.159       17.243        0.020      339.552       12.964      860.789
09/26/2014  12:16:00      -95.019       92.973      -26.842       45.853       43.425       30.107     2102.480     1885.739      906.455        1.164        0.245      132.938       30.963        0.054      339.602       13.048      860.784
09/26/2014  12:17:00      -74.259      107.596      -25.724       38.016       39.757       33.332     1445.211     1580.651     1111.006        1.094        0.207      130.733       24.843        0.036      339.472       12.829      860.782
09/26/2014  12:18:00      -54.498       79.222       -2.647       36.466       35.387       26.685     1329.796     1252.211      712.106        0.627        0.165       96.157       18.838        0.038      339.904       13.558      860.754
09/26/2014  12:19:00       14.262       45.670       -9.252       33.104       47.974       25.831     1095.856     2301.524      667.229        0.322        0.203       47.845       10.751        0.050      339.717       13.242      860.730
09/26/2014  12:20:00      -85.765      112.083      -17.881       73.137       58.820       44.948     5349.009     3459.746     2020.309        1.553        0.541      141.132       34.482        0.060      339.611       13.063      860.721
09/26/2014  12:21:00      -12.871       62.166       -4.878       35.411       59.022       26.038     1253.972     3483.643      678.000        0.473        0.271       63.484       30.482        0.231      339.940       13.618      860.705
09/26/2014  12:22:00      -84.839      -54.135       12.612       91.931       40.967       33.567     8451.266     1678.330     1126.723        1.077        0.563      100.639       37.462        0.139      340.098       13.884      860.694
09/26/2014  12:23:00      -50.160       31.746      -10.336       76.295       51.337       29.648     5820.884     2635.510      878.985        0.648        0.467       59.362       15.849        0.071      340.032       13.773      860.687
09/26/2014  12:24:00      -93.454       32.230      -31.466       43.364       42.638       20.367     1880.462     1817.959      414.794        0.744        0.206       98.856       14.960        0.023      339.640       13.112      860.710
09/26/2014  12:25:00       -3.438      -37.484       -0.575       61.582       41.006       23.700     3792.381     1681.473      561.681        0.373        0.302       37.641       15.362        0.167      340.174       14.013      860.684
09/26/2014  12:26:00     -158.455      -11.922      -21.772       39.754       74.090       29.228     1580.355     5489.399      854.247        1.682        0.396      158.903       15.234        0.009      340.152       13.975      860.660
09/26/2014  12:27:00     -110.086      -27.244        0.387       63.485       47.052       31.505     4030.284     2213.855      992.588        1.005        0.362      113.407       35.166        0.096      339.958       13.649      860.637
09/26/2014  12:28:00     -150.277      -41.283       -3.176       82.957       79.722       48.229     6881.800     6355.664     2326.081        1.993        0.778      155.844       47.954        0.095      340.181       14.023      860.619
09/26/2014  12:29:00     -152.334      -12.390      -12.909       55.277       40.182       34.702     3055.549     1614.581     1204.207        1.470        0.294      152.837       25.684        0.028      339.979       13.684      860.616
09/26/2014  12:30:00      -76.502       30.771       -9.471       26.624       28.675       27.634      708.835      822.268      763.624        0.459        0.115       82.459       13.915        0.028      340.254       14.148      860.605
09/26/2014  12:31:00      -25.000       21.911        5.549       23.417       32.202       22.841      548.356     1036.944      521.726        0.162        0.105       33.243       11.965        0.130      340.326       14.270      860.584
09/26/2014  12:32:00        6.903       16.592       15.289       30.339       38.542       23.779      920.426     1485.455      565.435        0.176        0.149       17.971       12.499        0.484      340.670       14.852      860.563
09/26/2014  12:33:00      -10.342       14.260       -4.286       61.290       77.002       27.928     3756.422     5929.248      779.971        0.540        0.523       17.615       19.407        1.214      340.049       13.801      860.548
09/26/2014  12:34:00       -8.711      -66.353      -13.375       44.256       72.658       31.996     1958.591     5279.126     1023.762        0.646        0.413       66.922       33.587        0.252      339.950       13.634      860.511
09/26/2014  12:35:00     -121.978      -24.734      -17.306       78.874       76.937       45.969     6221.150     5919.243     2113.174        1.502        0.713      124.460       43.965        0.125      340.091       13.872      860.505
09/26/2014  12:36:00      -30.125      -18.979       -1.222       61.610       39.179       42.458     3795.781     1534.956     1802.666        0.420        0.357       35.605       30.562        0.737      340.360       14.327      860.489
09/26/2014  12:37:00     -139.841       -7.601       -8.622      131.340       83.141       36.383    17250.118     6912.350     1323.758        2.258        1.274      140.047       38.101        0.074      340.300       14.224      860.491
09/26/2014  12:38:00      -89.841       74.612       -9.154       56.335       81.035       40.035     3173.652     6566.628     1602.836        1.253        0.567      116.783       36.994        0.100      340.545       14.640      860.488
09/26/2014  12:39:00      -54.806       90.468      -10.480       47.491       43.146       30.606     2255.375     1861.587      936.732        0.817        0.253      105.774       28.474        0.072      340.306       14.236      860.486
09/26/2014  12:40:00       17.149       35.356       17.495       48.389       35.511       32.312     2341.475     1261.021     1044.080        0.325        0.232       39.295       24.079        0.375      340.735       14.960      860.460
09/26/2014  12:41:00      -45.095       75.640       -4.629       58.257       51.723       34.183     3393.896     2675.234     1168.465        0.751        0.362       88.062       24.440        0.077      340.552       14.652      860.444
09/26/2014  12:42:00      -86.661      -39.626        7.974       83.653       56.954       43.089     6997.783     3243.746     1856.686        1.062        0.605       95.291       39.282        0.170      340.181       14.024      860.447
09/26/2014  12:43:00       37.336       32.555       -1.208       41.450       24.020       35.115     1718.120      576.955     1233.057        0.299        0.176       49.536       33.369        0.454      340.171       14.009      860.424
09/26/2014  12:44:00      -16.207       -0.767        3.872       32.665       34.036       30.973     1067.021     1158.477      959.339        0.173        0.159       16.225       17.356        1.144      340.803       15.076      860.418
09/26/2014  12:45:00      -20.080      -30.345       21.984       23.006       39.203       24.892      529.258     1536.910      619.626        0.225        0.134       36.387       20.258        0.310      340.544       14.639      860.395
09/26/2014  12:46:00      -80.940       -8.426       -4.783       64.369       51.445       38.385     4143.337     2646.552     1473.406        0.745        0.413       81.377       26.001        0.102      340.855       15.164      860.390
09/26/2014  12:47:00     -111.535       34.573      -19.198       59.750       90.395       49.994     3570.026     8171.238     2499.394        1.412        0.712      116.771       34.655        0.088      340.718       14.931      860.375
09/26/2014  12:48:00      -45.459       33.860        7.624       53.419       62.146       34.665     2853.559     3862.155     1201.693        0.559        0.396       56.684       27.440        0.234      341.048       15.491      860.360
09/26/2014  12:49:00      -29.842      -17.773       15.541       77.538       44.926       35.879     6012.179     2018.339     1287.310        0.538        0.466       34.733       36.375        1.097      341.231       15.800      860.353
09/26/2014  12:50:00      -11.819      -44.391        3.450      101.260       45.271       41.814    10253.510     2049.474     1748.425        0.808        0.703       45.938       31.578        0.473      340.756       14.996      860.348
09/26/2014  12:51:00        5.840      -76.891       13.546       39.867       44.486       32.358     1589.354     1979.045     1047.048        0.537        0.231       77.113       16.202        0.044      340.110       13.905      860.349
09/26/2014  12:52:00       -8.964       35.940       21.881       27.395       39.425       25.528      750.465     1554.330      651.687        0.240        0.148       37.040       27.926        0.568      340.816       15.099      860.336
09/26/2014  12:53:00       -0.283      -16.375       20.691       31.404       37.583       26.648      986.216     1412.479      710.098        0.190        0.155       16.378       19.703        1.447      341.301       15.921      860.329
09/26/2014  12:54:00      -30.793      -58.349       14.273       70.764       44.082       34.680     5007.604     1943.239     1202.678        0.635        0.408       65.975       25.951        0.155      340.975       15.365      860.322
09/26/2014  12:55:00      -30.379      -97.613        0.076       45.016       60.407       35.958     2026.406     3649.039     1292.966        0.871        0.348      102.231       25.922        0.064      340.742       14.973      860.324
09/26/2014  12:56:00      -56.583     -116.126      -19.169       30.447       64.563       18.107      927.041     4168.420      327.851        1.124        0.271      129.177       22.938        0.032      340.198       14.053      860.329
09/26/2014  12:57:00      -70.671      -52.253       -8.194       51.092       45.519       30.456     2610.417     2072.002      927.569        0.670        0.280       87.891       33.576        0.146      340.629       14.784      860.315
09/26/2014  12:58:00      -77.611      -39.188      -19.709       34.881       34.606       17.812     1216.661     1197.574      317.271        0.534        0.137       86.944        8.637        0.010      340.319       14.258      860.308
09/26/2014  12:59:00      -30.062      -58.075       15.595       33.347       29.029       27.104     1112.043      842.686      734.621        0.360        0.134       65.394       21.360        0.107      340.715       14.928      860.301
09/26/2014  13:00:00      -14.854      -46.935       -2.823       26.500       33.470       31.891      702.240     1120.217     1017.023        0.264        0.142       49.229       17.721        0.130      340.735       14.962      860.294
09/26/2014  13:01:00       -3.566      -51.863       -1.571       29.142      109.646       31.823      849.240    12022.147     1012.713        0.829        0.694       51.986       45.864        0.778      340.508       14.579      860.279
09/26/2014  13:02:00      -26.230       79.519       -9.747       40.702       74.078       31.894     1656.674     5487.566     1017.245        0.763        0.408       83.733       17.218        0.042      340.729       14.951      860.277
09/26/2014  13:03:00      -52.539     -101.636      -10.877       44.239       46.266       23.183     1957.079     2140.519      537.456        0.892        0.232      114.413       18.457        0.026      340.246       14.134      860.288
09/26/2014  13:04:00      -48.584     -125.384       -8.846       27.649       26.335       19.708      764.443      693.548      388.393        1.000        0.092      134.468       10.141        0.006      340.190       14.040      860.262
09/26/2014  13:05:00      -49.572      -71.437      -11.195       33.445       56.823       19.392     1118.570     3228.800      376.036        0.620        0.236       86.952       21.478        0.061      340.380       14.361      860.234
09/26/2014  13:06:00       41.268       33.752       16.249       45.897       29.098       33.567     2106.576      846.674     1126.751        0.359        0.204       53.313       17.785        0.111      341.170       15.697      860.217
09/26/2014  13:07:00      111.312       82.735       25.795       45.117       40.992       49.526     2035.554     1680.339     2452.852        1.303        0.308      138.692       28.708        0.043      340.862       15.176      860.183
09/26/2014  13:08:00      114.133       90.304        2.999       73.791       50.597       41.465     5445.098     2560.060     1719.312        1.546        0.486      145.537       24.727        0.029      340.816       15.097      860.150
09/26/2014  13:09:00      143.270       89.637       24.045       74.448       44.597       54.515     5542.513     1988.926     2971.841        1.982        0.525      169.000       30.145        0.032      340.879       15.202      860.132
09/26/2014  13:10:00      -59.912      105.467      -10.011       48.194       75.171       36.326     2322.631     5650.734     1319.611        1.205        0.465      121.296       39.184        0.104      341.232       15.801      860.126
09/26/2014  13:11:00      -44.644      156.191      -29.132       52.263       95.410       36.823     2731.447     9103.086     1355.937        2.021        0.660      162.446       45.311        0.078      340.802       15.074      860.106
09/26/2014  13:12:00       -7.522       80.159      -17.727       62.005       67.051       37.903     3844.597     4495.844     1436.669        0.829        0.489       80.511       44.970        0.312      341.181       15.715      860.055
09/26/2014  13:13:00      -90.758      170.655      -39.635       55.760       82.591       32.975     3109.171     6821.231     1087.320        2.497        0.551      193.287       21.804        0.013      340.708       14.912      860.030
09/26/2014  13:14:00       67.673       92.833        9.883       77.065       50.049       33.965     5939.051     2504.881     1153.622        1.144        0.480      114.881       22.553        0.039      341.379       16.050      859.970
09/26/2014  13:15:00       94.967       98.696        9.005       85.402       63.889       44.502     7293.489     4081.760     1980.452        1.610        0.668      136.965       33.502        0.060      341.117       15.606      859.958
09/26/2014  13:16:00      -46.639      114.887      -34.541       81.627       48.209       26.164     6662.982     2324.126      684.578        1.312        0.484      123.993       28.262        0.052      340.965       15.349      859.962
09/26/2014  13:17:00      -62.335      130.215      -31.904       57.734       56.272       35.957     3333.205     3166.520     1292.890        1.482        0.390      144.366       25.266        0.031      340.866       15.183      859.956
09/26/2014  13:18:00       26.961       44.103      -18.332       45.179       63.470       27.977     2041.143     4028.484      782.729        0.493        0.343       51.691       31.862        0.380      340.922       15.277      859.926
09/26/2014  13:19:00      -92.129      -49.177        6.707       94.815       68.568       39.814     8989.836     4701.503     1585.156        1.311        0.764      104.432       52.669        0.254      341.314       15.941      859.906
09/26/2014  13:20:00        5.828       21.785       37.385       39.962       28.359       21.896     1596.975      804.226      479.420        0.239        0.144       22.551       13.618        0.365      341.670       16.545      859.897
09/26/2014  13:21:00       30.455       60.720       13.995       46.430       52.138       37.225     2155.716     2718.325     1385.684        0.553        0.313       67.929       32.784        0.233      341.538       16.321      859.899
09/26/2014  13:22:00       12.903      167.170      -29.248       98.055       85.281       48.295     9614.780     7272.875     2332.431        2.409        0.961      167.668       43.416        0.067      341.266       15.857      859.910
09/26/2014  13:23:00       86.185      246.597      -36.582       40.900       99.705       52.281     1672.780     9941.107     2733.256        4.196        0.717      261.224       61.507        0.055      340.835       15.126      859.917
09/26/2014  13:24:00       11.935      191.703      -28.304       73.486       98.923       44.377     5400.261     9785.798     1969.320        2.742        0.858      192.075       53.739        0.078      340.837       15.129      859.920
09/26/2014  13:25:00       42.178      197.434      -38.775       33.531       57.285       20.940     1124.313     3281.561      438.497        2.355        0.242      201.890       21.022        0.011      340.614       14.754      859.919
09/26/2014  13:26:00        4.004      120.037      -23.291       48.206       42.055       21.290     2323.833     1768.645      453.273        0.976        0.227      120.104       21.675        0.033      340.808       15.085      859.893
09/26/2014  13:27:00      -29.157      116.584      -23.102       54.910       44.431       27.240     3015.117     1974.152      742.041        1.035        0.287      120.174       31.472        0.069      340.897       15.235      859.874
09/26/2014  13:28:00      -81.611       34.065      -14.453       53.240       32.540       32.194     2834.470     1058.851     1036.467        0.648        0.246       88.435       27.584        0.097      340.963       15.347      859.868
09/26/2014  13:29:00      -75.914      -17.013        6.975       36.292       33.263       24.145     1317.103     1106.441      582.977        0.455        0.150       77.797       16.834        0.047      341.422       16.124      859.855
09/26/2014  13:30:00     -105.588        1.345      -22.071       31.092       63.337       23.866      966.732     4011.616      569.577        0.859        0.277      105.596       24.116        0.052      340.979       15.374      859.850
09/26/2014  13:31:00       -0.706       63.886      -12.929       75.740       41.747       42.248     5736.510     1742.776     1784.896        0.676        0.463       63.889       17.130        0.072      340.971       15.359      859.853
09/26/2014  13:32:00     -118.935      120.220      -21.648       58.311       54.694       32.804     3400.196     2991.414     1076.133        1.827        0.373      169.111       36.734        0.047      340.970       15.355      859.850
09/26/2014  13:33:00     -135.547       49.356      -26.592       47.609       71.693       27.657     2266.571     5139.950      764.891        1.484        0.409      144.253       25.334        0.031      340.812       15.090      859.828
09/26/2014  13:34:00      -73.828      -47.346      -14.460       29.612       34.743       27.203      876.844     1207.062      740.014        0.536        0.141       87.706       21.637        0.061      340.861       15.173      859.781
09/26/2014  13:35:00      -56.506      -73.854       -9.057       34.274       49.241       21.994     1174.697     2424.719      483.736        0.641        0.204       92.991       26.118        0.079      340.837       15.133      859.757
09/26/2014  13:36:00      -71.373      -26.466        1.631       59.168       42.560       24.906     3500.896     1811.382      620.305        0.586        0.297       76.122       20.766        0.074      341.355       16.009      859.768
09/26/2014  13:37:00     -118.096      166.351      -20.286       58.942       92.003       42.743     3474.118     8464.545     1826.981        2.790        0.688      204.008       42.730        0.044      341.211       15.764      859.789
09/26/2014  13:38:00     -152.569      130.777      -23.193       82.042       87.643       48.604     6730.919     7681.357     2362.363        2.884        0.839      200.948       52.626        0.069      341.157       15.671      859.801
09/26/2014  13:39:00     -152.090      134.904      -44.745       70.436       53.618       32.102     4961.268     2874.942     1030.538        2.610        0.443      203.299       36.355        0.032      340.920       15.271      859.791
09/26/2014  13:40:00      -66.350      153.146      -32.793       46.763       46.874       29.639     2186.804     2197.149      878.484        1.710        0.263      166.901       27.910        0.028      340.938       15.304      859.781
09/26/2014  13:41:00      -60.704      138.362      -22.517       38.205       55.623       31.021     1459.650     3093.915      962.285        1.443        0.276      151.093       30.850        0.042      341.021       15.444      859.780
09/26/2014  13:42:00      -66.976       72.129      -14.435       34.081       40.260       29.229     1161.502     1620.856      854.344        0.677        0.182       98.429       21.944        0.050      341.201       15.748      859.774
09/26/2014  13:43:00       -5.741       42.661        5.141       41.147       49.403       26.101     1693.115     2440.608      681.288        0.335        0.241       43.045       29.452        0.468      341.439       16.151      859.745
09/26/2014  13:44:00       15.956       14.940       27.157       31.753       22.997       21.920     1008.259      528.854      480.477        0.162        0.101       21.859       15.500        0.503      341.718       16.626      859.713
09/26/2014  13:45:00      -63.005       45.074       -5.748       41.759       50.500       26.463     1743.853     2550.284      700.281        0.551        0.250       77.468       27.460        0.126      341.619       16.457      859.708
09/26/2014  13:46:00      -13.365       98.562      -22.662       27.900       33.315       30.485      778.404     1109.898      929.350        0.661        0.141       99.464       22.017        0.049      340.947       15.320      859.708
09/26/2014  13:47:00       15.748       35.922        3.703       23.360       14.696       27.383      545.699      215.978      749.851        0.153        0.076       39.223       17.198        0.192      341.000       15.408      859.688
09/26/2014  13:48:00       -2.361       29.311       33.727       39.587       21.140       18.463     1567.150      446.896      340.868        0.218        0.118       29.406       17.836        0.368      341.280       15.883      859.668
09/26/2014  13:49:00      -30.730       14.086       13.820       37.046       20.124       21.683     1372.426      404.964      470.156        0.179        0.112       33.804       22.753        0.453      341.145       15.655      859.666
09/26/2014  13:50:00       23.425       41.172       -8.830       22.291       23.947       17.861      496.875      573.476      319.020        0.186        0.069       47.370       13.119        0.077      341.233       15.804      859.662
09/26/2014  13:51:00       30.639       51.282       -8.043       49.327       35.140       24.703     2433.140     1234.826      610.241        0.396        0.214       59.738       19.379        0.105      341.162       15.683      859.658
09/26/2014  13:52:00     -145.398       20.725      -20.763      107.840       67.754       25.071    11629.437     4590.555      628.543        1.942        0.842      146.867       29.218        0.040      341.320       15.951      859.669
09/26/2014  13:53:00     -271.313       -9.090      -34.647       70.903       90.907       33.873     5027.193     8264.097     1147.390        4.466        0.722      271.466       21.347        0.006      341.062       15.509      859.673
09/26/2014  13:54:00     -144.619       22.361      -22.570       85.676       57.064       27.346     7340.398     3256.259      747.818        1.663        0.567      146.337       29.000        0.039      341.187       15.725      859.664
09/26/2014  13:55:00      -44.193      147.973      -23.840       53.853       76.761       33.205     2900.164     5892.191     1102.603        1.715        0.495      154.431       17.995        0.014      341.174       15.702      859.642
09/26/2014  13:56:00     -163.073       87.484       -6.137       78.392       74.120       43.868     6145.343     5493.771     1924.399        2.392        0.678      185.057       38.259        0.043      341.298       15.910      859.617
09/26/2014  13:57:00     -113.742      124.739      -27.270       50.899       94.902       40.848     2590.697     9006.319     1668.561        2.125        0.663      168.810       39.587        0.055      341.202       15.748      859.618
09/26/2014  13:58:00      -14.876       48.741       -9.245       44.208       49.117       25.850     1954.347     2412.471      668.208        0.386        0.252       50.961       28.352        0.310      341.240       15.816      859.622
09/26/2014  13:59:00      -87.631      -44.161      -25.096       79.498       45.422       34.172     6319.866     2063.162     1167.736        0.990        0.478       98.129       13.916        0.020      341.433       16.142      859.600
09/26/2014  14:00:00      -96.477      -69.701      -10.814      109.602       60.735       43.089    12012.613     3688.703     1856.695        1.592        0.878      119.022       49.588        0.174      341.273       15.870      859.592
09/26/2014  14:01:00     -150.761      -62.317      -14.752       75.031       48.713       23.489     5629.720     2372.991      551.715        1.769        0.428      163.133       25.987        0.025      340.938       15.303      859.589
09/26/2014  14:02:00      -17.408      -30.339       10.987       47.628       37.206       31.291     2268.408     1384.259      979.119        0.299        0.232       34.978       34.786        0.989      341.416       16.114      859.574
09/26/2014  14:03:00     -145.540      -74.659       -5.836       85.653       65.072       37.103     7336.406     4234.355     1376.600        1.987        0.647      163.572       40.757        0.062      341.323       15.953      859.566
09/26/2014  14:04:00     -220.889      -81.197      -15.838       63.684       64.982       39.567     4055.675     4222.612     1565.578        3.274        0.492      235.340       24.005        0.010      341.160       15.675      859.552
09/26/2014  14:05:00     -115.091      -77.481        9.137       56.728       52.733       39.560     3218.113     2780.731     1564.967        1.345        0.378      138.742       37.767        0.074      341.211       15.766      859.546
09/26/2014  14:06:00     -190.724      -66.012      -11.296       55.436       48.043       28.923     3073.189     2308.128      836.557        2.354        0.311      201.824       26.813        0.018      341.037       15.468      859.540
09/26/2014  14:07:00     -102.040       -5.614       -7.260       65.799       24.530       27.688     4329.510      601.707      766.649        0.810        0.285      102.195       33.971        0.110      341.171       15.700      859.542
09/26/2014  14:08:00      -18.875       -9.382       12.115       40.814       22.007       16.985     1665.822      484.318      288.481        0.151        0.122       21.078       22.717        1.162      341.706       16.605      859.540
09/26/2014  14:09:00     -190.415        8.739      -19.700       57.255       53.933       30.821     3278.078     2908.740      949.953        2.193        0.357      190.616       27.971        0.022      341.264       15.853      859.538
09/26/2014  14:10:00     -195.583      -35.034      -27.179       56.246       37.953       27.895     3163.623     1440.405      778.134        2.280        0.269      198.696       23.335        0.014      341.125       15.618      859.529
09/26/2014  14:11:00      -57.677       -6.277        2.791       63.354       53.952       36.308     4013.679     2910.846     1318.256        0.581        0.412       58.017       35.941        0.384      341.360       16.018      859.526
09/26/2014  14:12:00      -58.316      -41.281        4.664       48.783       34.350       27.960     2379.798     1179.900      781.784        0.473        0.217       71.449       28.063        0.154      341.081       15.545      859.503
09/26/2014  14:13:00      -31.745       90.469        2.843       44.011       83.014       41.560     1936.995     6891.277     1727.198        0.988        0.528       95.877       51.600        0.290      341.333       15.973      859.501
09/26/2014  14:14:00      -78.309      129.708      -17.029       59.660       65.748       34.674     3559.374     4322.830     1202.318        1.616        0.454      151.514       35.167        0.054      341.352       16.004      859.494
09/26/2014  14:15:00     -106.881      160.725      -27.443       47.722       84.334       31.686     2277.424     7112.278     1003.974        2.420        0.520      193.019       30.015        0.024      341.389       16.067      859.483
09/26/2014  14:16:00      -48.282      102.079      -27.780       81.797      115.014       23.247     6690.690    13228.315      540.435        1.699        1.023      112.922       45.308        0.161      340.947       15.317      859.485
09/26/2014  14:17:00      -37.340        0.854       -5.103       34.892       41.023       22.058     1217.456     1682.867      486.534        0.240        0.169       37.350       16.674        0.199      341.391       16.071      859.460
09/26/2014  14:18:00      -22.164       45.648      -15.730       41.902       51.712       23.660     1755.754     2674.167      559.780        0.391        0.249       50.744       18.917        0.139      341.240       15.816      859.453
09/26/2014  14:19:00      -89.308      -38.889       -1.469       58.527       72.743       31.632     3425.360     5291.551     1000.611        0.960        0.486       97.408       24.919        0.065      341.342       15.987      859.440
09/26/2014  14:20:00     -120.224      -35.238      -10.498       58.419       49.823       23.704     3412.784     2482.358      561.900        1.113        0.323      125.281       17.956        0.021      341.199       15.746      859.450
09/26/2014  14:21:00      -97.452       92.415      -14.298       85.013       77.216       42.153     7227.176     5962.338     1776.911        1.660        0.748      134.304       52.948        0.155      341.307       15.927      859.445
09/26/2014  14:22:00     -117.406      148.541      -34.121       68.121       63.848       36.175     4640.452     4076.561     1308.666        2.352        0.501      189.337       39.126        0.043      341.193       15.733      859.437
09/26/2014  14:23:00      -39.577       43.877        1.274       35.430       43.069       27.574     1255.280     1854.929      760.332        0.368        0.194       59.089       25.763        0.190      341.376       16.044      859.432
09/26/2014  14:24:00     -155.418        2.946      -20.914       60.640       45.199       26.098     3677.214     2042.905      681.128        1.550        0.320      155.446       18.027        0.013      341.523       16.294      859.430
09/26/2014  14:25:00     -187.297        4.732      -20.780       57.165       56.866       39.108     3267.818     3233.712     1529.433        2.178        0.402      187.357       31.744        0.029      341.456       16.180      859.437
09/26/2014  14:26:00     -191.016      -63.380      -17.067       46.913       38.641       21.832     2200.864     1493.090      476.618        2.248        0.209      201.256       18.495        0.008      341.071       15.528      859.422
09/26/2014  14:27:00      -27.330       49.713      -12.877       43.112       66.026       27.240     1858.657     4359.443      742.019        0.517        0.348       56.730       21.213        0.140      341.322       15.954      859.432
09/26/2014  14:28:00      -48.591      152.090      -18.279       48.208       70.728       36.426     2324.003     5002.512     1326.875        1.724        0.433      159.663       40.031        0.063      341.205       15.755      859.450
09/26/2014  14:29:00      -41.309      212.002      -36.299       49.006       49.874       25.965     2401.576     2487.411      674.163        2.677        0.278      215.989       20.647        0.009      341.064       15.513      859.445
09/26/2014  14:30:00      -41.353      220.793      -30.641       40.744       45.369       27.170     1660.055     2058.375      738.207        2.793        0.223      224.632       18.021        0.006      341.096       15.568      859.427
09/26/2014  14:31:00      -86.445      144.720      -30.193       36.011       70.510       29.083     1296.764     4971.730      845.833        1.822        0.356      168.572       34.168        0.041      341.192       15.732      859.416
09/26/2014  14:32:00      -23.403       92.856       -6.213       66.930       49.750       32.054     4479.659     2475.063     1027.444        0.859        0.399       95.760       23.559        0.061      341.308       15.931      859.416
09/26/2014  14:33:00     -104.148      229.790      -37.704       88.445       90.029       36.234     7822.493     8105.238     1312.931        4.115        0.862      252.290       40.760        0.026      341.146       15.656      859.416
09/26/2014  14:34:00      -89.624      119.813      -17.215       76.259       51.491       33.042     5815.458     2651.361     1091.751        1.612        0.478      149.625       34.943        0.055      341.164       15.687      859.423
09/26/2014  14:35:00      -89.403       73.917       -9.362       74.360       62.205       40.932     5529.439     3869.496     1675.446        1.231        0.554      116.003       46.683        0.162      341.420       16.121      859.413
09/26/2014  14:36:00     -102.337      130.224      -17.828       65.793       61.257       36.435     4328.762     3752.384     1327.501        1.858        0.470      165.623       36.173        0.048      341.461       16.189      859.405
09/26/2014  14:37:00     -149.230       98.671      -44.868       43.726       54.125       20.326     1911.936     2929.545      413.158        1.964        0.263      178.901       30.523        0.029      341.064       15.516      859.405
09/26/2014  14:38:00      -36.912      127.195      -27.797       38.427       95.774       25.978     1476.645     9172.580      674.877        1.482        0.566      132.442       38.543        0.085      341.283       15.887      859.385
09/26/2014  14:39:00      -31.587      143.146      -27.351       29.450       55.573       20.180      867.298     3088.314      407.221        1.330        0.218      146.590       24.192        0.027      341.093       15.565      859.369
09/26/2014  14:40:00      -55.114       96.191      -13.277       51.118       63.323       30.044     2613.047     4009.752      902.645        0.999        0.376      110.861       28.216        0.065      341.199       15.747      859.340
09/26/2014  14:41:00      -50.426      200.100      -25.070       51.147       53.173       35.616     2616.015     2827.406     1268.520        2.496        0.336      206.356       21.421        0.011      341.241       15.814      859.323
09/26/2014  14:42:00      -67.890       73.965      -14.263       47.379       48.202       24.242     2244.744     2323.435      587.673        0.772        0.258      100.399       18.742        0.035      341.368       16.033      859.322
09/26/2014  14:43:00     -122.780       95.540      -31.921       44.637       32.609       24.179     1992.452     1063.316      584.621        1.443        0.182      155.572       23.293        0.022      341.368       16.031      859.333
09/26/2014  14:44:00      -31.433      223.469      -41.130       68.309       59.832       25.284     4666.128     3579.880      639.300        3.075        0.444      225.669       23.589        0.011      341.296       15.908      859.321
09/26/2014  14:45:00      -37.242      184.625      -35.115       57.883       55.730       25.109     3350.401     3105.802      630.442        2.190        0.354      188.344       12.458        0.004      341.293       15.904      859.313
09/26/2014  14:46:00       -5.529      131.469      -10.098       48.385       44.652       30.124     2341.155     1993.834      907.463        1.133        0.262      131.585       20.482        0.024      341.286       15.894      859.307
09/26/2014  14:47:00      -26.710       96.589      -10.346       82.441       59.983       33.698     6796.528     3598.013     1135.578        1.084        0.577      100.214       33.042        0.109      341.446       16.164      859.308
09/26/2014  14:48:00     -110.550      137.439      -25.706       87.090       76.039       39.187     7584.727     5781.949     1535.587        2.333        0.745      176.383       47.104        0.071      341.274       15.872      859.308
09/26/2014  14:49:00      -23.303      112.131       -2.935       52.534       62.163       41.801     2759.777     3864.298     1747.324        1.075        0.419      114.527       39.850        0.121      341.362       16.022      859.301
09/26/2014  14:50:00      -29.638      130.382      -16.093       43.220       85.233       30.367     1867.958     7264.592      922.127        1.409        0.503      133.708       42.011        0.099      341.361       16.019      859.312
09/26/2014  14:51:00      -12.289      211.207      -17.518       48.078       77.306       35.728     2311.508     5976.279     1276.482        2.731        0.478      211.564       43.698        0.043      341.172       15.697      859.319
09/26/2014  14:52:00       -3.709      101.520        8.458       48.005       75.084       32.694     2304.524     5637.571     1068.870        0.970        0.451      101.587       35.323        0.121      341.404       16.092      859.296
09/26/2014  14:53:00        8.939       89.060       -3.125       24.584       36.052       26.602      604.361     1299.768      707.660        0.532        0.131       89.507       21.648        0.058      341.241       15.816      859.281
09/26/2014  14:54:00      -27.740       90.496       -3.057       43.694       57.349       24.534     1909.149     3288.900      601.912        0.738        0.290       94.652       24.297        0.066      341.397       16.081      859.276
09/26/2014  14:55:00     -121.690       99.615      -30.999       36.557       53.093       24.546     1336.382     2818.888      602.516        1.522        0.238      157.262       26.025        0.027      341.186       15.724      859.280
09/26/2014  14:56:00      -58.033       83.275       -6.253       41.459       66.575       36.011     1718.867     4432.279     1296.809        0.889        0.372      101.501       33.028        0.106      341.281       15.883      859.295
09/26/2014  14:57:00      -54.280      125.845      -11.938       43.153       50.195       29.545     1862.223     2519.493      872.895        1.209        0.263      137.052       23.373        0.029      341.241       15.816      859.304
09/26/2014  14:58:00     -114.784      131.350      -27.504       37.350       76.875       30.661     1395.007     5909.738      940.067        1.971        0.412      174.437       28.570        0.027      341.190       15.730      859.302
09/26/2014  14:59:00      -59.491      160.677      -19.318       28.428       34.621       22.017      808.179     1198.632      484.742        1.611        0.125      171.336       14.016        0.007      341.142       15.651      859.295
09/26/2014  15:00:00      -18.107       80.858       -0.070       22.529       38.845       23.042      507.570     1508.951      530.946        0.471        0.127       82.861       24.474        0.087      341.240       15.815      859.271
09/26/2014  15:01:00      -48.745       50.050        2.773       72.061       50.589       30.167     5192.753     2559.262      910.037        0.677        0.433       69.864       24.005        0.118      341.362       16.022      859.238
09/26/2014  15:02:00        1.456       70.623       20.779       43.827       50.484       37.255     1920.847     2548.681     1387.913        0.564        0.293       70.638       29.708        0.177      341.396       16.079      859.230
09/26/2014  15:03:00      -99.630       84.825      -28.815       54.603       53.945       28.392     2981.477     2910.084      806.081        1.232        0.335      130.848       30.777        0.055      341.273       15.872      859.231
09/26/2014  15:04:00     -107.672       53.864      -11.383       67.332       42.680       32.148     4533.575     1821.565     1033.491        1.101        0.369      120.394       41.113        0.117      341.214       15.770      859.244
09/26/2014  15:05:00      -49.052      -10.973       11.166       63.805       44.850       28.543     4071.106     2011.509      814.702        0.477        0.345       50.264       35.597        0.502      341.483       16.227      859.263
09/26/2014  15:06:00      -37.882      -32.114        3.564       52.473       33.257       31.318     2753.462     1106.041      980.843        0.366        0.242       49.663       36.326        0.535      341.288       15.900      859.244
09/26/2014  15:07:00      -58.475       28.583      -10.818       46.284       53.588       24.831     2142.178     2871.654      616.568        0.499        0.282       65.087       23.694        0.133      341.344       15.992      859.213
09/26/2014  15:08:00     -189.791       89.162      -33.640       69.579      126.227       51.149     4841.197    15933.356     2616.263        3.424        1.170      209.691       65.152        0.097      341.308       15.928      859.180
09/26/2014  15:09:00      -58.057      184.961      -22.301       75.515       95.627       41.082     5702.537     9144.576     1687.703        2.730        0.827      193.858       45.830        0.056      341.294       15.904      859.172
09/26/2014  15:10:00      -54.251      207.921      -17.937       48.893       89.726       33.482     2390.512     8050.712     1121.074        2.903        0.578      214.882       38.523        0.032      341.292       15.900      859.166
09/26/2014  15:11:00     -109.481      179.162      -33.006       87.327       71.134       32.776     7626.065     5060.104     1074.283        2.947        0.688      209.964       29.856        0.020      341.173       15.699      859.175
09/26/2014  15:12:00      -57.912       59.208       -9.847       45.756       37.131       32.552     2093.610     1378.695     1059.601        0.574        0.227       82.822       20.523        0.061      341.287       15.895      859.176
09/26/2014  15:13:00      -88.292       38.857      -11.287       59.527       59.879       25.747     3543.473     3585.464      662.919        0.861        0.390       96.464       27.428        0.081      341.351       16.003      859.166
09/26/2014  15:14:00     -102.491       50.401      -27.066       52.954       59.772       26.345     2804.166     3572.730      694.066        1.042        0.354      114.213       33.704        0.087      341.216       15.775      859.168
09/26/2014  15:15:00      -97.581       31.444      -15.800       58.646       66.743       28.606     3439.312     4454.645      818.285        0.973        0.436      102.522       35.927        0.123      341.245       15.825      859.162
09/26/2014  15:16:00      -99.594      -15.823       -8.863       74.585       32.761       26.892     5562.950     1073.308      723.157        0.880        0.368      100.843       33.825        0.113      341.341       15.986      859.138
09/26/2014  15:17:00      -91.705       61.298      -18.644       40.076       95.662       30.487     1606.114     9151.228      929.468        1.210        0.584      110.305       29.694        0.072      341.253       15.839      859.116
09/26/2014  15:18:00     -113.670       33.342       -7.577       84.994       49.059       33.378     7223.923     2406.816     1114.114        1.242        0.537      118.459       36.465        0.095      341.353       16.006      859.100
09/26/2014  15:19:00     -226.162      -13.087       -4.898      112.445       66.283       42.196    12643.878     4393.443     1780.500        3.508        0.941      226.541       58.661        0.067      341.271       15.865      859.084
09/26/2014  15:20:00      -92.504       96.038      -24.903       57.742       62.234       32.113     3334.135     3873.034     1031.270        1.332        0.412      133.343       36.416        0.075      341.436       16.147      859.085
09/26/2014  15:21:00      -93.389      206.001      -19.871       49.490       75.844       41.443     2449.240     5752.330     1717.557        3.073        0.496      226.181       40.735        0.032      341.210       15.760      859.095
09/26/2014  15:22:00     -173.323      167.061      -27.780       65.423       69.933       46.126     4280.186     4890.586     2127.624        3.501        0.565      240.728       37.178        0.024      341.230       15.793      859.076
09/26/2014  15:23:00     -140.286       38.742      -26.239       39.984       78.993       25.828     1598.723     6239.961      667.095        1.519        0.425      145.537       35.156        0.058      341.169       15.694      859.051
09/26/2014  15:24:00      -76.665       46.324       -8.047       37.156       47.006       31.682     1380.564     2209.528     1003.741        0.634        0.230       89.574       24.056        0.072      341.350       16.002      859.056
09/26/2014  15:25:00      -83.960       47.829      -13.943       32.120       32.902       22.958     1031.671     1082.549      527.052        0.609        0.132       96.628       19.753        0.042      341.414       16.110      859.074
09/26/2014  15:26:00      -98.869       35.034       -0.974       64.733       48.735       29.741     4190.366     2375.062      884.544        0.923        0.372      104.892       26.828        0.065      341.348       15.998      859.083
09/26/2014  15:27:00     -112.338       85.738      -27.352       57.122       47.680       26.557     3262.977     2273.379      705.295        1.348        0.312      141.318       18.968        0.018      341.289       15.899      859.078
09/26/2014  15:28:00      -54.530       83.849      -16.292       72.738       68.353       32.490     5290.768     4672.145     1055.578        1.064        0.551      100.021       33.256        0.111      341.292       15.904      859.071
09/26/2014  15:29:00       -2.427      257.551      -44.672       46.974       61.875       25.042     2206.572     3828.539      627.097        3.750        0.333      257.563       18.841        0.005      341.140       15.643      859.064
09/26/2014  15:30:00      -32.970      190.611      -27.316       41.038       44.504       27.657     1684.085     1980.595      764.889        2.130        0.221      193.442       16.346        0.007      341.252       15.833      859.059
09/26/2014  15:31:00      -71.105       49.167      -17.281       36.416       58.545       26.106     1326.131     3427.567      681.506        0.660        0.272       86.448        8.904        0.011      341.419       16.118      859.045
09/26/2014  15:32:00      -88.054      -21.834      -11.027       40.263       32.071       19.968     1621.102     1028.523      398.712        0.570        0.152       90.721       23.481        0.067      341.246       15.825      859.037
09/26/2014  15:33:00      -78.783       -7.464       -1.427       32.835       32.788       22.918     1078.160     1075.068      525.222        0.447        0.134       79.136       20.965        0.070      341.405       16.094      859.022
09/26/2014  15:34:00     -119.775       23.470      -15.508       48.907       49.551       30.485     2391.923     2455.275      929.312        1.046        0.289      122.053       31.222        0.065      341.288       15.897      859.007
09/26/2014  15:35:00      -98.238       56.243      -11.989       55.041       68.267       39.454     3029.527     4660.371     1556.615        1.110        0.462      113.199       34.385        0.092      341.323       15.956      858.991
09/26/2014  15:36:00      -70.194       34.102       -0.165       48.335       51.370       27.637     2336.233     2638.917      763.796        0.591        0.287       78.039       33.978        0.190      341.384       16.059      858.995
09/26/2014  15:37:00     -123.614       95.780      -31.536       67.831       54.341       31.599     4601.101     2952.966      998.479        1.700        0.428      156.379       33.716        0.046      341.281       15.882      859.008
09/26/2014  15:38:00     -141.085       26.804       -1.240       90.924       84.762       41.024     8267.183     7184.594     1682.929        1.888        0.857      143.609       43.426        0.091      341.411       16.104      859.000
09/26/2014  15:39:00     -113.176      101.769      -13.565       79.873      103.971       45.325     6379.687    10809.891     2054.394        2.129        0.962      152.204       41.244        0.073      341.297       15.909      858.996
09/26/2014  15:40:00      -81.213       55.394      -17.577       41.414       42.510       25.394     1715.079     1807.071      644.880        0.707        0.208       98.306       25.371        0.067      341.285       15.891      858.973
09/26/2014  15:41:00      -53.817       67.055       -5.971       40.160       47.881       24.769     1612.864     2292.543      613.499        0.597        0.226       85.981       19.598        0.052      341.456       16.182      858.953
09/26/2014  15:42:00      -73.970       77.487      -18.880       53.477       46.317       24.611     2859.770     2145.220      605.692        0.872        0.281      107.126       14.558        0.018      341.354       16.008      858.943
09/26/2014  15:43:00     -132.104       61.913      -21.963       76.478       93.211       37.259     5848.845     8688.268     1388.209        1.884        0.796      145.893       35.128        0.058      341.337       15.977      858.930
09/26/2014  15:44:00     -127.653       21.376        0.088       89.215       46.138       27.224     7959.307     2128.751      741.159        1.379        0.541      129.430       39.596        0.094      341.347       15.995      858.923
09/26/2014  15:45:00      -71.377       46.406       -0.465       75.195       42.833       33.821     5654.293     1834.663     1143.865        0.794        0.432       85.136       35.443        0.173      341.361       16.020      858.916
09/26/2014  15:46:00      -52.581       20.231        4.758       43.560       31.109       21.205     1897.490      967.744      449.669        0.326        0.166       56.338       23.086        0.168      341.561       16.361      858.905
09/26/2014  15:47:00      -72.525      132.121      -18.339       45.708       62.958       33.751     2089.184     3963.709     1139.154        1.512        0.360      150.717       29.148        0.037      341.432       16.141      858.910
09/26/2014  15:48:00      -79.564       32.423       -9.946       55.781       55.196       24.857     3111.537     3046.560      617.877        0.713        0.339       85.917       24.201        0.079      341.499       16.252      858.905
09/26/2014  15:49:00      -10.781      141.990      -12.793       27.418       43.482       31.634      751.764     1890.641     1000.733        1.204        0.182      142.399       27.818        0.038      341.422       16.123      858.917
09/26/2014  15:50:00      -97.610        5.896        3.498       71.795       80.092       41.623     5154.568     6414.791     1732.484        1.144        0.665       97.788       18.939        0.038      341.618       16.455      858.909
09/26/2014  15:51:00     -141.769      -52.603        4.752       99.366       59.141       47.487     9873.640     3497.632     2254.996        1.925        0.781      151.213       54.250        0.129      341.446       16.163      858.895
09/26/2014  15:52:00     -226.289      -46.453      -17.401      100.619       78.498       63.560    10124.277     6161.984     4039.885        3.699        1.016      231.008       65.514        0.080      341.393       16.073      858.877
09/26/2014  15:53:00     -233.545       75.337      -36.694       99.570       71.992       42.822     9914.191     5182.814     1833.714        3.925        0.847      245.395       47.906        0.038      341.457       16.180      858.885
09/26/2014  15:54:00     -115.965       85.918      -36.260       41.841       46.604       24.499     1750.700     2171.935      600.219        1.333        0.226      144.325       21.119        0.021      341.383       16.059      858.864
09/26/2014  15:55:00     -101.976       53.365       -9.851       86.920       45.156       33.802     7555.026     2039.024     1142.605        1.204        0.537      115.096       35.006        0.093      341.442       16.158      858.844
09/26/2014  15:56:00     -224.776      -19.592      -34.406       68.559       66.640       44.228     4700.284     4440.842     1956.123        3.159        0.555      225.628       34.238        0.023      341.286       15.890      858.839
09/26/2014  15:57:00     -106.726       53.930      -14.304       85.302       52.454       39.736     7276.469     2751.470     1578.911        1.305        0.580      119.578       39.432        0.109      341.482       16.225      858.852
09/26/2014  15:58:00     -160.673       18.814      -31.633       44.653       56.605       29.042     1993.886     3204.148      843.443        1.660        0.302      161.771       22.875        0.020      341.507       16.268      858.849
09/26/2014  15:59:00      -96.947        1.870      -10.681       57.136       54.977       29.321     3264.516     3022.440      859.745        0.833        0.357       96.965       23.397        0.058      341.459       16.186      858.839
09/26/2014  16:00:00     -126.939      -17.780       -9.702       80.092       74.841       32.973     6414.716     5601.148     1087.199        1.481        0.655      128.178       25.784        0.040      341.484       16.228      858.817
09/26/2014  16:01:00     -201.320      -22.825      -22.154       85.418       87.337       40.276     7296.306     7627.819     1622.166        2.904        0.827      202.609       32.521        0.026      341.468       16.200      858.782
09/26/2014  16:02:00     -140.151      -47.596        2.379      105.149       70.309       47.079    11056.322     4943.326     2216.387        2.006        0.911      148.012       47.492        0.103      341.458       16.183      858.756
09/26/2014  16:03:00     -116.149      -10.347      -15.167       59.758       72.627       34.603     3570.976     5274.750     1197.365        1.193        0.502      116.609       26.553        0.052      341.447       16.166      858.728
09/26/2014  16:04:00      -98.163      -16.539       -9.205       72.513       58.013       36.446     5258.129     3365.540     1328.281        0.997        0.498       99.547       15.966        0.026      341.419       16.118      858.738
09/26/2014  16:05:00     -136.128       12.830      -29.689       70.852       71.253       39.622     5019.988     5077.027     1569.942        1.562        0.583      136.732       38.708        0.080      341.439       16.150      858.735
09/26/2014  16:06:00     -153.230       26.634      -17.867       88.679       54.466       34.190     7863.958     2966.524     1168.983        1.825        0.600      155.527       28.950        0.035      341.512       16.274      858.709
09/26/2014  16:07:00     -160.153        7.451       -1.243       93.212       76.056       40.595     8688.485     5784.501     1647.975        2.091        0.806      160.327       39.370        0.060      341.600       16.422      858.693
09/26/2014  16:08:00     -179.716        7.808      -29.758       73.868       87.271       54.336     5456.412     7616.255     2952.366        2.463        0.801      179.885       48.281        0.072      341.424       16.124      858.667
09/26/2014  16:09:00     -178.428      -70.994       -7.417       84.254       47.566       30.709     7098.725     2262.506      943.032        2.362        0.515      192.033       27.773        0.021      341.419       16.118      858.652
09/26/2014  16:10:00     -221.738       85.092      -48.282       98.730       97.969       42.379     9747.642     9597.943     1796.002        3.994        1.057      237.505       47.605        0.040      341.426       16.128      858.674
09/26/2014  16:11:00     -164.716       -1.092      -23.947       57.134       95.481       32.445     3264.266     9116.576     1052.676        2.057        0.672      164.719       36.752        0.050      341.351       16.000      858.657
09/26/2014  16:12:00     -204.902      160.380      -50.891       67.919       78.441       43.790     4613.015     6153.057     1917.531        4.149        0.634      260.205       31.629        0.015      341.285       15.888      858.669
09/26/2014  16:13:00     -147.193      165.677      -29.427       45.714       98.805       41.715     2089.734     9762.334     1740.129        3.178        0.680      221.618       37.538        0.029      341.332       15.967      858.647
09/26/2014  16:14:00     -207.059      -27.993      -26.265       89.221       59.943       40.432     7960.472     3593.108     1634.733        2.877        0.659      208.943       32.773        0.025      341.383       16.056      858.624
09/26/2014  16:15:00     -131.840      -42.986       -2.403       75.842       63.872       32.455     5752.044     4079.690     1053.351        1.506        0.544      138.670       31.667        0.052      341.400       16.086      858.603
09/26/2014  16:16:00      -65.779       37.716      -25.686       43.025       50.499       27.144     1851.144     2550.102      736.817        0.577        0.257       75.825       21.646        0.081      341.448       16.167      858.591
09/26/2014  16:17:00      -95.340       -4.830        1.118       68.009       52.645       36.227     4625.228     2771.545     1312.381        0.891        0.435       95.462       35.573        0.139      341.497       16.249      858.582
09/26/2014  16:18:00      -40.184      101.383       -9.085       58.067       56.646       32.613     3371.780     3208.812     1063.633        0.981        0.382      109.056       35.055        0.103      341.487       16.234      858.563
09/26/2014  16:19:00     -107.142       60.486       -4.991       53.008       63.062       35.722     2809.800     3976.837     1276.082        1.161        0.403      123.037       36.316        0.087      341.625       16.467      858.543
09/26/2014  16:20:00     -172.329       46.772      -19.758      117.000       82.510       45.178    13689.022     6807.855     2041.023        2.740        1.127      178.564       54.903        0.095      341.469       16.202      858.549
09/26/2014  16:21:00     -140.365       41.331       -7.913       81.631       92.903       46.655     6663.544     8630.945     2176.652        1.947        0.874      146.323       47.998        0.108      341.445       16.160      858.559
09/26/2014  16:22:00     -132.201       45.495      -22.636       56.725       76.487       37.288     3217.728     5850.197     1390.374        1.526        0.523      139.811       10.323        0.005      341.428       16.132      858.549
09/26/2014  16:23:00      -99.462       88.575      -19.270       74.879       61.227       36.355     5606.926     3748.740     1321.650        1.439        0.534      133.185       38.110        0.082      341.460       16.187      858.537
09/26/2014  16:24:00      -72.020      138.279       -9.950       76.749       88.040       47.195     5890.332     7751.092     2227.390        2.014        0.793      155.910       47.549        0.093      341.488       16.234      858.507
09/26/2014  16:25:00     -223.221      174.989      -49.066       64.448       68.608       30.896     4153.549     4707.005      954.563        4.633        0.491      283.635       26.508        0.009      341.294       15.904      858.487
09/26/2014  16:26:00     -170.502       94.419      -33.497       71.112       73.169       42.103     5056.847     5353.634     1772.680        2.564        0.609      194.899       38.922        0.040      341.326       15.957      858.461
09/26/2014  16:27:00     -185.994      217.740      -48.601       78.745       75.635       43.867     6200.699     5720.581     1924.335        4.910        0.692      286.364       43.170        0.023      341.271       15.865      858.441
09/26/2014  16:28:00     -140.396      159.793      -22.266       88.467       70.550       43.991     7826.444     4977.265     1935.239        3.024        0.737      212.709       44.350        0.043      341.315       15.940      858.427
09/26/2014  16:29:00     -140.029      152.561      -32.347       60.738       57.338       39.871     3689.128     3287.687     1589.675        2.625        0.428      207.082       40.734        0.039      341.359       16.014      858.424
09/26/2014  16:30:00     -113.805      111.711      -10.275       90.324       53.167       43.311     8158.457     2826.721     1875.808        1.920        0.643      159.471       47.994        0.091      341.430       16.134      858.425
09/26/2014  16:31:00      -87.682       81.608      -14.818       45.680       92.109       30.549     2086.702     8484.138      933.262        1.303        0.575      119.783       27.110        0.051      341.490       16.238      858.415
09/26/2014  16:32:00      -54.120       14.035       15.811       84.543       61.351       47.313     7147.537     3763.989     2238.564        0.826        0.658       55.911       43.326        0.600      341.481       16.223      858.400
09/26/2014  16:33:00     -103.846       45.545       -9.415       96.195       79.505       39.421     9253.478     6320.986     1553.988        1.503        0.856      113.394       37.564        0.110      341.466       16.197      858.400
09/26/2014  16:34:00      -72.996       98.412      -17.005       64.819       66.665       35.498     4201.498     4444.281     1260.104        1.260        0.495      122.529       19.398        0.025      341.427       16.131      858.407
09/26/2014  16:35:00      -77.684      129.177       -6.321       58.475       53.121       33.896     3419.302     2821.817     1148.958        1.507        0.370      150.737       25.730        0.029      341.476       16.214      858.412
09/26/2014  16:36:00     -181.484      161.870      -47.507       61.627       83.429       43.139     3797.895     6960.325     1860.942        3.701        0.631      243.184       35.608        0.021      341.461       16.186      858.430
09/26/2014  16:37:00     -118.452      129.800      -15.433       72.879       67.308       41.880     5311.389     4530.324     1753.923        2.135        0.580      175.724       29.055        0.027      341.449       16.168      858.436
09/26/2014  16:38:00     -174.408      117.383      -22.382       70.777       68.762       49.119     5009.336     4728.279     2412.718        2.842        0.608      210.231       43.390        0.043      341.358       16.013      858.428
09/26/2014  16:39:00     -102.871      203.555      -37.149       84.739       88.665       43.863     7180.622     7861.466     1923.928        3.518        0.848      228.073       49.131        0.046      341.337       15.977      858.410
09/26/2014  16:40:00     -132.370       65.694      -21.123       69.135       70.895       39.859     4779.668     5026.069     1588.716        1.684        0.570      147.775       33.337        0.051      341.455       16.178      858.395
09/26/2014  16:41:00      -59.585      132.128        2.847       46.020      104.227       41.305     2117.830    10863.250     1706.084        1.785        0.734      144.942       40.161        0.077      341.495       16.247      858.391
09/26/2014  16:42:00      -80.371       62.688        6.364       54.599       54.564       35.774     2981.041     2977.178     1279.805        0.883        0.362      101.927       35.096        0.119      341.487       16.232      858.371
09/26/2014  16:43:00     -127.912       43.582      -14.693      100.675       62.730       33.396    10135.362     3934.994     1115.309        1.683        0.759      135.133       45.267        0.112      341.488       16.235      858.360
09/26/2014  16:44:00     -105.618       43.368      -26.954       86.762       80.421       41.719     7527.676     6467.612     1740.467        1.475        0.787      114.175       30.527        0.071      341.411       16.103      858.359
09/26/2014  16:45:00     -160.032       42.738      -24.769       89.220       72.251       50.083     7960.287     5220.172     2508.311        2.187        0.784      165.640       47.695        0.083      341.413       16.106      858.342
09/26/2014  16:46:00     -140.783       75.351      -29.709       95.125       87.397       53.246     9048.802     7638.152     2835.185        2.295        0.976      159.680       47.890        0.090      341.335       15.974      858.328
09/26/2014  16:47:00     -170.807      -22.472       -0.954       98.685       90.791       50.764     9738.632     8243.075     2577.026        2.512        1.028      172.279       46.107        0.072      341.401       16.084      858.292
09/26/2014  16:48:00     -235.536       60.337      -43.578      101.878       74.499       48.259    10379.158     5550.080     2328.902        3.963        0.913      243.141       33.728        0.019      341.345       15.989      858.298
09/26/2014  16:49:00     -185.972       28.371      -28.415       72.627       95.549       46.094     5274.709     9129.559     2124.653        2.636        0.826      188.124       43.957        0.055      341.354       16.007      858.288
09/26/2014  16:50:00     -209.479       72.449      -36.512       90.618       72.114       46.900     8211.643     5200.496     2199.631        3.304        0.781      221.654       33.989        0.024      341.366       16.027      858.282
09/26/2014  16:51:00     -243.456       79.408      -54.779       89.926       93.019       50.950     8086.731     8652.444     2595.886        4.395        0.967      256.079       42.423        0.027      341.303       15.918      858.260
09/26/2014  16:52:00     -216.422       17.080      -35.306       88.282       75.882       42.627     7793.639     5758.053     1817.099        3.187        0.768      217.094       44.674        0.042      341.300       15.916      858.242
09/26/2014  16:53:00     -288.416       45.360      -31.979       77.383       84.559       47.766     5988.085     7150.174     2281.618        5.084        0.771      291.961       42.203        0.021      341.302       15.916      858.264
09/26/2014  16:54:00     -164.875      -52.998      -16.517       67.690       56.500       35.251     4581.911     3192.224     1242.668        1.964        0.451      173.183       19.898        0.013      341.367       16.028      858.275
09/26/2014  16:55:00     -123.461      -15.402      -12.652       79.432       54.063       42.562     6309.427     2922.819     1811.501        1.334        0.552      124.418       42.195        0.115      341.424       16.125      858.285
09/26/2014  16:56:00     -162.582      -32.545       -5.964       87.695       94.100       49.606     7690.482     8854.894     2460.730        2.326        0.950      165.808       42.974        0.067      341.399       16.083      858.286
09/26/2014  16:57:00      -51.566      -23.171        1.561       75.000       47.019       40.752     5625.018     2210.801     1660.730        0.635        0.475       56.533       34.805        0.379      341.523       16.295      858.289
09/26/2014  16:58:00      -86.868      -50.312       -1.831       63.237       53.540       35.145     3998.856     2866.498     1235.178        0.909        0.405      100.386       17.646        0.031      341.468       16.202      858.280
09/26/2014  16:59:00      -68.955      -23.566        1.340       78.909       44.368       44.518     6226.669     1968.560     1981.853        0.774        0.509       72.871       49.570        0.463      341.481       16.222      858.263
09/26/2014  17:00:00     -119.320      -65.510       -4.712       58.242       63.319       41.014     3392.094     4009.322     1682.132        1.382        0.454      136.120       31.070        0.052      341.408       16.099      858.258
09/26/2014  17:01:00     -168.587       -6.743       -9.401       51.627       64.598       37.229     2665.381     4172.850     1386.014        1.839        0.411      168.722       31.665        0.035      341.378       16.048      858.262
09/26/2014  17:02:00     -330.176     -102.125      -27.574      125.745       93.283       53.242    15811.740     8701.744     2834.669        7.377        1.367      345.609       44.154        0.016      341.330       15.964      858.262
09/26/2014  17:03:00     -119.699      -10.213      -13.692       75.635       79.272       36.814     5720.625     6284.042     1355.255        1.399        0.668      120.134       32.518        0.073      341.399       16.083      858.285
09/26/2014  17:04:00     -128.571       24.148      -28.354       50.144       53.530       30.494     2514.434     2865.414      929.859        1.211        0.315      130.819       10.512        0.006      341.382       16.055      858.269
09/26/2014  17:05:00     -198.645       50.018      -37.131       51.604       83.428       31.300     2662.954     6960.167      979.685        2.697        0.530      204.845       26.559        0.017      341.384       16.059      858.249
09/26/2014  17:06:00     -195.826       66.105      -31.443      102.521       69.652       51.015    10510.484     4851.426     2602.569        3.083        0.898      206.682       47.792        0.053      341.308       15.928      858.221
09/26/2014  17:07:00     -224.018       80.231      -48.398       73.117      108.171       42.407     5346.141    11700.913     1798.319        3.890        0.942      237.952       40.974        0.030      341.294       15.904      858.186
09/26/2014  17:08:00     -100.013       53.506      -13.143       44.300       66.579       36.645     1962.489     4432.784     1342.857        1.039        0.387      113.426       29.721        0.069      341.362       16.022      858.169
09/26/2014  17:09:00     -108.093       45.349       -8.616       65.604       60.434       37.274     4303.944     3652.271     1389.325        1.158        0.467      117.221       34.117        0.085      341.357       16.013      858.142
09/26/2014  17:10:00      -90.932       30.420       -3.463       51.986       33.138       28.783     2702.573     1098.125      828.485        0.692        0.231       95.885       17.478        0.033      341.413       16.108      858.121
09/26/2014  17:11:00      -42.743       49.101        7.766       35.752       30.707       33.058     1278.214      942.924     1092.804        0.381        0.166       65.099       16.933        0.068      341.477       16.216      858.102
09/26/2014  17:12:00     -110.824       26.589       -8.460       79.268       63.122       40.470     6283.431     3984.325     1637.819        1.248        0.595      113.969       44.550        0.153      341.435       16.145      858.121
09/26/2014  17:13:00     -105.376       75.220      -20.581       40.680       78.855       29.154     1654.900     6218.085      849.980        1.295        0.436      129.468       36.828        0.081      341.376       16.045      858.128
09/26/2014  17:14:00      -60.343      125.200      -19.333       45.698       52.670       32.214     2088.318     2774.131     1037.752        1.279        0.295      138.983       16.374        0.014      341.398       16.082      858.137
09/26/2014  17:15:00      -64.786      125.554      -16.238       44.843       48.944       32.985     2010.889     2395.514     1088.021        1.286        0.275      141.283       21.533        0.023      341.453       16.176      858.158
09/26/2014  17:16:00      -71.970      155.079      -12.333       52.662       61.995       35.101     2773.292     3843.352     1232.079        1.861        0.392      170.966       34.035        0.040      341.367       16.029      858.153
09/26/2014  17:17:00      -51.215      177.427      -15.739       44.319       90.198       40.669     1964.147     8135.704     1653.929        2.305        0.588      184.671       36.362        0.039      341.403       16.089      858.111
09/26/2014  17:18:00      -65.788       58.270       -0.530       39.899       44.583       27.731     1591.899     1987.666      769.018        0.604        0.217       87.883       19.792        0.051      341.444       16.160      858.056
09/26/2014  17:19:00     -122.727       52.846      -27.802       85.076       66.797       37.455     7237.917     4461.867     1402.866        1.586        0.655      133.621       49.405        0.137      341.383       16.057      858.007
09/26/2014  17:20:00     -127.763       76.404      -25.930       57.255       71.512       44.104     3278.184     5113.942     1945.167        1.658        0.517      148.865       41.466        0.078      341.300       15.915      857.993
09/26/2014  17:21:00     -139.402      127.876      -21.872       54.905       68.458       41.644     3014.584     4686.556     1734.225        2.285        0.472      189.170       38.770        0.042      341.358       16.013      858.002
09/26/2014  17:22:00     -129.768       97.402      -24.388       75.478       75.441       40.670     5696.910     5691.347     1654.062        1.998        0.652      162.256       27.131        0.028      341.326       15.960      858.017
09/26/2014  17:23:00     -173.422      167.849      -21.577       80.544      131.132       53.672     6487.386    17195.544     2880.632        4.263        1.328      241.347       61.691        0.065      341.267       15.857      858.022
09/26/2014  17:24:00     -165.158      176.743       -8.839       97.698      112.549       69.226     9544.843    12667.287     4792.230        4.279        1.350      241.900       74.895        0.096      341.247       15.825      858.013
09/26/2014  17:25:00     -140.995      128.217      -21.515       89.471       88.625       47.935     8005.044     7854.328     2297.783        2.747        0.908      190.576       47.632        0.062      341.323       15.954      858.001
09/26/2014  17:26:00     -135.321      134.923      -29.384       59.182       71.041       43.857     3502.493     5046.829     1923.403        2.392        0.524      191.092       33.340        0.030      341.294       15.905      857.992
09/26/2014  17:27:00      -75.826      134.865      -12.261       60.636       65.935       37.865     3676.708     4347.381     1433.735        1.677        0.473      154.720       29.508        0.036      341.313       15.939      857.996
09/26/2014  17:28:00     -156.703      212.851      -33.496       54.011      108.135       44.007     2917.230    11693.252     1936.600        4.376        0.827      264.314       43.509        0.027      341.317       15.941      858.006
09/26/2014  17:29:00     -119.026      193.505      -31.753       59.628       88.310       28.388     3555.467     7798.744      805.856        3.239        0.608      227.181       39.549        0.030      341.253       15.833      858.012
09/26/2014  17:30:00      -84.844      140.607      -26.083       53.943       69.997       40.304     2909.887     4899.560     1624.382        1.854        0.472      164.222       42.856        0.068      341.345       15.991      857.982
09/26/2014  17:31:00      -30.238      233.627      -27.000       76.732      131.113       41.180     5887.755    17190.668     1695.780        4.050        1.239      235.576       55.772        0.056      341.359       16.014      857.957
09/26/2014  17:32:00      -64.929      252.068      -22.668       60.257       75.796       35.852     3630.929     5745.094     1285.395        3.946        0.533      260.296       33.688        0.017      341.309       15.930      857.921
09/26/2014  17:33:00     -141.646      219.377      -31.668       57.756       81.852       43.412     3335.764     6699.705     1884.604        4.055        0.596      261.132       45.423        0.030      341.361       16.016      857.914
09/26/2014  17:34:00     -116.396      194.807      -37.687       64.727       82.550       38.392     4189.631     6814.527     1473.915        3.270        0.624      226.931       34.627        0.023      341.312       15.933      857.894
09/26/2014  17:35:00      -57.014      179.151      -12.561       50.955       67.266       42.646     2596.411     4524.663     1818.713        2.222        0.447      188.004       36.937        0.039      341.291       15.900      857.878
09/26/2014  17:36:00      -25.031      199.518      -17.952       49.513       47.088       31.984     2451.538     2217.319     1022.958        2.322        0.285      201.082       20.028        0.010      341.319       15.948      857.861
09/26/2014  17:37:00      -42.985      114.998      -17.929       46.067       84.002       32.426     2122.158     7056.282     1051.419        1.281        0.511      122.769       34.437        0.079      341.392       16.072      857.863
09/26/2014  17:38:00      -46.234      101.020       -9.716       61.863       58.926       37.954     3827.060     3472.286     1440.493        1.059        0.437      111.097       24.037        0.047      341.366       16.029      857.855
09/26/2014  17:39:00      -65.857      121.857       -0.498       58.900      111.747       43.644     3469.224    12487.312     1904.812        1.852        0.893      138.514       33.030        0.057      341.348       15.997      857.826
09/26/2014  17:40:00      -47.596      102.968       -4.185       49.550       78.925       40.014     2455.190     6229.212     1601.131        1.158        0.514      113.436       40.838        0.130      341.402       16.088      857.832
09/26/2014  17:41:00       -1.411      214.093      -24.061       51.445       64.206       36.273     2646.556     4122.367     1315.704        2.725        0.404      214.098       33.906        0.025      341.319       15.947      857.832
09/26/2014  17:42:00     -118.561      141.710      -19.044       71.049       83.018       48.811     5048.023     6892.047     2382.511        2.441        0.716      184.766       33.782        0.033      341.309       15.929      857.819
09/26/2014  17:43:00     -126.338      254.377      -46.176      109.389       86.571       42.155    11965.921     7494.507     1777.068        5.202        1.062      284.023       48.961        0.030      341.228       15.790      857.795
09/26/2014  17:44:00      -67.150      212.628      -29.436       48.208      102.266       35.525     2324.037    10458.319     1262.025        3.231        0.702      222.979       49.296        0.049      341.294       15.903      857.776
09/26/2014  17:45:00      -42.804      253.461      -23.616       78.368      113.849       48.681     6141.491    12961.616     2369.872        4.405        1.074      257.050       53.029        0.043      341.261       15.849      857.748
09/26/2014  17:46:00      -99.985      255.167      -36.869       83.754      106.310       33.076     7014.709    11301.805     1094.004        4.794        0.971      274.057       29.678        0.012      341.241       15.814      857.721
09/26/2014  17:47:00      -99.379      243.820      -32.990       69.888      103.120       55.042     4884.399    10633.657     3029.611        4.448        0.927      263.295       52.151        0.039      341.287       15.891      857.709
09/26/2014  17:48:00     -156.430      115.426      -24.666       67.556       80.022       44.014     4563.753     6403.470     1937.207        2.565        0.645      194.405       37.884        0.038      341.247       15.827      857.693
09/26/2014  17:49:00     -102.687      140.220      -27.564       38.517       50.040       31.952     1483.525     2504.002     1020.938        1.799        0.250      173.799       22.762        0.017      341.293       15.904      857.690
09/26/2014  17:50:00      -78.320      136.898      -19.594       84.876       87.993       43.867     7203.968     7742.725     1924.356        2.106        0.844      157.718       44.866        0.081      341.311       15.933      857.680
09/26/2014  17:51:00     -140.644      293.596      -41.589       69.918       71.536       51.021     4888.543     5117.423     2603.169        6.016        0.630      325.545       43.304        0.018      341.232       15.799      857.676
09/26/2014  17:52:00      -90.727      210.344      -30.038       47.865      101.850       39.948     2291.065    10373.325     1595.870        3.382        0.713      229.077       38.309        0.028      341.324       15.955      857.703
09/26/2014  17:53:00      -44.981       83.760       -1.978       61.336       54.170       39.596     3762.125     2934.389     1567.847        0.865        0.413       95.073       39.784        0.175      341.356       16.012      857.723
09/26/2014  17:54:00     -133.287      254.827      -31.497       70.224      124.647       46.921     4931.341    15536.757     2201.624        5.318        1.133      287.580       50.038        0.030      341.225       15.787      857.733
09/26/2014  17:55:00      -85.333      183.587      -20.215       57.666       73.879       36.605     3325.317     5458.121     1339.925        2.576        0.506      202.449       29.754        0.022      341.295       15.905      857.732
09/26/2014  17:56:00     -164.154      153.091      -39.113       82.388       79.209       47.997     6787.807     6274.087     2303.669        3.364        0.768      224.463       49.855        0.049      341.238       15.808      857.733
09/26/2014  17:57:00     -159.968      231.750      -43.352       79.646      100.305       49.094     6343.526    10060.996     2410.204        4.999        0.941      281.599       42.488        0.023      341.190       15.728      857.711
09/26/2014  17:58:00     -145.477      105.877      -11.168       97.816       86.459       51.180     9567.909     7475.171     2619.408        2.608        0.983      179.927       44.819        0.062      341.245       15.821      857.684
09/26/2014  17:59:00     -115.276      195.002      -25.924       64.996       76.668       44.459     4224.481     5878.001     1976.644        3.203        0.604      226.527       37.723        0.028      341.243       15.819      857.654
09/26/2014  18:00:00     -151.478       85.996      -24.147       88.584       69.414       43.464     7847.094     4818.327     1889.158        2.274        0.728      174.187       39.952        0.053      341.269       15.863      857.643
09/26/2014  18:01:00     -124.515      180.129      -14.577       72.638      135.517       51.307     5276.247    18364.880     2632.439        3.721        1.314      218.976       60.783        0.077      341.219       15.779      857.630
09/26/2014  18:02:00     -124.080      236.199      -35.625       66.346       93.845       38.193     4401.824     8806.929     1458.708        4.356        0.733      266.806       39.021        0.021      341.220       15.779      857.617
09/26/2014  18:03:00      -80.949      223.520      -19.645       67.251      100.126       44.987     4522.665    10025.222     2023.799        3.673        0.829      237.726       41.616        0.031      341.253       15.834      857.604
09/26/2014  18:04:00      -70.984      208.049      -22.739       60.367      105.077       43.427     3644.188    11041.250     1885.905        3.270        0.829      219.825       46.157        0.044      341.242       15.816      857.588
09/26/2014  18:05:00      -66.438      205.683       -7.506       59.635      102.419       44.562     3556.322    10489.594     1985.785        3.140        0.802      216.147       46.777        0.047      341.230       15.796      857.572
09/26/2014  18:06:00      -70.947      152.421       -8.878       48.557       62.832       35.812     2357.755     3947.817     1282.472        1.797        0.379      168.124       33.012        0.039      341.289       15.898      857.577
09/26/2014  18:07:00      -48.406      175.582       -7.574       55.237       80.331       38.336     3051.120     6453.056     1469.673        2.210        0.549      182.133       31.576        0.030      341.298       15.911      857.622
09/26/2014  18:08:00     -170.465      110.937      -30.395      101.160      133.162       45.332    10233.440    17732.213     2055.009        3.615        1.501      203.385       33.098        0.026      341.261       15.847      857.669
09/26/2014  18:09:00     -102.171      107.156      -18.661       86.569      115.803       44.818     7494.204    13410.240     2008.656        2.259        1.146      148.059       52.968        0.128      341.241       15.816      857.712
09/26/2014  18:10:00     -208.268      236.242      -57.196       82.775       81.810       45.272     6851.633     6692.914     2049.567        5.902        0.780      314.937       41.275        0.017      341.197       15.739      857.726
09/26/2014  18:11:00     -113.876      171.943      -21.230       73.565       80.393       48.691     5411.769     6462.992     2370.820        2.861        0.712      206.233       48.196        0.055      341.226       15.790      857.728
09/26/2014  18:12:00     -137.297      160.584      -17.991       87.103       82.215       46.338     7586.982     6759.268     2147.213        3.072        0.825      211.276       38.772        0.034      341.254       15.837      857.740
09/26/2014  18:13:00      -45.891      286.716      -21.574       61.481      103.388       52.626     3779.875    10689.119     2769.526        5.101        0.862      290.365       38.048        0.017      341.174       15.700      857.753
09/26/2014  18:14:00     -134.219      274.530      -26.671       85.487      117.181       56.545     7307.953    13731.399     3197.343        5.916        1.212      305.584       53.741        0.031      341.186       15.721      857.723
09/26/2014  18:15:00     -161.525      168.651      -40.856       55.434       97.775       44.354     3072.949     9559.999     1967.320        3.540        0.730      233.524       49.220        0.044      341.173       15.700      857.745
09/26/2014  18:16:00     -183.214      176.808      -47.478       80.647       71.844       44.763     6503.961     5161.630     2003.687        4.037        0.683      254.615       45.420        0.032      341.136       15.637      857.745
09/26/2014  18:17:00     -184.230      210.808      -32.432       83.234       91.430       53.254     6927.861     8359.449     2835.968        4.877        0.906      279.966       47.405        0.029      341.157       15.671      857.734
09/26/2014  18:18:00     -132.871       75.392       -0.804      122.689       55.073       45.827    15052.490     3032.995     2100.133        2.176        1.009      152.770       34.090        0.050      341.174       15.702      857.725
09/26/2014  18:19:00     -135.448       85.343       -5.817       65.993       94.895       49.913     4355.031     9005.084     2491.323        2.075        0.793      160.092       36.357        0.052      341.177       15.708      857.708
09/26/2014  18:20:00     -186.598      -50.535       -0.733      110.162       86.112       41.979    12135.745     7415.313     1762.216        2.934        1.066      193.320       44.573        0.053      341.143       15.648      857.698
09/26/2014  18:21:00     -179.740      143.995      -20.073      115.785      113.703       51.167    13406.070    12928.331     2618.077        4.119        1.448      230.307       38.903        0.029      341.116       15.600      857.700
09/26/2014  18:22:00     -211.920      193.437      -37.497       98.344       72.804       55.449     9671.605     5300.375     3074.589        5.089        0.902      286.929       51.964        0.033      341.122       15.611      857.694
09/26/2014  18:23:00     -167.978      183.168      -38.663      101.212       67.378       43.619    10243.933     4539.816     1902.601        3.997        0.834      248.530       51.696        0.043      341.154       15.667      857.680
09/26/2014  18:24:00      -45.018      255.372      -31.610       67.821      120.809       49.952     4599.711    14594.764     2495.172        4.496        1.084      259.310       56.868        0.048      341.154       15.667      857.679
09/26/2014  18:25:00     -135.614      305.943      -47.303       92.702      150.749       46.121     8593.683    22725.292     2127.112        7.383        1.672      334.652       52.858        0.025      341.080       15.541      857.661
09/26/2014  18:26:00     -102.384      130.970      -15.300       94.625      135.331       52.870     8953.942    18314.489     2795.201        2.896        1.503      166.240       61.873        0.139      341.131       15.628      857.635
09/26/2014  18:27:00     -123.699      130.445      -24.403      101.388      105.009       58.260    10279.491    11026.799     3394.267        2.880        1.235      179.771       68.474        0.145      341.127       15.623      857.634
09/26/2014  18:28:00      -77.408      296.327      -39.270       53.525       63.698       38.280     2864.880     4057.494     1465.321        5.186        0.419      306.271       13.702        0.002      341.078       15.538      857.655
09/26/2014  18:29:00     -113.948      187.272      -31.041       60.717       63.409       37.834     3686.603     4020.661     1431.392        2.908        0.457      219.214       29.762        0.018      341.091       15.561      857.676
09/26/2014  18:30:00      -70.675      198.909      -11.299       49.330       79.174       39.113     2433.415     6268.567     1529.859        2.746        0.512      211.092       39.841        0.036      341.100       15.577      857.703
09/26/2014  18:31:00      -59.154      169.210      -12.787       67.915       82.522       39.628     4612.432     6809.893     1570.360        2.264        0.650      179.252       44.980        0.063      341.111       15.594      857.715
09/26/2014  18:32:00      -62.230      208.491      -29.041       72.499       75.031       45.184     5256.080     5629.694     2041.599        3.055        0.646      217.580       37.147        0.029      341.083       15.547      857.725
09/26/2014  18:33:00      -31.379      298.149      -31.928       55.706       77.493       39.235     3103.121     6005.115     1539.397        5.077        0.532      299.796       37.929        0.016      341.043       15.481      857.724
09/26/2014  18:34:00      -79.781      216.685      -24.785       67.719       81.436       37.725     4585.840     6631.792     1423.203        3.328        0.632      230.905       32.218        0.019      341.053       15.496      857.706
09/26/2014  18:35:00     -112.205      142.053      -26.931       60.950      108.357       38.285     3714.962    11741.177     1465.779        2.521        0.846      181.022       34.210        0.036      341.078       15.540      857.693
09/26/2014  18:36:00     -128.790      222.901      -30.461      101.750      101.993       54.505    10353.004    10402.542     2970.804        4.546        1.186      257.433       52.571        0.042      340.995       15.397      857.678
09/26/2014  18:37:00     -136.465      279.612      -34.858       95.725      100.894       51.917     9163.230    10179.641     2695.368        6.003        1.102      311.136       44.153        0.020      340.960       15.336      857.681
09/26/2014  18:38:00     -158.171      126.933      -34.752       97.438       94.249       50.068     9494.218     8882.961     2506.829        3.161        1.044      202.805       44.545        0.048      341.009       15.422      857.706
09/26/2014  18:39:00     -143.879      175.659      -23.691       95.182       86.501       61.942     9059.569     7482.498     3836.835        3.625        1.019      227.062       60.559        0.071      340.956       15.333      857.728
09/26/2014  18:40:00     -138.667      196.702      -30.504       82.273       76.365       59.292     6768.832     5831.646     3515.508        3.748        0.806      240.666       49.317        0.042      340.935       15.297      857.741
09/26/2014  18:41:00     -162.110      206.423      -41.253       79.934       98.874       45.382     6389.473     9776.131     2059.529        4.441        0.911      262.469       46.148        0.031      340.926       15.280      857.753
09/26/2014  18:42:00      -96.267      179.305      -27.149       95.948       92.733       56.708     9206.023     8599.478     3215.787        3.158        1.051      203.513       48.146        0.056      340.925       15.278      857.756
09/26/2014  18:43:00     -138.742      162.727      -19.881       68.596       77.328       45.276     4705.381     5979.659     2049.951        2.943        0.637      213.845       46.888        0.048      340.912       15.256      857.783
09/26/2014  18:44:00     -102.149       79.788      -24.073       45.634       37.092       24.470     2082.485     1375.823      598.804        1.072        0.203      129.617       14.245        0.012      340.930       15.290      857.812
09/26/2014  18:45:00     -136.300       29.744      -20.529       68.993       90.654       31.554     4760.025     8218.174      995.630        1.693        0.699      139.507       30.414        0.048      340.921       15.276      857.819
09/26/2014  18:46:00      -72.116       50.072       -5.394       57.811       33.302       26.765     3342.103     1109.054      716.376        0.645        0.258       87.795       29.468        0.113      340.979       15.373      857.786
09/26/2014  18:47:00     -132.312      102.384      -23.228       93.753       77.497       48.448     8789.610     6005.859     2347.231        2.283        0.857      167.299       54.108        0.105      340.887       15.216      857.759
09/26/2014  18:48:00     -160.939      164.280      -32.410       78.504       83.522       47.183     6162.821     6975.953     2226.252        3.465        0.768      229.977       47.454        0.043      340.844       15.141      857.724
09/26/2014  18:49:00     -123.959      177.717      -24.533       61.104       75.209       47.022     3733.665     5656.347     2211.029        2.957        0.580      216.678       39.068        0.033      340.823       15.107      857.715
09/26/2014  18:50:00     -136.626      224.329      -31.573       71.949       86.780       55.136     5176.603     7530.692     3039.939        4.286        0.787      262.660       46.044        0.031      340.779       15.032      857.704
09/26/2014  18:51:00     -200.654      184.516      -42.950      101.598       75.740       50.600    10322.171     5736.515     2560.379        4.738        0.931      272.596       46.186        0.029      340.793       15.055      857.706
09/26/2014  18:52:00     -118.184      134.005      -13.440       88.257       89.588       45.731     7789.327     8026.036     2091.303        2.500        0.895      178.675       34.071        0.036      340.803       15.073      857.697
09/26/2014  18:53:00     -103.858      221.514      -15.046       55.461       75.454       52.859     3075.949     5693.358     2794.028        3.582        0.578      244.652       41.086        0.028      340.793       15.055      857.706
09/26/2014  18:54:00     -132.373      230.012      -44.762       68.057       71.121       43.087     4631.800     5058.253     1856.512        4.199        0.577      265.383       41.802        0.025      340.756       14.994      857.729
09/26/2014  18:55:00      -73.562       98.654      -13.041       79.532       97.635       44.410     6325.363     9532.569     1972.241        1.657        0.892      123.061       60.262        0.240      340.797       15.064      857.764
09/26/2014  18:56:00     -172.502      192.442      -27.954       87.689      103.325       52.186     7689.417    10675.994     2723.363        4.433        1.054      258.439       51.053        0.039      340.743       14.971      857.764
09/26/2014  18:57:00     -136.635      149.101      -29.374       97.675       85.870       62.786     9540.497     7373.590     3942.044        3.131        1.043      202.238       55.202        0.075      340.740       14.967      857.770
09/26/2014  18:58:00     -121.929      139.855      -17.455       69.481       79.844       49.439     4827.617     6375.075     2444.242        2.419        0.682      185.542       48.751        0.069      340.725       14.941      857.759
09/26/2014  18:59:00      -93.478      147.907      -25.072       47.054       71.167       35.857     2214.048     5064.685     1285.739        1.990        0.428      174.970       31.939        0.033      340.744       14.974      857.760
09/26/2014  19:00:00     -105.685      142.082      -20.522       53.841       72.734       35.589     2898.858     5290.202     1266.573        2.062        0.473      177.078       25.059        0.020      340.707       14.910      857.734
09/26/2014  19:01:00      -72.408      109.017      -10.545       66.208       63.065       36.886     4383.501     3977.253     1360.598        1.348        0.486      130.873       38.743        0.088      340.735       14.958      857.724
09/26/2014  19:02:00      -86.933       97.738      -10.329       70.484       58.497       42.001     4967.986     3421.888     1764.093        1.368        0.508      130.806       45.092        0.119      340.716       14.928      857.734
09/26/2014  19:03:00      -82.845      158.736      -26.870      107.066      106.516       41.891    11463.055    11345.628     1754.849        2.867        1.228      179.054       53.768        0.090      340.709       14.915      857.752
09/26/2014  19:04:00     -109.303      180.013      -28.740       56.249       55.975       38.269     3163.990     3133.153     1464.501        2.647        0.388      210.599       34.486        0.027      340.713       14.921      857.765
09/26/2014  19:05:00      -99.687      146.695      -11.619       65.384       68.584       46.398     4275.036     4703.831     2152.773        2.136        0.557      177.361       41.110        0.054      340.693       14.889      857.785
09/26/2014  19:06:00      -57.934       98.031       -8.845       47.132       44.830       30.966     2221.459     2009.757      958.918        0.912        0.260      113.871       22.186        0.038      340.728       14.949      857.806
09/26/2014  19:07:00      -76.831      178.758      -22.705       48.874       66.934       28.054     2388.643     4480.179      787.013        2.301        0.383      194.570       28.187        0.021      340.725       14.941      857.823
09/26/2014  19:08:00      -39.082      204.329      -29.150       43.581       76.531       28.453     1899.270     5857.003      809.596        2.635        0.428      208.033       35.630        0.029      340.704       14.906      857.833
09/26/2014  19:09:00      -59.386      193.859      -22.576       64.550       65.848       31.966     4166.681     4335.932     1021.801        2.557        0.476      202.751       27.939        0.019      340.693       14.887      857.829
09/26/2014  19:10:00      -29.407      240.791      -21.597       52.575       65.011       33.830     2764.126     4226.407     1144.468        3.372        0.407      242.580       29.895        0.015      340.677       14.860      857.828
09/26/2014  19:11:00      -41.856      210.482      -17.400       49.440       71.419       36.701     2444.310     5100.705     1346.966        2.762        0.445      214.604       30.976        0.021      340.703       14.904      857.842
09/26/2014  19:12:00      -78.396      248.713      -27.443       64.456       74.340       39.391     4154.622     5526.479     1551.620        3.999        0.562      260.776       35.916        0.019      340.672       14.852      857.872
09/26/2014  19:13:00      -42.719      234.389      -10.391       39.739      116.254       41.784     1579.200    13515.051     1745.924        3.685        0.842      238.250       49.442        0.043      340.656       14.824      857.909
09/26/2014  19:14:00      -56.743      101.180        1.181       68.365       56.271       38.473     4673.832     3166.461     1480.141        1.139        0.466      116.005       29.241        0.064      340.716       14.928      857.924
09/26/2014  19:15:00      -35.585      175.005      -24.254       48.507       41.459       31.717     2352.964     1718.837     1005.969        1.878        0.254      178.586       14.990        0.007      340.712       14.923      857.944
09/26/2014  19:16:00      -62.803      101.211      -22.146       60.119       65.605       23.359     3614.353     4304.030      545.646        1.157        0.423      119.113       17.128        0.021      340.715       14.927      857.975
09/26/2014  19:17:00      -79.326       53.231        4.994       70.216       42.201       43.365     4930.228     1780.961     1880.520        0.887        0.430       95.531       35.387        0.137      340.712       14.921      858.003
09/26/2014  19:18:00     -137.493      130.746      -39.037       76.990       59.463       33.635     5927.419     3535.825     1131.328        2.406        0.530      189.733       38.149        0.040      340.693       14.888      858.016
09/26/2014  19:19:00     -129.800      104.792      -24.571       54.349       44.027       28.608     2953.851     1938.362      818.442        1.707        0.286      166.822       24.747        0.022      340.687       14.880      858.028
09/26/2014  19:20:00      -73.464       91.229      -11.395       46.502       41.436       27.525     2162.401     1716.937      757.634        0.924        0.232      117.131       21.088        0.032      340.676       14.862      858.015
09/26/2014  19:21:00      -88.077       58.725       -7.150       45.098       46.127       28.480     2033.858     2127.717      811.110        0.811        0.249      105.859       20.976        0.039      340.717       14.928      857.979
09/26/2014  19:22:00      -71.122       76.695      -10.833       36.915       55.286       27.457     1362.741     3056.594      753.905        0.811        0.259      104.596       18.810        0.032      340.696       14.894      857.951
09/26/2014  19:23:00      -87.172       49.691       -7.625       53.908       47.736       32.395     2906.079     2278.734     1049.459        0.818        0.312      100.340       31.797        0.100      340.725       14.944      857.956
09/26/2014  19:24:00     -176.817      101.255      -34.190       88.163       82.940       40.204     7772.706     6879.120     1616.401        2.947        0.813      203.757       49.176        0.058      340.705       14.907      857.976
09/26/2014  19:25:00     -104.340      201.001      -17.684       71.021      106.213       50.461     5043.918    11281.271     2546.320        3.523        0.944      226.469       47.280        0.044      340.690       14.883      857.975
09/26/2014  19:26:00     -198.227      173.300      -41.242       74.282       99.789       47.525     5517.762     9957.890     2258.598        4.438        0.887      263.300       48.554        0.034      340.675       14.856      857.971
09/26/2014  19:27:00     -140.182      127.629      -29.693       49.160       44.321       33.675     2416.696     1964.350     1133.996        2.117        0.276      189.579       26.631        0.020      340.656       14.827      857.958
09/26/2014  19:28:00      -62.542      149.957      -20.332       45.905       49.556       28.358     2107.303     2455.763      804.161        1.609        0.268      162.477       28.981        0.032      340.676       14.862      857.950
09/26/2014  19:29:00     -115.610      109.072      -16.566       54.167       70.590       41.855     2934.018     4982.966     1751.863        1.760        0.483      158.941       47.870        0.091      340.677       14.862      857.950
09/26/2014  19:30:00       -2.010      128.904       -2.015       41.295       75.008       39.544     1705.308     5626.266     1563.737        1.276        0.445      128.920       44.789        0.121      340.688       14.880      857.936
09/26/2014  19:31:00      -24.120      203.047      -28.977       39.269       37.196       20.912     1542.021     1383.558      437.295        2.301        0.168      204.475       18.128        0.008      340.640       14.796      857.909
09/26/2014  19:32:00      -48.152      158.557      -19.317       38.333       45.760       19.688     1469.455     2093.991      387.636        1.589        0.198      165.707       15.014        0.008      340.668       14.846      857.895
09/26/2014  19:33:00      -35.186      118.048      -16.550       38.280       62.819       28.893     1465.355     3946.173      834.809        1.085        0.312      123.180       26.111        0.045      340.691       14.886      857.886
09/26/2014  19:34:00      -24.575      215.865      -17.697       47.928       55.786       34.727     2297.097     3112.087     1205.983        2.706        0.331      217.259       29.498        0.018      340.652       14.817      857.880
09/26/2014  19:35:00      -88.756      197.416      -17.684       61.296      116.940       34.948     3757.200    13675.020     1221.343        3.291        0.933      216.450       41.442        0.037      340.660       14.831      857.879
09/26/2014  19:36:00      -67.160      196.606      -33.318       54.333       73.356       25.995     2952.080     5381.142      675.734        2.664        0.450      207.760       24.896        0.014      340.609       14.743      857.879
09/26/2014  19:37:00      -49.367       95.586      -17.680       41.049       71.623       26.379     1685.010     5129.886      695.830        0.970        0.376      107.582       26.394        0.060      340.670       14.851      857.877
09/26/2014  19:38:00     -131.527       90.149      -20.346       72.962       60.068       39.162     5323.396     3608.180     1533.647        1.815        0.523      159.456       44.833        0.079      340.621       14.767      857.889
09/26/2014  19:39:00      -83.464       74.014      -23.976       32.332       48.995       19.520     1045.389     2400.533      381.023        0.842        0.191      111.554       14.400        0.017      340.659       14.833      857.908
09/26/2014  19:40:00      -56.465       91.895      -18.651       53.753       50.947       27.451     2889.354     2595.553      753.558        0.911        0.312      107.856       28.623        0.070      340.671       14.851      857.942
09/26/2014  19:41:00      -32.912       72.442       11.905       45.480       41.094       30.254     2068.420     1688.707      915.298        0.557        0.234       79.568       26.257        0.109      340.652       14.820      857.974
09/26/2014  19:42:00     -123.315       43.969      -29.050       57.008       72.442       27.727     3249.943     5247.902      768.792        1.362        0.463      130.919       37.873        0.084      340.664       14.842      858.018
09/26/2014  19:43:00     -146.971       18.631      -27.485       40.956       35.767       25.019     1677.378     1279.303      625.934        1.314        0.179      148.147       22.627        0.023      340.612       14.752      858.064
09/26/2014  19:44:00      -50.301       19.394      -13.575       52.388       39.981       21.461     2744.503     1598.446      460.587        0.395        0.240       53.910        7.457        0.019      340.622       14.768      858.126
09/26/2014  19:45:00     -131.643      -53.944        0.935       41.263       46.921       23.217     1702.640     2201.622      539.008        1.234        0.222      142.267       20.144        0.020      340.645       14.809      858.163
09/26/2014  19:46:00     -156.051       -7.601      -13.231       28.559       54.533       22.080      815.590     2973.883      487.523        1.443        0.214      156.236       14.183        0.008      340.636       14.792      858.193
09/26/2014  19:47:00     -172.227      -44.820      -14.028       65.911       63.378       37.618     4344.196     4016.708     1415.085        2.082        0.489      177.963       33.188        0.035      340.634       14.788      858.197
09/26/2014  19:48:00      -85.681      -35.243        1.678       51.582       55.626       30.981     2660.714     3094.225      959.794        0.765        0.336       92.647       23.934        0.067      340.629       14.783      858.201
09/26/2014  19:49:00     -135.541      -12.907      -18.799       33.689       33.626       22.097     1134.943     1130.739      488.287        1.082        0.138      136.154       22.879        0.028      340.621       14.768      858.190
09/26/2014  19:50:00      -92.793       41.873       -5.665       53.043       46.050       28.475     2813.542     2120.637      810.801        0.807        0.287      101.803       28.663        0.079      340.600       14.732      858.161
09/26/2014  19:51:00     -103.018       86.235      -25.637       34.298       53.235       22.355     1176.361     2833.935      499.747        1.161        0.226      134.347       19.330        0.021      340.646       14.810      858.130
09/26/2014  19:52:00     -149.837      135.710      -32.275       56.090       56.666       32.817     3146.090     3211.058     1076.971        2.467        0.372      202.159       30.535        0.023      340.646       14.807      858.089
09/26/2014  19:53:00     -143.653      158.722      -31.489       51.849       61.031       39.724     2688.286     3724.761     1578.023        2.740        0.400      214.077       29.275        0.019      340.600       14.730      858.044
09/26/2014  19:54:00     -141.872      157.439      -30.684       56.698       97.422       44.177     3214.631     9491.014     1951.625        3.025        0.733      211.931       56.128        0.070      340.587       14.708      858.007
09/26/2014  19:55:00     -145.160      135.454      -31.846       65.607       76.192       38.730     4304.224     5805.161     1500.041        2.602        0.580      198.542       39.566        0.040      340.582       14.700      857.991
09/26/2014  19:56:00      -92.577      140.078      -20.141       43.868       65.480       38.860     1924.377     4287.621     1510.093        1.816        0.386      167.906       33.123        0.039      340.592       14.717      858.000
09/26/2014  19:57:00     -125.594      115.793      -19.590       47.246       71.764       38.763     2232.173     5150.075     1502.595        1.922        0.444      170.827       29.610        0.030      340.565       14.670      858.019
09/26/2014  19:58:00      -99.019       62.537      -20.547       48.633       46.566       24.620     2365.216     2168.361      606.137        0.964        0.257      117.114       22.196        0.036      340.519       14.595      858.032
09/26/2014  19:59:00     -141.406      -39.801      -15.483       51.984       49.020       31.121     2702.369     2402.957      968.541        1.395        0.304      146.900       23.165        0.025      340.487       14.540      858.039
09/26/2014  20:00:00     -165.514      121.094      -44.563       49.636       90.136       40.910     2463.757     8124.579     1673.659        2.815        0.613      205.082       41.143        0.040      340.411       14.410      858.056
09/26/2014  20:01:00     -181.870       73.940      -34.087       38.981       81.190       36.434     1519.549     6591.820     1327.437        2.457        0.472      196.326       28.166        0.021      340.335       14.281      858.060
09/26/2014  20:02:00     -159.325        4.018      -13.949       48.816       54.039       41.925     2383.047     2920.188     1757.691        1.633        0.353      159.376       21.282        0.018      340.189       14.038      858.062
09/26/2014  20:03:00      -77.234        3.971       -4.018       41.084       51.760       28.355     1687.931     2679.112      803.985        0.558        0.259       77.336       26.104        0.114      340.057       13.816      858.047
09/26/2014  20:04:00     -171.644       38.569      -14.398       91.542       54.400       34.840     8379.900     2959.317     1213.851        2.185        0.628      175.924       34.865        0.039      340.059       13.817      858.034
09/26/2014  20:05:00     -200.763       48.246      -26.801       67.104       55.139       36.477     4502.913     3040.263     1330.579        2.611        0.444      206.479       34.648        0.028      340.018       13.745      858.028
09/26/2014  20:06:00     -181.642       96.733      -24.604       79.007       91.634       45.208     6242.028     8396.834     2043.802        2.982        0.834      205.794       41.561        0.041      339.988       13.696      858.020
09/26/2014  20:07:00     -143.112       43.966      -27.464       57.269       70.322       36.496     3279.699     4945.246     1331.927        1.636        0.478      149.713       30.423        0.041      339.977       13.679      858.014
09/26/2014  20:08:00     -205.388       98.538      -25.496       75.180       56.109       41.019     5652.106     3148.275     1682.596        3.151        0.524      227.803       33.267        0.021      339.981       13.685      858.015
09/26/2014  20:09:00     -138.835       69.719       -7.925       70.388       56.136       31.510     4954.443     3151.235      992.875        1.665        0.455      155.357       27.333        0.031      339.974       13.675      858.013
09/26/2014  20:10:00     -192.071       96.261      -31.945       74.181       61.320       44.078     5502.853     3760.127     1942.846        2.919        0.560      214.843       39.607        0.034      339.975       13.676      858.027
09/26/2014  20:11:00     -215.913       93.811      -41.121       71.443       75.590       38.114     5104.167     5713.824     1452.681        3.469        0.614      235.412       28.954        0.015      339.973       13.671      858.051
09/26/2014  20:12:00     -217.667     -110.754       -6.065      122.317       88.707       53.527    14961.385     7869.002     2865.176        4.268        1.285      244.224       56.303        0.053      339.689       13.193      858.063
09/26/2014  20:13:00     -326.411      -31.926      -18.425       90.460       76.102       55.006     8182.968     5791.444     3025.704        6.245        0.850      327.968       51.966        0.025      339.622       13.079      858.084
09/26/2014  20:14:00     -242.019      -28.130      -16.034       85.100       75.903       46.397     7242.005     5761.253     2152.655        3.739        0.758      243.648       36.974        0.023      339.691       13.195      858.108
09/26/2014  20:15:00     -183.022      -29.701       -8.882       60.867       62.030       40.153     3704.762     3847.759     1612.236        2.181        0.458      185.417       35.812        0.037      339.587       13.022      858.115
09/26/2014  20:16:00     -252.415      -27.462      -18.715       82.067       62.061       46.620     6734.969     3851.514     2173.412        3.879        0.638      253.905       46.109        0.033      339.616       13.067      858.120
09/26/2014  20:17:00     -232.918      -43.033      -29.994       79.630       47.889       35.348     6340.948     2293.381     1249.472        3.344        0.494      236.860       36.159        0.023      339.645       13.119      858.128
09/26/2014  20:18:00     -202.345      -21.311      -24.900       59.973       38.775       28.666     3596.710     1503.533      821.746        2.397        0.296      203.464       26.987        0.018      339.657       13.138      858.138
09/26/2014  20:19:00     -215.349      -57.681      -10.206      126.330       53.819       36.401    15959.296     2896.444     1325.056        3.499        1.009      222.940       39.686        0.032      339.727       13.257      858.143
09/26/2014  20:20:00     -204.419      -15.050       -6.092      131.020       75.309       43.531    17166.260     5671.499     1894.979        3.339        1.237      204.972       52.312        0.065      339.799       13.377      858.156
09/26/2014  20:21:00     -124.842       15.619      -14.842      113.795       67.074       36.537    12949.260     4498.886     1334.982        1.741        0.939      125.815       51.231        0.166      339.787       13.361      858.164
09/26/2014  20:22:00      -23.947       30.951        2.436       41.622       52.812       21.059     1732.384     2789.128      443.499        0.325        0.248       39.133       17.858        0.208      339.828       13.430      858.161
09/26/2014  20:23:00      -32.926       46.214        2.381       30.536       47.052       22.910      932.465     2213.883      524.867        0.345        0.184       56.744       17.461        0.095      339.794       13.373      858.157
09/26/2014  20:24:00      -50.539       83.353       -9.942       34.375       62.494       19.592     1181.661     3905.469      383.860        0.753        0.274       97.478       18.445        0.036      339.859       13.482      858.158
09/26/2014  20:25:00      -77.737       55.025        2.477       63.579       62.061       33.177     4042.288     3851.507     1100.731        0.903        0.450       95.241       27.492        0.083      339.896       13.543      858.153
09/26/2014  20:26:00      -23.754       71.354       -4.408       51.325       56.303       30.518     2634.249     3170.058      931.373        0.620        0.337       75.204       26.779        0.127      339.872       13.502      858.148
09/26/2014  20:27:00      -86.578      124.807       -8.090       67.899       62.196       36.000     4610.312     3868.319     1296.015        1.645        0.489      151.896       30.830        0.041      339.907       13.561      858.149
09/26/2014  20:28:00     -103.877      164.396      -25.850       61.630       70.674       34.831     3798.253     4994.759     1213.196        2.424        0.500      194.465       31.300        0.026      339.908       13.560      858.175
09/26/2014  20:29:00      -28.647      101.203      -10.025       33.622       39.870       30.020     1130.409     1589.645      901.215        0.739        0.181      105.180       22.669        0.046      339.932       13.605      858.195
09/26/2014  20:30:00      -31.103       62.808       -8.189       20.373       38.794       16.731      415.076     1504.941      279.911        0.359        0.110       70.087        9.131        0.017      339.956       13.645      858.217
09/26/2014  20:31:00        8.345       61.647       -5.097       17.857       21.699       15.323      318.865      470.846      234.804        0.246        0.051       62.210       14.128        0.052      339.884       13.523      858.247
09/26/2014  20:32:00       14.668       87.531       -5.635       12.457       27.856       16.186      155.174      775.958      261.971        0.455        0.060       88.751       15.326        0.030      339.809       13.396      858.286
09/26/2014  20:33:00       15.442      128.044      -21.171       25.474       34.658       18.046      648.947     1201.203      325.674        0.963        0.109      128.971       17.058        0.017      339.801       13.384      858.305
09/26/2014  20:34:00        8.931      187.439      -24.534       30.483       57.643       28.208      929.205     3322.762      795.701        2.043        0.252      187.651       27.588        0.022      339.743       13.284      858.318
09/26/2014  20:35:00     -117.126      177.346      -33.115       49.881       61.354       33.342     2488.154     3764.373     1111.689        2.681        0.368      212.532       23.517        0.012      339.746       13.289      858.318
09/26/2014  20:36:00      -96.131      186.083      -25.470       60.402       81.377       42.211     3648.417     6622.254     1781.810        2.828        0.603      209.447       40.648        0.038      339.805       13.387      858.311
09/26/2014  20:37:00     -141.885       46.455      -16.706       56.423       91.365       32.803     3183.590     8347.578     1076.023        1.759        0.630      149.297       30.566        0.042      339.830       13.430      858.283
09/26/2014  20:38:00     -126.179      -28.502      -13.374       57.246       41.532       38.321     3277.132     1724.917     1468.499        1.169        0.324      129.358       21.193        0.027      339.804       13.391      858.261
09/26/2014  20:39:00     -120.433       76.894      -25.626       77.885       62.272       35.701     6066.014     3877.820     1274.536        1.614        0.561      142.887       36.800        0.066      339.802       13.384      858.271
09/26/2014  20:40:00     -112.807       51.856      -31.576       65.690       46.625       31.452     4315.162     2173.862      989.260        1.194        0.374      124.155       19.207        0.024      339.825       13.420      858.257
09/26/2014  20:41:00      -70.535       52.880      -20.471       42.515       41.498       29.571     1807.562     1722.109      874.432        0.630        0.220       88.156       22.769        0.067      339.826       13.426      858.260
09/26/2014  20:42:00      -30.823       30.615       -6.442       28.785       22.456       17.579      828.589      504.293      309.035        0.179        0.082       43.444       10.699        0.061      339.820       13.416      858.255
09/26/2014  20:43:00      -50.310       23.459        0.567       29.798       24.652       20.504      887.939      607.713      420.424        0.250        0.096       55.510       17.240        0.096      339.821       13.416      858.262
09/26/2014  20:44:00      -73.605      112.585      -14.755       34.608       63.741       28.488     1197.699     4062.963      811.551        1.219        0.304      134.510       25.983        0.037      339.819       13.414      858.248
09/26/2014  20:45:00      -67.557      108.930       -8.597       35.951       41.659       26.010     1292.475     1735.477      676.526        1.010        0.185      128.178       25.194        0.039      339.868       13.497      858.242
09/26/2014  20:46:00     -112.939      118.861      -33.508       46.609       73.828       36.520     2172.440     5450.522     1333.688        1.848        0.448      163.961       43.281        0.070      339.936       13.609      858.249
09/26/2014  20:47:00     -104.143      103.534      -29.883       54.685       57.785       32.490     2990.466     3339.077     1055.629        1.492        0.369      146.851       29.356        0.040      339.850       13.464      858.242
09/26/2014  20:48:00      -68.388       60.173       -0.389       49.119       54.813       33.537     2412.678     3004.464     1124.709        0.742        0.327       91.092       26.686        0.086      339.820       13.415      858.250
09/26/2014  20:49:00      -87.111      115.938      -17.381       69.238      128.113       46.660     4793.962    16413.021     2177.126        2.235        1.169      145.017       35.144        0.059      339.855       13.473      858.250
09/26/2014  20:50:00     -154.173      131.852      -11.507       93.836      134.923       54.324     8805.140    18204.222     2951.096        3.562        1.498      202.865       49.139        0.059      339.814       13.403      858.262
09/26/2014  20:51:00     -123.814       -0.209      -21.840       82.415       85.993       21.501     6792.229     7394.721      462.309        1.523        0.732      123.814       21.110        0.029      339.819       13.414      858.282
09/26/2014  20:52:00      -58.432       -9.825      -20.469       27.586       39.545       18.271      760.993     1563.813      333.836        0.329        0.133       59.253       10.199        0.030      339.834       13.439      858.298
09/26/2014  20:53:00     -101.289      -50.314      -16.766       38.703       33.477       26.886     1497.893     1120.695      722.859        0.821        0.167      113.097       14.976        0.018      339.825       13.424      858.316
09/26/2014  20:54:00     -157.450       -9.530      -13.867       97.917       73.787       25.772     9587.763     5444.516      664.189        2.038        0.785      157.738       24.039        0.023      339.861       13.481      858.316
09/26/2014  20:55:00     -223.833      101.591      -26.340       64.777       54.802       42.847     4196.082     3003.210     1835.825        3.507        0.452      245.808       32.444        0.017      339.840       13.445      858.314
09/26/2014  20:56:00     -175.034       55.417      -30.711       77.671       60.159       32.993     6032.763     3619.046     1088.555        2.269        0.537      183.598       34.370        0.035      339.786       13.358      858.292
09/26/2014  20:57:00     -111.956       16.252      -13.428       48.580       34.623       20.634     2360.040     1198.787      425.744        0.848        0.199      113.130       19.447        0.030      339.758       13.311      858.280
09/26/2014  20:58:00     -169.388      -51.656       -9.550       70.497       62.656       31.798     4969.773     3925.807     1011.119        2.068        0.495      177.089       15.034        0.007      339.750       13.296      858.273
09/26/2014  20:59:00     -186.725       20.389      -19.715       67.159       65.152       37.493     4510.394     4244.758     1405.694        2.291        0.508      187.835       31.860        0.029      339.697       13.207      858.265
09/26/2014  21:00:00     -206.544      -89.276      -17.442       68.501       81.804       35.943     4692.446     6691.941     1291.926        3.180        0.634      225.013       14.314        0.004      339.659       13.138      858.247
09/26/2014  21:01:00     -223.835      -46.505      -12.924      105.466       85.640       45.999    11123.050     7334.151     2115.944        3.650        1.029      228.615       45.690        0.040      339.628       13.088      858.220
09/26/2014  21:02:00     -203.765      -28.098       -7.450      114.693       72.303       45.116    13154.486     5227.759     2035.435        3.139        1.021      205.693       42.101        0.042      339.578       13.006      858.207
09/26/2014  21:03:00     -183.375      -93.421        2.986       78.570       74.425       32.911     6173.294     5539.044     1083.118        2.758        0.640      205.800       31.093        0.023      339.563       12.980      858.196
09/26/2014  21:04:00      -87.155      -12.654        1.379       67.903       54.106       35.617     4610.845     2927.470     1268.593        0.828        0.440       88.069       38.113        0.187      339.601       13.049      858.200
09/26/2014  21:05:00     -142.743      -19.465        9.700       81.315       59.515       37.016     6612.110     3542.003     1370.174        1.618        0.576      144.064       39.148        0.074      339.546       12.953      858.210
09/26/2014  21:06:00     -220.517      -46.645      -15.711       53.303       73.896       33.851     2841.157     5460.622     1145.870        3.025        0.472      225.396       27.464        0.015      339.530       12.921      858.218
09/26/2014  21:07:00     -145.402      -42.226       -7.035       63.889       57.052       25.844     4081.857     3254.960      667.890        1.549        0.400      151.409       21.749        0.021      339.549       12.956      858.225
09/26/2014  21:08:00     -195.530       -1.388      -14.074       86.244       73.783       36.390     7438.070     5443.864     1324.256        2.632        0.710      195.535       40.510        0.043      339.549       12.954      858.237
09/26/2014  21:09:00     -131.519      -33.774       -8.422       52.228       49.994       37.091     2727.768     2499.359     1375.718        1.255        0.330      135.786       23.477        0.030      339.533       12.930      858.235
09/26/2014  21:10:00     -104.549       59.103      -17.937       50.993       84.882       34.500     2600.333     7204.977     1190.262        1.287        0.550      120.098       30.924        0.066      339.535       12.934      858.231
09/26/2014  21:11:00     -208.107       97.420      -31.932       77.123      109.870       45.420     5948.006    12071.502     2062.982        3.695        1.004      229.781       48.361        0.044      339.498       12.868      858.239
09/26/2014  21:12:00      -93.372       15.292      -18.256       78.092       80.172       37.658     6098.312     6427.536     1418.108        1.161        0.697       94.616       42.190        0.199      339.528       12.923      858.224
09/26/2014  21:13:00      -80.993       26.662       -3.660       79.904       79.311       37.354     6384.692     6290.289     1395.355        1.067        0.704       85.268       35.066        0.169      339.547       12.954      858.216
09/26/2014  21:14:00      -94.317        5.066        0.406       65.023       77.706       34.597     4227.934     6038.180     1196.985        1.019        0.573       94.453       28.618        0.092      339.494       12.867      858.200
09/26/2014  21:15:00     -156.082      -22.973       -4.098       76.212       66.798       43.251     5808.218     4461.907     1870.656        1.852        0.607      157.764       36.251        0.053      339.503       12.879      858.171
09/26/2014  21:16:00     -307.744       82.710      -53.174      120.671      107.188       62.665    14561.585    11489.308     3926.873        6.717        1.499      318.664       55.353        0.030      339.483       12.844      858.145
09/26/2014  21:17:00     -253.418      120.651      -34.214      137.671      152.818       71.331    18953.418    23353.487     5088.142        6.366        2.370      280.673       64.816        0.053      339.475       12.830      858.115
09/26/2014  21:18:00      -86.957       -0.222       -1.529       95.587       67.071       63.465     9136.910     4498.458     4027.803        1.261        0.883       86.957       48.508        0.311      339.475       12.833      858.067
09/26/2014  21:19:00     -169.011       46.391      -18.815       80.123      109.496       62.417     6419.740    11989.281     3895.826        2.668        1.115      175.262       58.522        0.111      339.432       12.760      858.039
09/26/2014  21:20:00     -194.586      -40.591      -24.454       96.760      125.378       54.884     9362.422    15719.688     3012.263        3.410        1.405      198.775       56.665        0.081      339.383       12.675      858.029
09/26/2014  21:21:00     -278.241      -84.687      -25.488      141.070      141.873       67.080    19900.623    20128.004     4499.722        6.488        2.226      290.844       36.340        0.016      339.348       12.616      858.004
09/26/2014  21:22:00     -255.696      -68.002      -26.714      155.211      103.922       55.304    24090.549    10799.879     3058.542        5.433        1.897      264.584       63.776        0.058      339.318       12.567      857.998
09/26/2014  21:23:00     -321.972      -82.739      -30.667      130.380      123.050       50.773    16998.848    15141.402     2577.854        7.308        1.736      332.433       42.916        0.017      339.307       12.547      858.009
09/26/2014  21:24:00     -216.604      -50.106       -1.577      158.987      115.167       65.932    25276.893    13263.385     4347.009        4.615        2.144      222.324       57.519        0.067      339.293       12.523      858.008
09/26/2014  21:25:00     -329.874      -41.959      -27.481      154.939      171.915       82.984    24006.152    29554.686     6886.371        8.588        3.022      332.531       88.464        0.071      339.282       12.505      858.005
09/26/2014  21:26:00     -234.844      -66.998      -17.092      135.532      103.559       60.898    18368.963    10724.502     3708.588        4.636        1.640      244.214       62.124        0.065      339.274       12.492      857.997
09/26/2014  21:27:00     -371.898      -64.150      -26.956      155.906      123.208       75.809    24306.536    15180.105     5746.957        9.418        2.262      377.390       65.511        0.030      339.260       12.467      858.013
09/26/2014  21:28:00     -225.301      -87.967      -13.310       91.984      114.196       65.425     8460.996    13040.789     4280.396        4.222        1.289      241.865       55.165        0.052      339.245       12.444      858.019
09/26/2014  21:29:00     -298.526        2.193      -26.463      138.527      139.482       67.061    19189.627    19455.228     4497.224        6.648        2.157      298.534       58.887        0.039      339.206       12.379      858.021
09/26/2014  21:30:00     -324.623      -20.854      -39.072      211.064      141.028       85.702    44547.846    19888.848     7344.915        8.955        3.589      325.293       86.726        0.071      339.212       12.388      857.986
09/26/2014  21:31:00     -391.050       -8.990      -45.994      138.028      132.898       71.889    19051.616    17661.861     5168.040        9.849        2.094      391.153       64.052        0.027      339.199       12.367      858.007
09/26/2014  21:32:00     -280.340     -115.865      -10.764      135.654      112.464       70.750    18401.937    12648.142     5005.541        6.409        1.803      303.340       67.380        0.049      339.208       12.382      857.988
09/26/2014  21:33:00     -468.113      -61.767      -51.733      141.308      165.930       74.112    19967.868    27532.868     5492.597       13.930        2.650      472.171       67.038        0.020      339.225       12.410      857.953
09/26/2014  21:34:00     -253.295       47.924      -26.010       91.296      104.859       57.863     8335.042    10995.410     3348.106        4.490        1.134      257.789       42.465        0.027      339.218       12.396      857.969
09/26/2014  21:35:00     -236.090      -50.136      -13.709      120.893      108.758       51.958    14615.189    11828.285     2699.617        4.379        1.457      241.354       38.551        0.026      339.284       12.510      857.960
09/26/2014  21:36:00     -220.202       -0.332      -22.786      107.665      148.693       64.117    11591.804    22109.495     4111.029        4.340        1.891      220.202       62.295        0.080      339.241       12.436      857.996
09/26/2014  21:37:00     -192.246      -46.996       -3.209      156.756      152.954       84.833    24572.393    23395.074     7196.556        4.716        2.758      197.907       80.587        0.166      339.276       12.496      858.008
09/26/2014  21:38:00     -220.855       -5.329       -7.168      129.888      154.312       67.226    16870.940    23812.051     4519.289        4.702        2.260      220.919       66.681        0.091      339.283       12.507      858.053
09/26/2014  21:39:00     -123.431       25.866      -18.892       64.480       87.629       40.637     4157.659     7678.815     1651.405        1.487        0.674      126.112       27.256        0.047      339.293       12.526      858.113
09/26/2014  21:40:00     -206.470       41.565      -11.019       96.720      137.871       51.604     9354.852    19008.479     2662.963        3.775        1.551      210.612       44.903        0.045      339.292       12.522      858.143
09/26/2014  21:41:00     -118.956      -29.460       -8.650      102.472       75.855       51.379    10500.544     5754.048     2639.812        1.699        0.945      122.549       64.394        0.276      339.317       12.563      858.180
09/26/2014  21:42:00     -138.274       40.372      -29.803      108.009       83.833       52.199    11665.973     7027.975     2724.763        2.152        1.071      144.047       60.118        0.174      339.329       12.584      858.206
09/26/2014  21:43:00     -219.643       92.967      -24.863      115.100      114.100       65.265    13247.983    13018.899     4259.552        4.401        1.526      238.508       63.018        0.070      339.338       12.598      858.263
09/26/2014  21:44:00     -195.774       53.134      -21.515      131.424      109.509       60.261    17272.350    11992.189     3631.425        3.725        1.645      202.856       72.503        0.128      339.346       12.614      858.267
09/26/2014  21:45:00     -205.052       77.037      -36.409      149.381      147.400       68.744    22314.675    21726.663     4725.681        4.903        2.438      219.045       82.824        0.143      339.336       12.597      858.310
09/26/2014  21:46:00     -176.303      -13.238        6.918      152.700      104.127       71.442    23317.217    10842.331     5104.025        3.528        1.963      176.799       83.740        0.224      339.346       12.613      858.355
09/26/2014  21:47:00     -263.413       62.464      -48.457      105.175      143.823       68.061    11061.681    20684.993     4632.289        5.600        1.819      270.718       60.840        0.051      339.335       12.592      858.393
09/26/2014  21:48:00     -104.206       -4.538       21.265      158.792       77.199       54.189    25215.014     5959.746     2936.479        2.272        1.706      104.304       67.411        0.418      339.347       12.616      858.411
09/26/2014  21:49:00     -277.737      -57.277      -10.367      109.674      117.183       61.969    12028.343    13731.868     3840.166        5.506        1.480      283.581       45.632        0.026      339.320       12.568      858.447
09/26/2014  21:50:00     -176.606      -51.246      -21.739      117.493       76.489       49.310    13804.696     5850.510     2431.451        2.818        1.104      183.891       44.171        0.058      339.327       12.580      858.429
09/26/2014  21:51:00     -202.266       47.690      -28.129       99.890      109.722       54.880     9977.994    12038.944     3011.841        3.450        1.251      207.812       47.688        0.053      339.289       12.519      858.401
09/26/2014  21:52:00     -277.243       13.620      -30.134       87.195       95.714       51.450     7602.950     9161.169     2647.137        4.868        0.971      277.577       39.557        0.020      339.280       12.501      858.364
09/26/2014  21:53:00     -205.649       21.057      -32.962      106.067      139.978       63.655    11250.261    19593.975     4052.020        3.935        1.745      206.724       53.770        0.068      339.274       12.493      858.325
09/26/2014  21:54:00     -286.908      -37.532      -39.749       96.201       99.040       69.243     9254.546     9808.998     4794.580        5.458        1.193      289.352       38.471        0.018      339.246       12.444      858.279
09/26/2014  21:55:00     -177.587       66.497      -25.295       88.261      119.855       65.658     7790.060    14365.203     4311.031        3.153        1.323      189.629       35.052        0.034      339.248       12.448      858.251
09/26/2014  21:56:00     -298.128       83.639      -31.304      112.543      129.986       66.491    12665.876    16896.336     4421.049        6.541        1.699      309.638       63.437        0.042      339.204       12.375      858.249
09/26/2014  21:57:00     -169.791       42.615      -21.211       96.654       94.729       57.858     9342.083     8973.545     3347.574        2.638        1.083      175.057       50.041        0.082      339.217       12.398      858.263
09/26/2014  21:58:00     -164.888        9.387      -45.544       94.847       84.608       50.043     8996.022     7158.547     2504.279        2.400        0.933      165.155       45.556        0.076      339.217       12.399      858.269
09/26/2014  21:59:00     -195.652      -70.466        9.006      159.454      131.425       69.697    25425.512    17272.658     4857.677        4.543        2.378      207.955       80.038        0.148      339.195       12.362      858.278
09/26/2014  22:00:00     -136.221      -48.065       -5.982       84.182       66.218       41.461     7086.617     4384.829     1719.040        1.704        0.660      144.452       32.783        0.052      339.212       12.390      858.310
09/26/2014  22:01:00      -78.190      -27.480      -12.536      106.856       51.630       37.666    11418.276     2665.650     1418.761        1.126        0.775       82.878       45.001        0.295      339.197       12.365      858.352
09/26/2014  22:02:00     -123.716       -5.248      -12.796       76.127       56.887       29.828     5795.250     3236.160      889.727        1.271        0.496      123.828       30.307        0.060      339.182       12.340      858.405
09/26/2014  22:03:00     -269.536      -75.201      -13.567       98.604       62.814       37.012     9722.772     3945.578     1369.871        4.676        0.752      279.830       24.010        0.007      339.149       12.280      858.409
09/26/2014  22:04:00     -218.279      -45.227      -19.873       71.269       58.660       42.658     5079.222     3440.947     1819.715        3.021        0.517      222.916       35.857        0.026      339.146       12.276      858.427
09/26/2014  22:05:00     -237.512      -93.090      -19.914      100.326       85.396       45.819    10065.396     7292.440     2099.416        4.246        0.973      255.103       38.408        0.023      339.172       12.321      858.419
09/26/2014  22:06:00     -174.069      -42.796      -13.151       61.547       65.476       35.033     3788.051     4287.146     1227.280        2.080        0.465      179.253       29.485        0.027      339.170       12.318      858.415
09/26/2014  22:07:00      -85.825       -5.046      -13.421       49.751       51.473       31.406     2475.123     2649.494      986.343        0.684        0.306       85.973       24.089        0.079      339.188       12.349      858.391
09/26/2014  22:08:00     -197.072      -95.097      -19.339      109.193       81.136       43.525    11923.024     6583.071     1894.441        3.432        1.020      218.817       41.661        0.036      339.194       12.358      858.397
09/26/2014  22:09:00     -146.811       -4.196       -5.878       75.349       46.128       36.101     5677.474     2127.747     1303.280        1.536        0.455      146.871       32.692        0.050      339.186       12.345      858.394
09/26/2014  22:10:00     -263.101      -50.452      -13.846      120.514       99.135       51.959    14523.727     9827.668     2699.787        4.950        1.353      267.895       59.795        0.050      339.165       12.309      858.414
09/26/2014  22:11:00     -312.127      -93.888      -12.140      160.137      106.944       63.482    25643.801    11437.090     4029.988        7.374        2.056      325.942       73.621        0.051      339.167       12.312      858.425
09/26/2014  22:12:00     -344.245     -104.229       -8.153      181.014      108.248       66.062    32766.004    11717.601     4364.210        8.913        2.442      359.678       85.326        0.056      339.143       12.272      858.433
09/26/2014  22:13:00     -348.668        0.489      -21.667       99.770       92.808       55.853     9954.015     8613.338     3119.561        7.186        1.084      348.668       45.320        0.017      339.122       12.236      858.436
09/26/2014  22:14:00     -272.952       20.308      -27.517       67.389       84.774       40.319     4541.286     7186.595     1625.612        4.451        0.668      273.707       27.887        0.010      339.131       12.252      858.440
09/26/2014  22:15:00     -148.194      -47.824       -0.333       84.146       73.576       43.995     7080.485     5413.489     1935.540        1.934        0.721      155.719       42.447        0.074      339.141       12.269      858.424
09/26/2014  22:16:00      -89.924      -14.899       10.393       85.567       63.536       39.925     7321.690     4036.765     1594.039        1.068        0.648       91.150       45.351        0.248      339.173       12.323      858.432
09/26/2014  22:17:00     -373.943      -19.012      -24.617      140.171      115.445       61.276    19647.802    13327.452     3754.745        8.876        1.836      374.426       61.514        0.027      339.162       12.301      858.436
09/26/2014  22:18:00     -138.385      -30.625       -0.957      100.383       88.965       55.249    10076.820     7914.769     3052.504        2.056        1.052      141.733       43.665        0.095      339.164       12.308      858.445
09/26/2014  22:19:00     -322.743      -68.516       -0.373      162.344       99.741       66.100    26355.451     9948.285     4369.254        7.476        2.034      329.936       76.297        0.053      339.154       12.289      858.429
09/26/2014  22:20:00     -252.628      -37.975      -13.375      116.113       84.081       56.664    13482.224     7069.659     3210.812        4.460        1.188      255.466       56.119        0.048      339.145       12.276      858.435
09/26/2014  22:21:00     -341.029      -61.696      -26.381      139.293      126.441       66.533    19402.511    15987.229     4426.675        8.030        1.991      346.565       69.276        0.040      339.152       12.285      858.424
09/26/2014  22:22:00     -265.254      -62.287       -9.502      112.189      111.793       57.894    12586.413    12497.654     3351.747        5.138        1.422      272.469       53.080        0.038      339.145       12.275      858.419
09/26/2014  22:23:00     -222.843      -16.208       -8.377      103.641       96.451       53.038    10741.463     9302.882     2813.027        3.642        1.143      223.432       44.918        0.040      339.182       12.339      858.431
09/26/2014  22:24:00     -280.437      -38.871      -21.231       78.674       78.893       48.375     6189.536     6224.049     2340.098        4.768        0.738      283.118       40.206        0.020      339.205       12.376      858.447
09/26/2014  22:25:00     -236.766      -12.869      -23.703      109.431       99.253       52.763    11975.137     9851.136     2783.983        4.069        1.231      237.116       53.718        0.051      339.196       12.363      858.467
09/26/2014  22:26:00     -150.026       28.931       -1.760      105.009      118.220       63.268    11026.904    13975.967     4002.802        2.617        1.450      152.790       52.561        0.118      339.216       12.398      858.471
09/26/2014  22:27:00     -223.627      -85.252      -19.892      150.834      111.763       62.895    22750.882    12490.995     3955.818        4.843        1.960      239.325       74.771        0.098      339.184       12.341      858.462
09/26/2014  22:28:00     -204.698      -48.933        1.043      168.274      102.546       60.621    28316.188    10515.766     3674.960        4.339        2.125      210.465       75.323        0.128      339.198       12.366      858.484
09/26/2014  22:29:00     -300.526     -119.608      -10.351      152.489      126.654       70.882    23252.841    16041.302     5024.310        7.452        2.216      323.453       80.085        0.061      339.182       12.337      858.491
09/26/2014  22:30:00     -234.461      -79.681       -4.784      150.746       92.925       57.266    22724.415     8635.028     3279.426        4.799        1.732      247.631       55.221        0.050      339.220       12.402      858.493
09/26/2014  22:31:00     -263.415      -86.283      -10.219      155.675       96.310       62.902    24234.564     9275.628     3956.702        5.720        1.873      277.187       70.438        0.065      339.302       12.539      858.483
09/26/2014  22:32:00     -319.212      -54.934       -3.476      139.226       81.762       61.034    19383.990     6685.063     3725.172        6.736        1.490      323.904       72.453        0.050      339.290       12.518      858.476
09/26/2014  22:33:00     -344.273      -22.802      -26.823      117.746      116.579       45.142    13864.032    13590.763     2037.812        7.462        1.475      345.028       56.529        0.027      339.270       12.486      858.484
09/26/2014  22:34:00     -341.166      -58.268      -17.849      173.502      135.872       60.279    30102.906    18461.185     3633.556        8.614        2.610      346.106       66.586        0.037      339.242       12.438      858.453
09/26/2014  22:35:00     -162.619      119.249      -32.031      141.841      108.401       74.215    20118.912    11750.871     5507.911        3.953        1.869      201.656       80.002        0.157      339.251       12.455      858.430
09/26/2014  22:36:00     -216.969       57.678      -42.790      118.111      129.506       61.574    13950.282    16771.850     3791.376        4.337        1.726      224.504       63.531        0.080      339.209       12.384      858.430
09/26/2014  22:37:00     -231.617      200.307      -28.661      126.153      129.038       74.343    15914.485    16650.923     5526.912        6.634        1.905      306.218       61.231        0.040      339.175       12.325      858.385
09/26/2014  22:38:00     -251.343     -101.693       -8.231      139.149      120.609       74.121    19362.404    14546.462     5493.957        5.649        1.970      271.136       56.565        0.044      339.167       12.313      858.341
09/26/2014  22:39:00     -303.364      -95.880        0.236      189.666      111.844       76.825    35973.215    12508.999     5902.142        7.779        2.719      318.156       69.063        0.047      339.145       12.276      858.357
09/26/2014  22:40:00     -342.898     -135.232      -21.091      169.587      130.994       76.247    28759.754    17159.461     5813.590        9.401        2.587      368.601       75.963        0.042      339.129       12.247      858.352
09/26/2014  22:41:00     -507.282     -181.260      -19.529      237.452      196.284       97.073    56383.652    38527.523     9423.228       19.744        5.217      538.693      111.528        0.043      339.093       12.186      858.336
09/26/2014  22:42:00     -395.587      -73.106       -9.275      222.797      158.970       90.991    49638.549    25271.437     8279.402       12.254        4.159      402.286       96.205        0.057      339.089       12.180      858.296
09/26/2014  22:43:00     -178.376      -50.305       13.769      153.416      163.522       77.143    23536.371    26739.462     5950.980        4.537        2.811      185.334       81.950        0.196      339.127       12.246      858.281
09/26/2014  22:44:00     -264.996     -166.208      -10.047      178.475      140.730       97.458    31853.361    19805.001     9498.126        7.954        3.058      312.807       89.061        0.081      339.141       12.269      858.327
09/26/2014  22:45:00     -384.216        4.547       -3.359      191.466      146.053       89.061    36659.414    21331.549     7931.915       10.678        3.296      384.242       99.936        0.068      339.100       12.199      858.338
09/26/2014  22:46:00     -227.257      -32.240       -0.501      205.427      162.024       84.881    42200.075    26251.673     7204.824        6.416        3.783      229.532       89.828        0.153      339.089       12.180      858.274
09/26/2014  22:47:00     -484.272      -95.059       -8.394      254.031      165.549       94.515    64531.550    27406.400     8933.008       17.223        5.044      493.514      103.907        0.044      339.030       12.082      858.313
09/26/2014  22:48:00     -366.801       14.806      -25.056      175.530      112.351       70.506    30810.696    12622.693     4971.030        9.189        2.420      367.099       54.846        0.022      338.953       11.952      858.338
09/26/2014  22:49:00     -460.036      -22.966      -47.323      188.604      101.685       73.060    35571.289    10339.744     5337.698       13.282        2.562      460.609       68.572        0.022      338.915       11.887      858.282
09/26/2014  22:50:00     -521.877      -31.528      -46.514      170.047      100.541       73.386    28915.880    10108.439     5385.432       15.995        2.220      522.829       82.698        0.025      338.879       11.827      858.267
09/26/2014  22:51:00     -335.664      -47.739      -25.491       99.327       92.463       51.428     9865.867     8549.395     2644.834        6.833        1.053      339.042       44.917        0.018      338.909       11.877      858.220
09/26/2014  22:52:00     -286.191     -138.207       -2.146      106.892       96.367       64.216    11425.931     9286.598     4123.687        6.292        1.242      317.815       48.322        0.023      338.884       11.835      858.151
09/26/2014  22:53:00     -309.946       -1.779       -8.607      144.707      131.494       56.350    20940.216    17290.788     3175.369        6.877        2.070      309.951       60.898        0.039      338.922       11.898      858.119
09/26/2014  22:54:00     -475.207      -50.049      -22.164      198.433      165.964      103.691    39375.753    27544.205    10751.902       15.323        3.884      477.835      112.182        0.055      338.943       11.936      858.077
09/26/2014  22:55:00     -285.502      -46.599       -4.976      172.131      146.948       79.458    29629.237    21593.811     6313.508        7.061        2.877      289.280       81.031        0.078      338.990       12.015      858.057
09/26/2014  22:56:00     -268.752     -155.373       -4.812      184.003      140.377       75.092    33857.116    19705.562     5638.867        7.779        2.960      310.432       90.112        0.084      339.036       12.093      858.013
09/26/2014  22:57:00     -212.693       -4.331       -9.180      130.081       95.658       64.476    16921.016     9150.436     4157.178        3.778        1.511      212.737       59.512        0.078      339.038       12.096      858.072
09/26/2014  22:58:00     -327.636       -9.561      -17.350      203.078      115.497       70.489    41240.787    13339.648     4968.637        8.363        2.977      327.775       91.613        0.078      338.943       11.936      858.080
09/26/2014  22:59:00     -191.787      -61.056       -6.626      119.956       77.708       65.307    14389.361     6038.534     4265.027        3.262        1.235      201.271       65.708        0.107      338.999       12.029      858.071
09/26/2014  23:00:00     -230.522     -161.136       10.238      230.915      159.823      110.205    53321.888    25543.344    12145.137        8.509        4.551      281.256      125.850        0.200      338.967       11.977      858.057
09/26/2014  23:01:00     -172.276     -152.910        7.594      155.744       98.417       72.673    24256.199     9685.993     5281.432        4.616        1.961      230.348       85.114        0.137      338.974       11.988      858.070
09/26/2014  23:02:00     -177.552     -133.397       10.451      171.774      125.347       90.009    29506.328    15711.834     8101.585        5.137        2.666      222.080       82.770        0.139      338.971       11.983      858.041
09/26/2014  23:03:00     -375.871     -237.642       10.189      218.096      171.906       87.380    47565.659    29551.591     7635.231       14.129        4.238      444.694       99.208        0.050      338.902       11.866      858.002
09/26/2014  23:04:00     -607.297     -233.412      -31.404      265.038      179.710       94.678    70245.004    32295.744     8964.003       26.787        5.575      650.608      117.909        0.033      338.869       11.809      858.004
09/26/2014  23:05:00     -340.169      -35.977       -7.821      156.570      119.425       64.112    24514.246    14262.385     4110.305        7.997        2.144      342.066       72.335        0.045      338.881       11.830      858.004
09/26/2014  23:06:00     -158.744      -66.958       -8.980      108.406       93.226       57.241    11751.965     8691.140     3276.498        2.674        1.186      172.288       57.949        0.113      338.926       11.907      858.008
09/26/2014  23:07:00     -311.301     -166.886       -2.957      203.105      117.717       59.762    41251.466    13857.235     3571.532        9.171        2.934      353.213       68.771        0.038      338.974       11.987      858.006
09/26/2014  23:08:00     -399.866     -237.295      -21.268      169.943      134.154       87.001    28880.609    17997.310     7569.132       13.554        2.722      464.975       93.469        0.040      338.989       12.014      858.010
09/26/2014  23:09:00     -225.765      -49.274      -11.723      175.664      118.409       66.573    30857.763    14020.731     4432.021        5.141        2.466      231.080       69.750        0.091      338.972       11.985      858.056
09/26/2014  23:10:00     -305.706      -95.653      -16.889      208.187      132.177       78.722    43341.647    17470.783     6197.231        8.494        3.350      320.321      101.923        0.101      338.916       11.890      858.085
09/26/2014  23:11:00     -386.964       82.128      -29.262      185.830      123.973       85.748    34532.777    15369.268     7352.648       10.729        2.863      395.583       90.505        0.052      338.774       11.651      858.073
09/26/2014  23:12:00     -179.736       22.372        0.060      102.311      100.265       56.941    10467.462    10053.048     3242.296        2.828        1.188      181.123       48.847        0.073      338.772       11.647      858.075
09/26/2014  23:13:00     -222.376      -86.718      -13.604       72.554       81.898       50.322     5264.071     6707.311     2532.318        3.583        0.725      238.686       44.367        0.035      338.769       11.641      858.061
09/26/2014  23:14:00     -104.832      -55.129       -5.130       82.313       54.533       41.604     6775.425     2973.860     1730.882        1.277        0.574      118.444       29.856        0.064      338.784       11.669      858.085
09/26/2014  23:15:00     -247.618     -133.768       -3.383      145.196      108.872       62.819    21081.975    11853.102     3946.213        5.804        1.844      281.441       70.601        0.063      338.751       11.613      858.114
09/26/2014  23:16:00     -278.941     -110.255      -21.083      124.314       75.476       61.463    15453.903     5696.628     3777.656        5.766        1.246      299.940       53.167        0.031      338.719       11.558      858.116
09/26/2014  23:17:00     -221.427      -34.415        5.594      120.685      104.739       50.440    14564.954    10970.198     2544.229        3.916        1.404      224.085       59.652        0.071      338.697       11.521      858.092
09/26/2014  23:18:00     -209.694     -176.476        0.244      142.712      133.477       66.176    20366.792    17815.998     4379.201        5.883        2.128      274.072       76.982        0.079      338.697       11.522      858.079
09/26/2014  23:19:00     -216.592     -114.964        7.648      122.333       94.977       62.764    14965.297     9020.628     3939.260        4.405        1.396      245.212       56.829        0.054      338.686       11.503      858.053
09/26/2014  23:20:00     -229.983     -141.131       -2.370      143.519      143.401       67.293    20597.644    20563.864     4528.412        5.925        2.284      269.833       62.614        0.054      338.684       11.499      858.033
09/26/2014  23:21:00     -233.937      -91.934        0.363      152.799      121.883       72.188    23347.662    14855.493     5211.073        5.329        2.171      251.353       76.405        0.092      338.684       11.501      858.028
09/26/2014  23:22:00     -328.664     -216.964       -4.360      246.255      187.995      105.239    60641.550    35342.259    11075.234       13.107        5.353      393.819      123.592        0.098      338.701       11.529      858.041
09/26/2014  23:23:00     -274.181      -26.624      -13.900       96.931       94.412       62.242     9395.697     8913.560     3874.105        4.913        1.109      275.471       41.038        0.022      338.734       11.585      858.047
09/26/2014  23:24:00     -187.089      -28.165        5.573      139.414       97.456       58.151    19436.277     9497.752     3381.582        3.407        1.616      189.197       58.932        0.097      338.726       11.570      858.012
09/26/2014  23:25:00     -300.273     -175.007       10.581      259.283      178.423       97.426    67227.605    31834.909     9491.777       11.471        5.428      347.550      118.016        0.115      338.734       11.584      858.000
09/26/2014  23:26:00     -362.672     -308.811      -12.085      235.945      165.360      113.864    55669.989    27343.959    12964.931       16.149        4.799      476.335      109.498        0.053      338.728       11.574      857.974
09/26/2014  23:27:00     -499.564     -213.043       -1.596      352.245      191.796      105.397   124076.554    36785.737    11108.448       23.343        8.599      543.095      143.290        0.070      338.708       11.538      857.984
09/26/2014  23:28:00     -581.750     -293.488      -14.184      260.759      210.134      118.541    67995.158    44156.455    14051.926       27.547        6.310      651.589      136.129        0.044      338.654       11.449      857.967
09/26/2014  23:29:00     -483.934     -115.178      -31.834      181.198      164.111       81.840    32832.848    26932.298     6697.789       15.746        3.323      497.451       72.389        0.021      338.645       11.432      858.010
09/26/2014  23:30:00     -209.550      -78.643       -9.384      140.040      107.671       63.961    19611.258    11593.045     4090.971        4.273        1.765      223.821       76.514        0.117      338.629       11.408      857.970
09/26/2014  23:31:00     -300.704     -103.350       -0.789      205.918      158.159      108.179    42402.217    25014.256    11702.642        9.010        3.956      317.968      102.216        0.103      338.640       11.426      857.926
09/26/2014  23:32:00     -430.669     -252.293       -5.762      216.975      150.109       94.327    47078.335    22532.778     8897.511       16.382        3.925      499.126       99.109        0.039      338.657       11.455      857.960
09/26/2014  23:33:00     -428.274     -189.145      -28.044      196.214      130.175       76.366    38500.021    16945.442     5831.696       14.062        3.064      468.182       82.785        0.031      338.552       11.278      857.937
09/26/2014  23:34:00     -258.121     -124.798        1.488      188.004      131.522       79.308    35345.424    17298.025     6289.813        7.056        2.947      286.707       94.832        0.109      338.582       11.328      857.918
09/26/2014  23:35:00     -266.748      -67.354       10.893      142.906      143.372       92.052    20422.265    20555.660     8473.534        6.262        2.473      275.120       85.285        0.096      338.546       11.268      857.932
09/26/2014  23:36:00     -238.407     -101.776       -7.007      174.632      113.826       79.032    30496.436    12956.439     6246.126        5.846        2.485      259.223       82.985        0.102      338.557       11.286      857.973
09/26/2014  23:37:00     -205.217     -114.277       -2.494      152.433       73.546       60.230    23235.870     5408.992     3627.697        4.372        1.614      234.890       78.679        0.112      338.555       11.284      857.987
09/26/2014  23:38:00     -269.553      -72.575      -17.320      129.208      117.200       62.395    16694.589    13735.937     3893.181        5.627        1.716      279.152       53.639        0.037      338.520       11.225      858.003
09/26/2014  23:39:00     -183.182      -21.231       -7.394      101.921       51.632       44.693    10387.877     2665.869     1997.452        2.455        0.753      184.408       45.064        0.060      338.476       11.151      857.943
09/26/2014  23:40:00     -378.291     -197.705      -17.282      215.504      178.498       98.803    46442.102    31861.601     9761.986       13.526        4.403      426.839      100.053        0.055      338.483       11.161      857.928
09/26/2014  23:41:00     -439.249      -94.983       -1.796      193.308      153.906       83.666    37368.056    23687.189     7000.047       13.500        3.403      449.401       86.577        0.037      338.499       11.189      857.916
09/26/2014  23:42:00     -435.265      -48.187      -38.144      192.486      141.388       81.044    37050.965    19990.615     6568.198       12.841        3.180      437.924       98.335        0.050      338.542       11.262      857.911
09/26/2014  23:43:00     -280.990      -23.460       -5.596      113.410      136.111       58.719    12861.922    18526.286     3447.930        5.718        1.742      281.968       42.954        0.023      338.531       11.243      857.899
09/26/2014  23:44:00     -374.741       57.658      -27.612      161.301      141.467       68.022    26017.874    20013.004     4626.929        9.758        2.533      379.150       63.965        0.028      338.496       11.182      857.879
09/26/2014  23:45:00     -215.060      -32.140       -6.682       93.782      170.279       55.887     8795.011    28994.992     3123.380        4.411        2.046      217.448       50.528        0.054      338.461       11.124      857.920
09/26/2014  23:46:00     -345.314      -83.575      -20.386      126.530       82.792       60.399    16009.861     6854.438     3647.987        7.657        1.326      355.283       64.832        0.033      338.508       11.206      857.956
09/26/2014  23:47:00     -214.825     -103.497        0.422      100.854      100.846       55.588    10171.542    10169.839     3089.970        4.014        1.172      238.456       56.346        0.056      338.518       11.220      857.993
09/26/2014  23:48:00     -280.569       39.649      -16.123      128.779       69.736       51.702    16584.052     4863.062     2673.074        5.233        1.206      283.357       63.185        0.050      338.465       11.131      857.999
09/26/2014  23:49:00     -290.535       14.682      -32.811      157.307       89.806       53.487    24745.620     8065.073     2860.889        6.068        1.784      290.906       71.073        0.060      338.420       11.055      857.979
09/26/2014  23:50:00     -316.239       -9.227      -22.139       93.941       75.180       40.361     8824.932     5652.018     1628.998        5.834        0.805      316.374       43.623        0.019      338.408       11.035      857.997
09/26/2014  23:51:00     -163.397       22.111      -24.178       87.275       62.524       35.779     7616.954     3909.190     1280.163        2.029        0.640      164.886       28.091        0.029      338.409       11.038      858.003
09/26/2014  23:52:00     -119.355       15.984      -10.694       62.636       52.653       29.386     3923.304     2772.387      863.518        1.109        0.378      120.421       29.436        0.060      338.398       11.023      858.008
09/26/2014  23:53:00      -25.036      -64.606       10.967       70.736       43.640       38.380     5003.526     1904.448     1472.997        0.665        0.419       69.288       35.852        0.268      338.428       11.072      857.984
09/26/2014  23:54:00      -64.602      -62.027        2.992       62.882       41.931       27.357     3954.184     1758.242      748.409        0.724        0.323       89.559       24.413        0.074      338.372       10.980      857.975
09/26/2014  23:55:00     -141.495      -55.781       13.360      134.251       66.128       47.048    18023.226     4372.849     2213.543        2.396        1.230      152.093       64.310        0.179      338.392       11.011      857.994
09/26/2014  23:56:00     -119.593      -23.539       26.653      163.758       67.644       63.805    26816.646     4575.650     4071.121        2.551        1.773      121.887       80.879        0.440      338.601       11.362      858.008
09/26/2014  23:57:00     -104.124      -37.094       -8.973       67.872       68.800       30.307     4606.625     4733.389      918.495        1.128        0.513      110.534       25.749        0.054      338.614       11.384      858.036
09/26/2014  23:58:00     -143.545       69.888      -16.670       63.450       80.481       36.532     4025.862     6477.194     1334.570        1.880        0.592      159.654       34.532        0.047      338.618       11.391      858.053
09/26/2014  23:59:00     -158.658       15.849       -5.833       97.623       90.546       42.401     9530.169     8198.652     1797.877        2.249        0.976      159.448       41.566        0.068      338.558       11.289      858.052
